GFSCGP_925_rhum_000.txt.gz
RH
23 25 23 18 17 14 16 17 18 20 25 48 57 60 60 69 74 74 75 73 70 67 64 67 75 80 84 88 86 84 81 79 53 45 46 42 41 42 42 40 39 38 38 37
25 24 19 25 26 25 26 29 34 32 34 47 50 52 50 54 59 67 70 70 65 64 62 57 58 58 66 71 73 55 52 46 42 38 40 40 42 42 41 40 39 40 39 38
26 20 22 26 30 31 34 28 28 39 42 42 44 50 53 48 60 62 64 61 61 63 66 56 48 46 44 46 43 36 37 33 32 30 30 33 36 43 47 44 42 42 40 36
30 28 26 28 29 31 31 28 33 45 44 51 38 70 46 53 62 62 62 64 65 61 54 49 40 35 32 32 30 31 32 32 32 32 33 34 38 43 47 45 41 46 46 45
30 28 30 29 26 28 32 30 32 31 38 39 42 62 51 57 65 65 65 62 59 55 55 51 45 44 41 37 36 36 35 36 37 37 38 41 43 40 47 45 47 42 40 42
31 26 27 26 28 26 29 38 45 51 52 60 44 54 60 67 62 62 57 60 61 60 56 54 48 43 41 37 35 36 40 43 43 43 44 44 44 43 41 41 39 45 41 41
32 31 28 26 29 29 39 44 64 58 69 71 49 52 51 48 52 56 58 60 62 59 62 62 54 51 48 46 45 44 44 42 40 40 39 39 42 42 44 46 52 51 46 43
43 45 28 25 27 31 33 43 65 57 79 61 46 58 51 43 45 50 53 56 64 63 62 62 61 54 50 46 43 43 42 44 47 47 47 47 47 48 50 52 52 51 49 50
43 36 27 25 26 30 34 44 40 69 67 67 65 47 43 52 52 53 54 58 68 67 69 68 60 50 49 50 48 46 47 40 31 23 19 22 21 15 13 13 17 19 34 55
39 35 30 25 29 31 30 37 43 66 54 64 64 58 64 56 58 55 58 63 69 67 68 63 55 52 51 52 57 48 30 23 21 21 20 18 17 15 13 13 14 24 55 74
36 39 37 31 36 37 38 40 55 58 69 68 81 68 51 53 55 54 60 67 68 71 66 61 54 48 43 41 36 28 24 24 24 22 22 22 22 22 23 24 22 45 64 69
41 53 62 34 32 36 32 36 41 57 44 85 82 56 55 58 50 60 70 69 70 64 61 56 48 34 28 26 25 24 26 25 24 23 24 26 27 30 33 37 43 53 63 62
42 56 70 50 37 34 33 46 55 59 72 70 76 55 62 67 69 68 76 73 70 68 63 60 48 34 31 29 28 28 26 25 23 25 28 31 34 37 41 46 53 58 60 59
52 57 49 57 42 43 34 44 47 45 69 63 70 40 61 70 74 79 77 74 70 65 60 58 50 35 31 30 29 28 25 23 26 30 33 36 39 44 47 50 58 72 75 76
48 51 50 58 60 44 34 35 54 47 46 51 47 52 43 68 74 76 73 73 70 65 58 56 48 35 31 32 29 27 24 25 29 33 36 40 43 45 48 55 64 75 84 80
62 69 57 62 70 66 46 41 45 50 46 58 54 55 62 70 77 76 74 72 69 63 55 49 42 31 31 31 28 24 24 26 31 36 39 42 45 47 49 56 66 77 79 60
69 87 56 43 74 60 50 46 49 46 47 52 65 51 77 78 76 75 78 72 68 59 50 45 35 26 24 25 23 23 24 27 33 38 40 44 51 50 53 65 71 77 78 74
93 86 79 73 68 44 35 41 46 47 53 63 61 66 72 70 73 71 70 70 70 58 48 44 35 26 20 19 24 25 27 31 35 38 42 46 52 53 60 68 72 70 75 78
70 85 94 68 73 45 30 62 64 57 49 72 66 73 72 76 69 70 70 67 64 59 44 37 32 25 16 19 23 27 30 34 38 40 43 47 53 55 58 67 69 59 64 72
80 81 70 89 52 41 36 43 48 42 69 72 71 76 80 75 90 67 68 67 59 46 38 29 25 19 22 25 31 37 40 42 42 42 46 48 52 55 59 64 57 45 45 44
98 98 76 100 74 63 45 47 44 63 57 79 71 73 84 80 73 63 64 62 49 43 24 24 25 28 28 33 41 41 41 42 47 50 50 51 54 58 57 56 54 52 50 60
90 92 98 97 88 53 49 48 59 59 56 72 77 77 74 72 69 70 68 53 33 34 32 30 30 31 37 42 42 46 50 54 56 57 61 61 62 64 56 59 53 48 57 60
70 64 75 67 68 49 50 54 51 57 56 72 77 80 73 81 75 73 53 40 38 34 34 34 35 38 35 36 45 56 58 56 56 60 70 66 67 68 59 63 56 56 59 55
70 65 78 66 48 61 60 54 59 64 66 67 79 82 80 79 78 58 47 43 40 37 37 38 38 37 40 44 51 65 64 65 71 81 78 77 73 68 61 63 61 58 57 60
73 69 69 76 67 64 62 70 66 69 77 79 81 80 79 73 59 44 44 45 40 40 40 39 40 47 51 55 62 68 72 82 86 94 93 87 86 72 74 62 59 66 68 64
76 68 79 75 52 51 51 45 64 78 83 86 82 79 57 50 45 44 48 46 46 43 43 44 49 56 58 65 68 75 84 90 90 85 87 88 99 99 99 74 68 67 66 66

GFSCGP_925_rhum_003.txt.gz
RH
23 18 19 18 16 14 16 17 18 20 33 42 51 53 55 56 56 60 59 56 59 65 75 87 99 98 97 85 70 66 59 62 63 60 38 34 37 40 35 34 35 36 37 37
22 24 21 27 26 25 26 28 34 34 35 39 45 55 54 55 60 61 58 58 59 65 68 78 91 93 88 86 74 68 66 62 47 39 41 41 39 40 36 37 38 39 39 37
26 22 25 27 29 31 32 31 35 34 36 35 38 47 57 56 58 59 58 57 57 61 65 69 81 86 87 78 69 65 57 39 42 37 32 34 38 44 45 44 41 41 42 43
30 28 25 27 30 29 34 32 37 39 36 36 34 38 55 58 62 60 58 57 56 51 50 52 57 63 65 46 42 42 42 39 36 35 36 37 46 48 47 42 44 44 44 43
31 28 28 30 28 30 35 37 33 32 32 32 37 37 44 55 63 60 57 56 52 47 41 39 39 40 40 36 38 37 37 38 40 39 40 40 38 38 40 42 46 49 47 45
32 27 28 27 32 31 38 37 40 43 40 43 38 34 41 56 53 55 53 54 49 44 42 42 46 47 46 40 42 42 42 43 40 39 39 39 44 48 50 50 52 52 44 45
31 31 28 27 31 30 34 38 48 49 54 47 46 44 34 38 45 46 49 49 49 48 48 49 45 47 54 55 51 46 45 48 42 42 41 38 36 33 32 32 43 36 47 46
34 37 27 28 29 32 36 37 53 57 60 45 45 48 33 36 36 40 41 43 50 51 53 50 52 52 51 55 53 52 51 47 33 21 14 10 7 6 7 7 9 13 34 39
41 36 27 28 28 29 33 36 40 58 60 53 46 42 34 42 40 46 49 49 51 51 53 54 56 56 53 52 55 47 36 21 16 18 17 16 17 17 19 19 19 20 24 52
39 36 31 28 30 33 31 35 39 47 56 54 45 51 40 49 43 44 50 49 52 52 55 56 55 62 64 60 49 28 24 23 22 20 21 23 22 23 22 23 27 28 39 66
34 40 38 33 34 34 35 38 50 45 53 42 48 37 43 43 40 43 42 49 52 55 56 53 56 62 68 52 36 26 26 26 22 21 23 25 25 26 28 31 34 40 51 68
41 51 51 34 33 36 32 36 38 44 39 62 61 36 48 52 45 45 44 53 54 54 52 50 49 47 41 34 31 26 27 24 22 23 26 28 29 32 35 40 44 50 61 67
43 51 56 39 30 32 35 42 45 52 62 62 73 33 50 58 54 46 48 56 58 53 50 46 36 31 31 33 28 27 26 24 24 25 28 31 36 40 43 46 50 56 69 76
50 51 46 46 36 40 41 47 44 40 52 51 58 37 34 48 54 60 60 57 54 52 51 44 33 29 31 30 28 32 29 25 24 28 31 36 42 44 46 49 56 60 70 82
45 48 51 57 56 46 34 44 45 37 40 46 40 43 33 38 48 56 59 56 55 53 51 46 36 28 30 34 32 32 25 24 26 28 35 40 44 46 47 50 55 60 71 81
58 61 56 62 62 57 48 39 43 49 47 42 46 45 36 51 54 62 60 58 56 53 48 44 38 27 30 34 37 25 24 24 25 31 36 40 46 48 48 54 60 61 70 75
61 77 53 48 63 50 49 47 42 47 44 43 53 37 57 62 60 57 59 57 56 54 49 42 38 30 26 32 26 23 22 22 26 31 34 39 45 46 51 55 66 77 81 79
77 65 64 64 66 46 31 44 40 41 41 42 48 48 53 55 60 55 52 56 57 54 49 43 37 32 26 23 21 23 22 24 27 31 35 39 43 47 52 56 70 77 80 78
60 72 77 70 56 41 26 41 55 54 37 46 46 50 63 67 61 58 56 56 54 54 51 42 36 31 25 19 18 22 22 28 36 38 38 40 44 48 54 63 67 64 54 62
67 73 65 72 50 46 34 33 51 42 53 43 55 63 71 62 74 47 57 58 58 56 50 40 34 29 18 15 19 25 34 40 37 34 44 46 49 53 64 63 57 54 58 51
93 92 71 77 69 56 40 44 46 49 44 57 62 62 69 66 59 52 59 62 58 49 34 29 23 21 21 24 30 40 40 37 39 49 50 50 54 61 63 63 55 54 55 57
71 80 82 83 73 57 43 49 57 53 53 56 65 63 69 58 61 57 60 50 41 32 32 28 32 29 30 37 41 39 42 42 52 52 56 64 70 72 67 72 62 54 54 70
67 63 67 61 62 47 45 57 50 55 52 53 64 61 63 67 63 61 51 38 34 34 34 34 36 37 37 34 38 46 45 60 59 66 76 82 85 78 77 72 62 58 65 70
68 60 67 63 46 54 53 49 51 48 53 54 59 58 69 66 65 57 42 37 35 35 35 39 36 36 35 37 42 52 64 65 69 84 87 92 90 86 75 71 62 63 68 70
68 66 67 69 60 56 50 56 54 54 62 66 66 69 70 70 64 46 41 42 41 54 74 42 37 41 42 46 51 59 64 65 89 91 83 81 89 92 87 74 66 58 59 67
69 65 74 72 48 48 48 41 49 60 60 63 73 78 70 59 50 42 43 53 83 87 50 45 44 46 50 55 62 65 64 82 85 90 79 72 77 83 93 100 86 62 67 67

GFSCGP_925_rhum_006.txt.gz
RH
16 13 12 12 10 10 9 11 10 14 24 23 25 25 28 33 35 38 35 35 35 39 51 57 62 59 58 65 71 67 68 68 63 57 53 48 47 49 45 45 52 51 50 49
16 16 17 18 14 12 11 11 17 22 25 22 25 32 32 32 38 36 37 37 40 48 52 63 68 67 65 65 63 64 64 62 54 50 48 51 50 47 44 48 52 48 48 44
12 20 20 16 16 16 18 16 22 16 25 23 24 30 34 40 40 42 39 38 41 47 53 59 65 66 66 66 67 63 56 48 48 52 48 47 48 46 42 42 40 48 52 48
20 21 19 18 19 22 19 21 21 25 22 20 24 22 35 40 45 44 46 45 47 50 52 55 60 64 64 67 62 51 46 50 50 44 46 47 41 39 46 42 45 49 53 54
25 21 20 19 23 24 25 24 23 22 21 23 24 22 34 39 45 47 47 47 48 49 48 48 49 50 47 50 48 47 45 45 47 48 46 42 43 43 44 46 46 44 42 45
22 20 20 22 25 23 26 25 25 24 24 29 21 24 21 37 34 42 43 43 43 42 37 34 36 36 37 43 48 48 44 46 47 48 51 51 48 40 34 29 25 21 20 20
22 23 21 21 26 26 25 24 28 28 32 32 32 29 18 22 29 35 42 38 40 36 31 29 31 32 38 46 50 46 44 46 49 49 43 36 29 25 21 23 21 24 22 23
21 30 22 23 22 22 25 23 25 33 38 22 33 26 18 24 25 30 32 32 34 33 33 32 32 34 41 48 45 45 45 45 40 32 26 25 25 25 25 30 34 31 32 36
23 26 23 25 23 22 27 28 27 39 46 40 23 24 24 27 28 30 30 31 32 32 34 34 38 40 44 45 49 46 37 30 28 29 29 32 34 38 40 40 37 35 38 43
26 30 25 25 23 26 24 24 32 34 45 39 24 30 23 33 31 31 31 34 31 31 34 38 41 44 44 48 47 38 30 29 32 32 34 36 38 41 42 39 38 40 43 47
22 26 31 28 26 24 28 26 28 28 38 29 24 14 26 27 29 32 32 32 31 34 37 41 43 46 46 46 39 33 31 34 32 31 37 40 41 41 42 41 41 44 49 50
28 30 40 28 27 27 24 23 20 24 29 42 49 20 26 32 31 27 29 31 31 35 37 40 44 50 50 40 34 32 32 30 30 32 37 39 41 43 44 44 44 50 53 55
31 34 40 34 30 27 27 26 23 31 40 38 58 17 26 32 34 31 30 29 35 38 40 40 43 45 40 34 31 33 33 30 28 28 30 35 39 44 46 46 49 52 57 61
33 35 33 36 25 26 33 30 25 21 33 25 30 14 18 23 28 30 33 31 36 41 41 39 38 36 32 29 33 33 36 30 28 27 29 34 41 46 50 51 51 53 59 65
35 38 35 34 35 31 26 26 28 25 24 29 16 19 14 17 20 24 32 36 38 41 41 38 34 31 29 29 33 35 32 31 31 30 30 34 43 49 50 52 51 54 63 64
42 47 46 48 41 36 34 25 26 26 24 27 20 23 16 20 26 31 37 39 40 40 39 37 34 31 29 28 32 31 29 29 31 31 34 38 42 48 51 49 54 53 55 58
49 59 46 40 47 44 60 37 25 24 24 27 27 21 25 30 32 32 35 39 39 38 38 38 36 32 28 28 32 29 27 29 31 31 34 37 43 49 46 46 48 48 52 57
60 50 55 59 58 79 20 28 27 24 22 21 23 25 25 26 31 34 32 36 38 36 37 36 36 34 29 27 31 26 24 27 29 32 34 38 42 42 42 43 47 50 52 52
41 49 70 85 42 29 14 23 28 32 19 22 22 22 28 41 42 37 35 34 36 37 37 38 38 35 31 26 27 26 25 25 29 35 36 31 34 38 38 40 47 51 52 50
46 51 46 64 86 85 26 27 38 34 29 28 33 34 41 44 54 21 34 36 38 39 40 41 38 33 29 26 25 25 23 30 36 34 33 37 38 39 40 43 50 54 55 53
75 80 81 63 82 41 26 32 36 37 30 32 38 36 43 45 32 36 40 38 41 41 43 41 35 27 26 27 25 27 34 36 32 38 43 40 41 43 47 52 55 55 54 53
56 68 86 71 91 76 28 40 48 34 40 38 38 37 44 39 42 44 42 43 44 42 40 35 28 29 27 31 35 34 32 30 42 46 45 46 50 58 59 58 56 58 56 54
53 48 48 44 38 33 32 34 33 39 41 38 40 34 40 42 41 44 43 38 39 35 28 28 33 38 41 40 35 27 30 46 51 52 52 55 62 64 63 61 61 58 56 57
49 45 53 52 32 32 31 30 31 32 37 34 33 36 40 45 42 46 44 36 33 29 29 34 39 37 43 45 44 44 49 56 57 59 60 62 63 74 70 63 60 59 58 60
49 49 48 48 37 34 32 34 34 33 36 40 39 44 49 50 49 48 41 34 30 44 57 57 64 60 44 44 49 54 61 64 62 65 65 63 66 71 76 81 66 60 64 60
47 42 55 51 28 37 33 32 37 43 42 44 50 51 55 56 54 45 37 39 67 68 68 64 50 51 55 58 58 65 68 71 77 75 68 63 71 69 76 78 80 80 78 64

GFSCGP_925_rhum_012.txt.gz
RH
17 20 22 16 17 16 14 13 12 10 7 7 12 14 15 14 26 26 28 28 29 30 28 29 27 31 44 51 53 60 62 64 54 56 49 46 43 43 44 49 48 48 45 45
17 22 16 16 14 15 13 13 10 8 8 9 10 13 13 14 15 19 22 28 29 30 30 33 31 32 42 51 54 58 58 59 57 44 45 43 42 41 42 48 48 51 51 49
30 26 13 14 16 15 12 13 15 12 9 9 24 18 14 14 14 15 17 19 24 28 35 37 34 38 42 52 56 56 57 55 41 42 46 44 40 40 43 42 46 47 47 45
38 24 16 15 13 11 23 20 14 18 27 18 23 33 52 32 16 19 20 21 22 25 33 37 42 43 52 54 55 54 51 45 46 39 39 40 41 45 44 42 41 35 28 26
20 16 16 15 16 15 23 21 18 13 17 22 30 30 40 39 30 23 24 24 26 30 34 41 44 55 54 55 53 46 43 43 39 40 43 40 42 40 38 29 26 22 22 22
24 17 16 19 14 14 17 18 19 13 16 47 32 39 43 42 33 32 22 26 28 31 36 39 53 54 54 53 48 44 40 39 42 46 46 45 34 31 29 26 24 26 25 26
19 16 14 13 13 14 14 18 26 38 47 40 15 28 36 36 33 61 68 27 31 36 39 40 53 51 49 50 47 42 39 43 49 50 41 34 31 27 29 28 29 30 28 29
21 23 15 12 12 25 18 14 33 78 79 43 21 27 15 20 29 49 38 29 35 38 41 40 39 44 46 47 46 40 40 45 48 37 32 30 29 28 30 34 34 30 31 33
44 33 18 14 12 14 12 18 14 23 52 39 22 12 8 15 14 15 27 31 37 38 37 36 36 35 40 43 44 40 40 44 40 32 35 36 33 32 36 37 36 32 34 36
61 68 33 17 16 15 19 14 26 26 39 38 19 19 21 21 19 18 26 32 34 34 32 31 31 32 36 41 43 40 40 42 34 35 40 37 37 39 38 37 36 36 38 41
17 40 23 21 21 15 20 20 18 17 34 56 52 23 14 16 16 20 21 30 32 34 32 28 26 28 34 41 42 43 41 35 33 41 40 36 37 39 39 38 38 38 40 42
14 19 46 24 16 14 17 22 18 55 37 50 60 34 14 16 14 16 18 23 28 30 29 27 27 28 35 41 41 45 41 32 37 38 36 37 38 39 37 37 38 39 42 42
18 24 44 30 24 20 21 15 18 19 41 47 69 38 14 15 14 14 18 20 25 28 28 27 28 32 36 39 41 44 38 33 36 36 36 38 38 39 37 37 39 42 42 43
32 24 25 44 26 22 28 19 14 19 59 46 40 19 13 16 17 16 19 19 20 27 26 26 29 34 37 38 43 42 37 34 35 32 32 33 35 35 36 38 41 44 43 44
28 33 25 20 18 22 23 19 17 17 21 32 27 17 12 11 12 13 15 19 19 19 25 26 30 35 38 39 42 40 36 36 34 31 28 26 30 36 40 40 42 44 44 46
31 43 41 44 27 24 27 22 19 16 15 16 15 16 10 15 15 16 15 15 20 19 18 24 29 37 37 39 42 38 35 36 34 31 27 27 32 36 37 41 50 45 44 42
42 64 62 54 38 43 54 42 26 23 16 16 24 18 13 14 16 18 19 18 20 22 23 26 29 33 34 37 40 37 34 36 33 30 30 32 35 39 46 46 41 39 36 38
66 60 66 72 68 67 23 16 16 19 17 14 13 13 13 22 21 18 17 20 22 22 26 27 29 31 32 33 35 34 33 34 32 30 31 38 43 45 42 35 36 34 34 36
38 60 74 96 56 30 22 15 17 18 20 18 19 19 19 21 22 19 26 26 28 27 25 24 24 28 31 32 31 32 32 30 30 31 42 52 52 34 30 32 32 34 34 36
35 57 72 66 80 78 35 23 22 20 34 20 20 23 22 22 63 36 33 33 30 23 22 23 25 27 30 33 32 31 32 29 34 43 43 39 59 42 37 45 40 38 40 43
75 78 86 72 87 65 22 22 21 38 48 28 28 27 30 36 38 34 32 32 29 28 28 29 30 35 34 34 31 32 33 39 43 45 59 71 55 49 46 47 50 51 50 50
65 80 92 82 98 88 20 24 43 44 32 30 29 31 37 35 34 32 30 29 30 31 31 35 35 36 35 35 30 38 50 60 63 70 76 55 56 55 51 56 59 57 56 54
53 48 62 55 62 34 21 25 23 24 29 30 32 29 32 35 35 35 36 34 35 32 30 33 40 46 53 61 62 64 68 71 72 64 58 69 65 63 66 63 68 64 59 54
34 32 52 47 21 22 23 20 22 22 27 28 30 34 37 41 44 41 39 38 32 28 32 37 48 75 84 90 89 84 77 68 67 79 83 77 78 75 65 64 63 62 68 63
42 35 35 36 30 24 21 31 32 34 35 39 43 43 45 45 43 43 36 32 37 56 63 72 72 70 70 71 77 79 71 76 78 81 84 82 74 70 67 64 60 62 66 72
35 34 62 70 40 44 39 43 44 47 46 42 42 41 41 40 39 51 53 55 65 74 80 83 83 80 76 74 69 67 69 72 82 88 84 79 72 70 70 68 67 65 67 69

GFSCGP_925_rhum_015.txt.gz
RH
24 28 33 25 22 19 18 16 23 20 16 13 16 23 35 44 53 38 60 70 62 38 34 32 46 51 53 58 65 66 62 53 62 60 54 50 50 45 46 46 46 45 47 47
24 29 21 17 19 21 22 24 22 14 9 9 18 22 23 51 49 42 66 67 68 48 38 33 47 55 56 58 64 65 64 61 62 55 49 45 44 43 41 47 47 47 47 48
28 22 23 19 21 21 21 25 21 18 12 14 21 28 30 26 34 47 53 62 44 41 40 43 44 60 59 58 62 63 61 55 56 62 48 47 44 45 50 50 51 47 41 37
28 21 24 24 23 19 28 21 25 19 24 28 20 47 46 27 27 27 32 38 38 39 42 45 49 60 60 65 60 62 58 59 55 46 45 41 42 48 52 45 32 28 27 24
26 28 30 29 22 18 22 19 22 23 25 36 28 40 48 35 30 31 29 32 37 44 46 50 55 58 59 60 60 59 58 45 44 42 40 42 46 41 33 32 27 23 22 22
23 19 23 24 17 18 18 20 22 27 32 57 37 39 53 48 34 32 34 27 36 46 53 54 53 59 61 60 62 57 46 41 42 42 41 42 42 35 33 25 23 23 26 27
23 20 26 25 21 20 23 31 48 46 69 65 39 44 37 41 30 32 35 31 36 49 56 69 69 66 61 63 50 42 41 46 44 44 41 36 33 31 27 26 26 27 28 29
35 43 26 18 17 26 24 29 59 54 85 63 47 44 34 22 29 31 31 34 40 53 58 66 62 59 63 53 43 40 43 49 49 46 41 32 28 29 30 29 30 30 30 32
41 37 34 27 24 22 21 32 30 67 69 83 51 31 22 32 36 45 45 46 51 56 61 63 58 57 54 47 41 42 46 50 49 44 35 31 29 28 31 32 32 32 33 35
56 52 46 35 31 20 21 21 38 54 69 55 31 30 35 30 31 44 54 48 55 58 58 62 54 54 52 47 44 42 45 49 41 33 31 30 31 32 34 36 35 35 37 38
53 53 56 43 35 27 27 27 23 31 56 61 74 46 18 22 23 41 46 46 49 50 48 50 46 49 47 45 44 42 44 47 37 34 36 38 36 36 37 37 38 38 39 42
47 57 76 50 25 20 20 24 35 63 36 72 76 53 20 18 17 20 29 39 44 44 43 41 40 44 48 48 45 42 44 44 35 37 40 37 38 39 39 40 38 39 41 42
32 34 60 42 35 31 23 21 20 40 62 51 66 51 21 17 16 16 19 25 43 44 42 38 38 42 47 50 49 44 44 39 36 40 40 39 38 39 40 38 39 40 42 42
38 35 43 57 41 32 32 27 23 31 67 54 62 36 23 22 22 21 18 18 33 43 38 37 35 42 48 49 49 47 45 34 37 39 38 36 39 40 40 39 40 42 44 44
39 41 30 34 36 29 26 29 29 22 35 45 38 34 27 20 22 20 26 21 19 24 26 38 42 52 46 49 51 48 45 37 37 37 37 36 36 39 40 40 41 43 46 44
38 61 43 42 39 42 38 35 32 31 25 22 24 26 18 22 21 22 23 22 24 24 26 31 45 49 48 52 54 49 44 38 36 35 32 31 38 40 40 43 49 50 51 49
52 68 69 58 49 45 53 37 33 32 29 26 29 24 22 32 29 26 25 26 29 24 30 34 39 49 48 49 46 46 42 37 36 32 32 34 36 40 52 61 60 48 53 43
65 66 77 76 67 51 39 24 20 27 26 27 29 32 30 28 32 39 37 38 37 35 34 33 33 36 41 42 46 44 39 38 35 34 38 44 45 51 58 60 52 46 42 44
67 78 84 72 79 49 33 25 27 24 32 30 34 32 29 29 35 49 42 42 40 37 34 30 28 27 31 36 41 41 40 37 37 43 48 55 54 57 67 55 41 39 56 50
49 69 72 82 80 64 51 28 24 23 52 37 37 38 40 36 70 56 40 34 34 34 36 43 39 40 40 37 39 40 41 47 52 59 60 59 62 68 52 50 61 57 57 55
86 81 80 94 88 74 44 27 22 43 54 34 33 40 44 49 58 44 38 40 37 43 42 41 50 58 51 41 40 53 58 69 63 60 72 81 83 72 66 65 60 62 61 62
74 92 97 98 99 83 31 28 36 59 39 38 35 36 38 40 45 48 47 45 39 43 47 57 68 71 65 65 64 76 85 83 74 82 85 80 73 69 71 60 60 63 70 67
74 73 82 73 81 58 24 32 39 36 36 32 37 47 48 56 58 53 39 37 40 46 64 75 81 88 80 70 74 84 78 73 74 78 82 76 75 83 76 72 67 66 64 66
42 40 72 51 32 35 29 25 35 46 52 58 58 57 59 59 53 41 40 50 59 70 78 80 76 76 74 68 68 71 77 73 74 74 78 78 79 80 78 73 66 65 64 62
64 43 48 51 37 54 60 59 59 56 56 50 53 57 53 50 45 52 67 69 72 71 71 71 72 72 73 76 78 75 74 72 71 72 77 80 80 80 74 71 70 68 63 63
51 53 70 79 56 67 66 59 54 56 57 55 65 68 67 65 71 75 79 81 82 84 83 82 80 76 75 69 65 63 63 67 71 75 75 73 77 77 75 73 70 69 71 67

GFSCGP_925_rhum_018.txt.gz
RH
24 30 34 28 31 26 22 21 24 24 20 19 26 42 48 47 48 62 62 55 55 49 50 58 62 63 61 58 61 70 68 63 56 64 55 49 48 48 49 48 46 43 41 43
28 32 25 25 19 23 23 24 26 25 20 14 27 44 44 51 40 48 57 58 44 53 50 59 62 64 61 58 64 74 67 61 58 57 48 45 47 48 46 47 46 46 47 46
31 23 20 23 22 24 24 25 28 24 15 22 27 32 37 43 44 45 50 42 39 48 45 57 62 65 65 72 74 70 63 56 59 57 49 49 47 49 49 47 48 49 47 45
27 23 21 23 28 25 31 22 26 23 24 27 21 44 41 36 37 49 45 60 50 58 39 49 60 66 70 74 70 65 62 57 60 58 50 50 48 50 50 50 51 44 37 33
28 30 29 28 27 24 29 27 22 24 34 32 32 43 34 44 29 46 52 54 56 54 40 45 61 64 68 72 71 65 65 65 60 62 51 47 47 48 52 45 29 26 24 24
23 20 23 24 21 23 21 21 34 36 42 57 45 38 43 48 30 24 38 47 49 46 48 63 62 64 68 69 71 72 68 65 65 62 56 50 45 51 40 28 26 24 25 27
24 22 24 25 22 22 25 37 47 43 66 60 43 42 39 32 37 33 34 39 41 45 63 73 76 70 78 76 75 68 62 56 51 48 50 48 46 46 36 29 24 27 30 33
35 40 30 29 25 25 28 33 54 46 72 50 50 57 42 30 28 31 30 38 55 64 60 67 73 73 80 80 67 58 47 47 48 46 47 47 39 34 30 27 28 29 30 32
45 38 39 29 33 33 24 30 32 65 76 69 58 36 23 35 40 36 43 45 57 68 76 75 74 72 74 67 57 55 50 48 48 46 43 37 32 29 30 31 29 29 32 35
38 41 42 34 28 28 24 23 36 58 61 63 40 39 40 31 33 38 47 49 48 65 76 79 71 69 65 56 51 50 49 47 50 46 40 33 30 31 32 33 31 32 33 36
48 38 48 39 36 31 37 31 28 41 60 57 69 47 25 27 31 34 46 50 52 66 71 71 68 64 59 52 50 48 49 50 52 54 44 33 31 32 33 33 34 40 36 37
47 54 74 45 34 22 30 30 33 60 35 77 78 51 28 23 23 36 46 48 56 60 63 64 64 62 59 52 48 46 46 48 51 51 36 32 35 34 35 36 38 39 39 39
46 48 64 49 33 32 30 26 32 47 62 55 68 52 25 23 19 20 32 48 55 58 58 59 61 61 59 56 54 52 51 49 45 37 35 38 39 38 38 39 40 39 41 41
42 41 41 56 42 38 35 30 30 41 69 57 64 36 28 24 25 22 23 31 52 54 52 51 54 56 56 56 57 58 56 50 45 40 38 40 39 39 39 40 38 42 42 44
41 41 36 35 36 33 30 31 31 33 36 46 38 40 26 22 24 24 26 24 34 47 42 42 48 51 49 54 56 57 52 49 47 43 42 41 39 38 40 41 42 45 46 47
45 45 44 41 44 38 34 34 35 34 28 36 30 31 24 29 30 33 31 29 30 31 32 34 38 53 53 54 55 58 52 48 47 44 44 41 39 42 46 46 50 47 46 47
53 70 67 54 55 45 61 40 34 32 31 31 38 29 34 40 43 38 37 39 38 40 40 43 48 55 54 56 56 56 53 47 45 47 44 43 50 48 52 57 62 67 64 58
64 67 76 77 61 65 46 32 30 35 34 36 36 35 42 48 50 49 42 43 44 43 43 44 42 48 48 50 52 52 58 54 48 46 48 54 54 60 64 77 72 74 62 58
66 79 87 70 74 53 36 25 26 32 38 35 38 35 40 48 49 47 42 41 45 49 52 46 45 45 44 53 61 59 55 48 44 53 53 54 58 64 74 79 78 68 60 61
68 80 81 91 71 63 49 34 25 32 59 38 42 42 40 40 77 60 45 50 54 46 53 55 50 47 48 56 56 52 58 66 74 67 65 68 73 78 82 82 75 75 62 62
84 87 77 96 78 67 47 35 25 34 44 40 47 47 45 53 59 53 55 50 50 57 63 64 68 68 63 62 63 75 77 82 81 75 77 79 82 86 87 84 74 63 62 64
67 86 95 96 91 63 46 29 35 46 49 46 42 43 64 68 60 49 49 50 57 68 74 76 78 78 73 74 74 80 83 80 78 79 85 88 89 88 83 72 65 66 66 62
57 67 77 71 74 53 34 37 46 46 44 41 58 59 66 66 49 48 51 64 76 79 79 74 75 78 71 64 58 69 77 76 76 84 90 95 90 82 74 75 75 71 66 66
51 59 74 60 44 47 44 58 56 60 68 65 64 66 61 51 50 65 73 76 79 80 76 71 73 77 80 79 79 82 80 79 74 74 72 68 66 66 70 73 73 70 68 70
64 50 56 57 67 67 71 69 63 61 64 65 62 57 51 60 68 69 74 75 77 80 77 74 76 78 77 70 68 67 64 64 63 64 66 67 68 67 70 70 71 73 72 70
56 56 69 69 54 68 72 66 64 65 70 68 72 78 74 72 78 83 89 89 88 85 80 77 72 69 69 66 62 62 63 64 64 64 62 63 64 61 62 74 74 65 65 70

GFSCGP_925_rhum_021.txt.gz
RH
26 30 34 28 30 26 27 23 24 24 20 25 39 52 56 58 62 68 71 72 73 78 72 75 79 79 80 76 73 68 67 72 67 65 67 67 60 53 51 50 48 46 46 48
31 34 27 27 26 28 23 25 27 25 22 20 28 47 52 56 55 58 64 66 63 66 66 71 73 73 76 74 69 72 70 71 65 60 61 54 47 48 48 49 46 43 43 44
34 24 24 22 24 27 27 25 28 29 20 26 35 43 54 49 45 48 55 54 53 59 63 70 70 72 73 73 69 67 70 66 62 59 55 49 49 53 53 51 48 47 46 45
29 24 23 22 24 26 31 25 26 27 23 35 24 51 45 52 52 47 46 60 50 53 55 66 68 71 72 72 69 65 68 67 64 60 52 48 51 56 53 51 51 48 41 36
29 28 28 26 22 24 29 27 27 25 37 34 32 41 37 47 54 45 41 44 54 57 52 62 67 67 70 70 74 72 74 70 65 60 54 49 53 52 50 53 47 37 31 28
24 22 26 25 22 24 22 22 36 43 44 54 37 40 41 54 42 42 34 41 42 64 62 52 63 65 70 73 78 79 78 71 65 62 58 50 53 55 52 51 42 29 28 28
26 23 27 24 26 23 28 36 46 42 62 58 44 44 42 30 34 32 34 38 49 55 57 65 73 70 72 78 81 83 80 78 64 69 68 57 54 54 52 46 31 29 31 32
34 37 27 27 26 30 29 33 54 44 64 43 51 52 39 30 32 33 35 36 44 61 55 66 70 72 76 79 83 83 78 78 74 74 70 63 58 56 50 38 29 28 30 31
42 35 35 32 34 26 26 32 33 67 77 72 52 46 24 28 34 44 44 51 60 60 71 70 72 74 77 80 81 78 74 75 72 68 71 70 60 53 44 33 28 29 29 28
36 36 40 38 32 31 26 32 36 59 54 57 50 38 38 33 31 44 54 48 56 73 81 81 78 75 78 80 79 75 72 68 67 59 57 58 52 46 36 30 29 26 29 35
46 34 36 38 34 31 36 33 37 44 62 59 66 49 34 31 25 30 32 52 50 72 82 81 77 79 80 78 74 70 67 60 59 54 54 55 48 37 32 32 29 30 34 36
42 46 58 34 32 31 31 34 36 62 39 78 78 53 29 26 25 28 32 37 54 59 76 76 74 77 73 68 68 68 66 60 56 52 52 51 45 36 36 33 31 34 35 36
47 49 64 47 36 35 34 31 40 50 63 60 69 48 27 30 25 22 32 34 46 60 72 78 80 76 70 65 64 64 66 61 59 56 54 48 40 36 35 36 37 38 37 40
43 47 43 47 43 42 39 35 35 42 71 57 64 36 27 27 28 24 24 30 44 61 67 72 75 74 67 64 62 63 66 64 68 69 60 50 39 35 37 39 36 39 40 42
40 41 36 35 32 37 33 34 38 38 38 47 40 48 34 26 26 28 28 26 45 57 62 62 66 70 66 66 64 62 64 65 64 65 64 51 38 40 42 38 40 40 43 43
47 48 41 47 43 42 37 36 38 38 33 39 35 34 33 31 33 40 35 36 40 43 46 44 51 55 53 56 61 65 67 64 62 59 54 51 48 50 45 44 44 46 48 50
51 67 65 50 54 46 61 46 39 34 33 33 40 34 36 42 42 47 51 48 48 47 47 47 54 57 52 49 54 60 62 62 59 55 56 56 57 55 52 52 56 60 65 78
65 64 74 72 63 69 42 36 34 36 37 36 38 43 46 51 51 49 46 50 51 51 53 54 55 51 54 56 61 66 68 65 64 64 61 64 62 60 64 65 71 79 90 87
63 78 83 72 76 53 39 32 39 37 36 36 48 53 56 54 49 52 50 56 59 57 58 59 54 55 58 65 69 68 66 62 60 68 71 71 70 73 79 86 91 90 88 88
66 76 77 88 69 69 53 37 29 36 58 36 44 52 55 44 70 60 59 54 60 64 67 68 62 61 58 61 62 64 74 74 79 79 76 71 82 90 88 92 89 88 87 71
84 88 84 96 79 66 45 36 27 42 48 47 48 50 51 52 60 63 61 64 69 74 72 72 75 80 77 73 70 82 83 86 81 73 76 82 86 93 95 93 94 92 74 66
75 89 95 92 77 58 43 37 35 46 50 52 51 51 65 72 65 62 63 71 74 77 76 76 81 81 78 78 73 82 82 76 76 82 90 96 96 95 99 97 90 69 68 71
56 68 77 70 68 49 43 32 37 53 51 48 54 66 64 59 58 62 76 76 78 81 80 80 82 80 77 74 74 85 90 86 89 92 92 94 94 93 85 81 76 76 74 72
57 64 68 62 51 51 48 60 55 47 56 65 66 71 53 57 64 73 77 80 80 78 76 75 77 81 82 77 75 75 72 66 64 65 66 65 65 65 64 67 72 78 77 74
68 65 67 70 73 69 71 72 71 72 69 66 60 56 61 69 74 75 78 80 83 80 76 76 77 75 73 68 70 70 70 68 68 69 70 71 72 73 71 67 65 66 66 71
65 62 74 76 67 60 75 73 70 71 73 69 70 75 70 70 77 80 87 87 86 84 78 75 74 73 74 76 78 78 77 77 81 85 87 88 88 86 86 87 86 79 78 78

GFSCGP_925_rhum_024.txt.gz
RH
28 33 38 29 31 26 28 25 24 24 22 33 42 60 66 76 72 78 84 92 94 90 77 76 76 73 81 84 79 75 77 75 79 80 86 90 86 86 83 82 76 67 57 50
34 38 29 27 29 29 28 26 28 26 20 23 43 55 61 68 68 67 72 83 85 86 83 80 79 80 83 80 77 73 75 76 79 76 77 82 76 70 64 62 56 55 54 51
37 26 24 27 27 28 27 26 27 29 24 32 42 52 60 52 52 60 64 66 71 78 84 80 83 83 82 81 78 73 71 73 76 73 72 68 66 59 57 54 51 56 54 50
32 27 26 24 27 27 25 26 26 30 27 36 29 38 44 57 60 55 58 66 65 66 71 74 80 80 82 82 79 77 71 73 73 68 65 60 56 58 53 50 49 50 51 46
26 27 28 27 24 23 25 27 30 29 35 36 35 39 36 51 57 54 51 53 60 59 64 70 76 74 77 76 79 77 74 75 73 69 64 59 51 51 51 53 52 50 42 35
27 23 28 27 24 24 24 24 35 44 45 53 36 40 43 52 45 44 46 48 48 59 64 63 68 71 77 74 74 79 78 76 77 71 67 58 52 52 53 56 52 41 37 32
27 24 26 27 25 28 32 36 47 45 61 57 46 47 41 29 36 41 45 45 44 46 65 67 78 76 77 74 73 77 80 82 81 75 73 66 55 52 50 55 52 38 35 33
38 37 27 26 26 29 34 38 57 45 63 43 49 48 32 29 30 32 35 37 42 50 57 60 64 72 74 78 79 82 85 85 81 82 80 72 62 55 56 55 52 43 34 31
41 34 32 33 33 28 32 36 35 68 77 71 52 43 27 25 33 42 42 42 45 65 66 63 60 69 75 79 80 78 84 84 81 83 86 78 72 64 60 60 54 39 32 30
34 33 38 35 33 31 29 37 42 57 50 55 50 44 36 27 31 42 47 48 51 63 74 73 74 73 75 77 79 83 82 78 72 82 86 79 79 76 68 64 52 34 31 34
40 32 33 40 38 34 36 37 45 47 61 58 66 47 37 29 29 28 33 46 49 60 82 84 81 75 74 76 76 75 80 83 81 80 82 84 81 78 76 66 42 31 32 30
41 45 54 36 31 32 30 35 42 63 44 78 78 54 28 30 29 27 29 33 45 52 77 86 87 83 81 79 86 81 81 79 78 76 79 80 77 76 65 47 36 33 33 30
45 44 57 40 32 36 35 37 43 53 64 66 70 53 27 31 30 28 24 30 44 52 63 84 87 90 88 84 81 80 78 75 73 75 78 78 70 62 51 42 36 35 32 36
39 49 39 38 33 40 40 39 45 46 70 60 67 41 29 27 32 30 26 27 35 56 66 82 86 85 79 74 74 74 76 76 75 75 72 74 70 58 45 42 40 35 36 37
39 40 42 37 36 41 39 34 47 44 44 49 41 46 35 34 30 29 29 36 57 61 62 66 74 82 77 75 71 69 70 73 73 73 73 73 69 60 52 44 41 39 40 41
49 46 40 45 46 42 41 39 43 41 39 41 40 40 35 31 36 41 37 47 55 59 61 62 61 58 60 67 72 71 68 68 70 71 71 67 63 59 56 50 48 44 45 47
51 67 62 50 54 45 62 50 44 43 40 39 46 38 38 40 46 48 52 52 54 56 58 58 60 62 62 66 63 66 75 75 74 75 75 73 69 66 59 53 51 51 56 66
65 62 70 75 65 64 41 38 36 41 38 37 36 38 44 50 51 53 51 56 61 59 61 63 63 64 69 70 71 72 73 75 75 70 69 70 69 66 64 60 64 80 87 86
61 74 78 70 74 51 39 39 42 42 38 41 43 56 58 61 57 63 62 63 65 68 69 68 68 67 67 69 70 70 72 73 72 78 77 76 72 71 70 84 92 96 98 98
66 74 71 80 70 68 52 37 33 33 49 44 56 63 64 55 67 65 61 66 73 74 78 79 75 74 73 75 71 72 80 80 83 83 83 83 83 91 94 98 97 93 95 92
86 90 80 95 79 72 51 34 32 44 48 49 55 61 61 48 53 69 73 77 78 80 80 79 80 84 83 79 76 86 88 92 91 86 86 89 91 89 84 87 94 96 96 96
78 90 88 88 80 75 43 39 43 47 50 54 55 58 58 75 71 73 76 79 79 81 83 82 86 86 83 81 80 91 92 88 88 87 88 91 95 96 99 99 99 92 82 76
63 69 77 70 72 52 47 39 38 49 54 53 56 63 70 68 69 76 81 83 83 84 85 84 87 87 82 81 84 92 93 90 88 81 78 77 77 77 76 74 70 70 71 77
60 60 63 60 53 57 49 52 50 46 49 58 62 66 61 66 74 82 82 81 82 83 84 83 83 85 82 73 71 72 68 64 63 70 74 76 77 77 78 79 78 78 75 76
69 66 73 66 71 67 64 67 63 71 72 69 65 60 64 71 80 80 82 83 84 85 82 76 81 83 83 79 82 80 78 74 78 82 85 84 80 78 74 72 73 75 76 85
72 67 76 72 63 54 52 75 73 74 74 71 70 76 74 72 77 80 87 85 88 86 80 81 82 88 98 93 90 82 79 75 72 69 69 65 58 56 59 73 65 53 60 72

GFSCGP_925_rhum_027.txt.gz
RH
29 30 32 27 30 25 28 26 25 23 22 34 39 47 67 78 79 81 81 81 71 62 57 70 74 77 76 80 84 84 83 79 87 82 73 79 82 90 89 87 80 74 69 58
31 35 28 28 29 29 29 27 26 25 22 28 33 42 55 72 72 67 70 76 73 63 64 71 74 78 82 79 85 88 85 79 83 78 72 82 81 90 94 88 83 80 68 55
35 26 28 28 29 30 29 29 30 28 26 32 36 34 55 54 64 60 60 61 64 67 70 70 75 77 78 82 87 86 84 76 76 74 76 83 89 87 81 75 70 68 60 54
31 27 28 30 29 28 29 25 28 29 27 28 27 26 35 54 54 53 52 54 57 61 64 62 70 74 78 81 87 86 87 77 80 77 81 80 83 77 70 66 62 61 57 53
27 30 31 30 27 28 26 30 29 30 31 36 36 30 24 46 54 49 48 48 49 53 57 61 64 66 72 77 85 86 87 81 81 80 80 78 77 74 62 60 55 58 56 52
26 25 27 26 25 25 29 30 33 39 40 41 36 32 28 33 39 37 39 44 45 48 54 54 60 66 69 79 84 85 89 86 87 77 76 74 70 66 61 57 55 53 50 43
28 26 26 28 27 29 29 34 39 39 47 44 43 41 30 24 26 32 37 40 41 42 46 52 57 64 68 79 85 88 90 86 90 79 78 75 68 63 56 52 52 52 49 44
33 34 28 30 27 28 33 32 46 44 51 36 46 44 22 24 27 28 29 31 36 42 43 47 49 57 65 76 78 84 86 85 92 86 80 76 71 67 62 59 58 55 52 49
42 33 28 33 33 26 34 36 34 56 70 58 40 34 25 21 24 34 36 37 38 36 42 47 47 53 63 72 76 79 83 84 91 88 82 80 77 76 76 70 64 59 58 52
34 32 39 36 32 34 30 33 42 49 51 51 41 42 29 24 22 26 32 35 36 44 45 52 52 53 63 70 73 83 82 81 85 90 90 85 86 85 88 78 67 65 62 49
35 32 35 38 37 34 37 38 43 41 47 45 45 34 30 27 25 27 26 31 40 40 49 50 53 58 62 70 76 82 82 81 84 95 85 88 90 94 92 84 79 72 65 52
37 44 49 37 32 31 32 36 40 53 44 56 56 41 25 28 28 29 25 27 34 40 41 55 60 67 72 74 77 81 86 88 92 85 85 93 96 98 94 90 84 78 78 59
42 42 45 35 31 36 36 36 39 48 55 57 62 39 26 27 28 28 27 24 27 38 42 56 68 74 77 82 87 86 87 83 86 87 89 93 99 99 96 93 86 82 65 48
37 46 40 38 34 34 44 41 41 42 55 52 50 36 26 25 25 23 28 28 27 44 53 60 70 74 76 78 79 82 85 80 80 80 86 92 92 92 89 84 78 71 57 42
40 41 43 34 30 36 34 36 43 38 40 46 37 40 29 28 27 27 30 43 52 57 57 60 65 70 73 76 78 78 78 78 78 82 84 86 88 86 80 71 62 54 45 41
50 46 42 39 44 42 42 38 39 39 41 40 37 38 30 30 31 34 42 49 51 51 52 55 57 58 61 63 72 75 74 74 77 82 83 83 84 78 73 62 55 54 47 45
54 64 56 47 54 46 60 51 43 42 39 38 44 35 33 34 40 40 49 47 49 50 51 54 59 68 77 78 77 77 79 78 80 83 83 81 77 73 67 62 59 56 56 55
62 60 63 67 62 67 37 39 36 38 38 36 36 34 33 38 48 48 45 48 52 52 54 57 59 65 71 74 77 78 80 81 80 81 81 79 77 75 71 70 68 64 73 82
57 68 73 74 62 48 37 40 40 40 29 34 34 38 44 53 50 55 55 55 57 59 62 68 70 73 75 75 77 77 78 79 80 81 80 80 80 82 86 91 89 85 93 98
64 64 62 72 63 60 46 35 36 31 42 35 38 49 53 53 55 50 58 61 65 69 70 72 76 76 76 78 77 76 79 81 85 87 88 88 89 91 98 99 97 95 92 91
75 76 69 75 72 61 44 36 33 47 39 42 43 50 53 46 47 56 63 68 69 71 75 79 78 78 81 81 80 82 86 91 92 92 91 91 92 94 96 94 95 97 99 99
74 76 83 78 80 63 44 37 45 43 44 48 50 52 56 65 67 65 67 68 70 72 75 76 79 83 85 82 82 87 97 99 99 100 100 98 96 96 93 90 84 83 84 85
72 65 69 63 63 54 44 41 40 43 43 52 52 53 60 65 65 67 70 69 70 72 76 78 81 86 87 86 85 87 89 80 72 70 76 74 68 68 69 79 82 81 84 87
64 60 61 58 51 51 50 47 48 46 48 48 47 52 54 60 67 71 70 70 71 75 78 78 76 76 82 84 85 83 78 71 73 86 88 83 82 80 77 76 76 74 76 79
65 58 64 61 53 66 58 57 51 58 63 60 56 56 57 65 68 67 70 71 75 77 76 74 77 86 95 93 94 87 80 74 79 80 76 73 71 63 62 61 68 69 71 81
66 62 66 62 44 48 46 54 63 64 61 58 61 65 62 63 67 65 70 76 75 78 78 84 94 97 95 88 87 82 68 61 66 68 66 74 74 73 68 65 60 74 77 78

GFSCGP_925_rhum_030.txt.gz
RH
25 24 20 14 15 18 20 18 17 16 20 25 24 23 36 48 55 57 48 42 40 40 40 49 54 59 61 62 63 65 68 73 78 71 62 58 68 75 84 84 81 78 68 68
25 25 15 17 18 20 22 19 19 17 18 21 19 21 29 42 49 47 46 49 43 38 38 44 49 52 56 60 65 65 66 70 72 64 55 56 62 68 82 89 86 81 74 68
23 18 20 20 22 23 22 19 21 20 20 19 20 20 29 34 42 44 44 40 40 35 37 40 47 50 54 54 59 59 62 65 69 62 57 69 74 82 88 89 89 85 78 69
22 18 21 20 20 20 23 18 20 22 22 21 21 20 22 25 38 45 43 44 40 36 33 35 45 50 52 54 55 58 57 60 66 68 60 68 63 66 76 90 84 75 78 71
21 20 22 22 18 18 19 20 21 21 21 24 24 19 19 28 30 28 32 36 37 34 32 35 35 42 51 53 56 62 62 63 65 71 67 67 66 62 67 80 68 72 75 70
16 17 18 16 19 19 21 23 24 24 24 30 23 21 16 17 17 16 20 25 30 31 32 31 34 39 42 51 56 60 65 63 64 69 76 68 65 66 75 69 70 72 74 66
19 19 17 20 20 22 21 22 28 30 33 32 29 30 18 14 14 17 18 17 23 27 30 33 34 36 41 46 55 60 64 60 64 68 74 76 75 74 78 75 74 70 66 63
23 25 19 19 19 21 23 19 28 39 36 25 32 28 18 14 17 17 19 20 20 24 28 30 32 34 38 46 53 61 62 62 62 69 75 76 80 83 83 81 73 68 67 64
24 21 19 22 21 20 26 26 19 32 46 33 23 21 16 14 13 20 21 22 22 22 21 25 27 33 39 45 53 61 61 64 63 68 76 78 83 84 86 87 74 71 71 69
21 24 21 27 26 25 24 21 30 30 41 38 25 24 18 15 14 15 14 17 18 24 27 26 28 30 35 42 49 59 62 64 63 69 77 79 83 84 94 93 84 79 73 75
16 20 32 32 30 22 29 27 27 26 30 31 31 23 15 15 14 15 15 18 20 22 25 32 33 34 36 42 49 57 65 67 65 64 74 80 86 94 98 98 98 92 83 76
19 22 27 22 24 24 20 20 25 33 32 36 42 27 14 15 15 18 17 17 20 25 26 34 36 41 43 47 50 53 57 58 59 64 71 78 98 100 99 98 98 94 86 83
24 27 32 24 27 28 26 25 23 28 33 30 48 26 18 17 18 16 19 17 18 21 26 34 43 44 46 51 55 57 64 62 63 72 78 84 90 97 98 99 99 96 93 84
28 21 25 30 21 18 29 24 25 26 34 28 28 20 16 16 16 15 17 19 18 27 33 33 42 48 52 56 61 63 68 71 72 74 76 78 86 87 90 94 96 93 93 91
26 25 23 18 16 16 18 18 21 24 23 26 22 21 19 16 16 17 21 26 31 37 41 44 44 49 54 60 63 64 72 75 74 71 70 74 81 83 82 82 81 80 82 78
30 27 28 29 20 22 23 18 17 19 18 18 22 22 17 16 19 22 25 31 36 42 44 44 43 42 45 49 52 62 66 70 69 69 69 72 77 74 74 74 76 80 75 71
38 34 36 33 35 34 47 32 22 21 19 22 26 22 16 20 22 23 30 33 37 38 39 42 45 48 50 55 56 58 64 67 68 69 70 72 72 72 75 73 71 72 63 60
47 43 44 41 66 79 24 26 21 22 19 21 22 20 19 19 23 29 30 34 37 38 41 43 45 49 52 54 58 58 60 63 64 66 68 70 71 70 70 71 75 65 63 64
42 43 50 72 47 29 28 29 29 30 25 19 22 19 20 29 36 42 35 34 38 42 44 47 51 53 54 55 57 58 59 61 62 64 65 67 68 69 70 73 79 86 80 85
50 50 52 60 50 63 27 20 22 24 31 17 19 21 26 35 42 29 43 44 46 46 48 51 54 55 56 58 58 59 62 66 69 70 71 71 73 74 78 81 86 88 88 92
65 61 68 56 57 35 26 24 24 37 32 22 20 22 30 38 28 38 44 48 47 50 53 55 55 57 59 61 62 63 67 69 71 72 74 76 77 84 88 93 97 96 95 91
57 63 73 54 75 64 29 29 31 26 31 27 30 27 34 39 46 47 48 49 50 52 55 56 58 60 60 60 62 66 71 74 76 78 82 84 86 80 75 69 62 58 58 62
62 47 48 43 38 31 30 24 25 28 25 32 30 30 36 46 48 48 49 49 48 51 53 57 62 65 66 66 68 69 70 68 66 61 60 60 61 61 62 62 62 58 60 64
50 47 51 49 29 34 34 26 30 28 28 27 29 33 42 45 47 48 49 50 48 50 52 57 59 61 63 62 62 62 60 59 60 61 61 61 60 56 54 49 46 45 51 54
40 49 41 43 34 42 38 32 28 31 34 34 31 36 38 43 46 47 49 50 48 51 56 56 60 63 64 64 66 65 61 57 58 57 56 56 52 42 40 40 50 51 61 70
43 42 54 49 29 32 23 28 32 35 39 36 37 40 39 41 46 46 49 51 53 56 56 61 64 64 64 64 63 62 60 57 53 47 48 57 52 49 40 40 42 60 58 55

GFSCGP_925_rhum_033.txt.gz
RH
20 22 21 15 12 11 16 15 15 18 22 17 20 28 24 33 34 38 31 36 30 29 31 45 46 46 51 56 58 57 59 60 66 73 59 46 45 51 61 76 74 68 63 68
21 24 16 12 11 13 15 15 14 15 14 15 15 18 28 28 32 32 31 34 32 28 28 36 46 45 47 51 54 54 54 57 58 54 48 42 42 45 54 74 70 68 71 65
21 16 13 14 14 16 15 16 18 16 16 13 14 16 16 18 25 29 28 26 26 28 28 32 37 43 47 48 48 50 52 53 55 50 47 42 41 47 51 65 74 76 75 70
18 15 16 15 15 14 17 13 17 16 17 21 15 26 18 16 22 28 29 27 25 25 25 27 32 37 42 44 49 50 48 48 50 50 44 41 46 46 52 60 67 74 82 77
20 18 18 18 15 14 16 17 16 17 18 18 16 17 21 12 19 21 24 27 26 24 23 25 29 33 36 40 44 49 47 47 48 53 51 45 50 51 51 58 72 82 72 76
17 12 13 14 13 14 14 18 18 18 20 29 20 17 25 14 13 14 16 20 24 23 23 21 23 29 34 37 42 46 46 44 46 50 56 54 53 55 48 58 68 69 70 74
19 16 13 13 17 16 17 20 28 32 32 32 18 19 16 19 11 12 12 14 18 22 22 20 21 24 28 35 42 45 47 46 46 49 54 60 59 57 57 57 69 65 70 75
23 25 16 15 16 18 19 18 27 58 58 33 22 23 15 11 11 11 10 10 11 16 20 21 20 21 24 29 38 46 46 47 46 52 54 58 66 65 66 69 72 75 76 72
21 19 12 13 14 14 19 23 15 22 26 33 25 16 12 12 10 11 12 14 14 14 17 20 20 22 24 26 33 43 46 46 48 48 56 62 69 74 72 80 80 86 77 79
16 21 14 15 15 16 19 17 26 25 51 45 22 19 18 14 11 11 10 13 13 16 19 18 18 21 23 26 30 40 46 46 46 51 59 67 69 73 77 82 94 90 87 87
17 19 18 20 22 19 22 24 23 21 24 39 34 23 14 13 12 12 12 11 12 15 19 24 22 22 23 27 32 38 46 50 48 53 58 67 72 74 80 91 96 96 93 84
18 19 27 23 16 13 16 20 21 34 34 33 35 28 12 12 12 13 12 12 13 16 17 23 27 28 28 30 33 37 45 50 50 55 58 67 77 82 89 97 99 98 94 90
19 23 34 25 18 18 21 22 23 24 24 44 59 28 12 13 13 12 13 12 14 15 16 23 30 33 34 37 39 41 47 49 50 52 54 64 93 95 95 96 100 98 97 91
28 21 25 33 22 18 23 19 18 22 40 34 31 21 16 14 14 12 12 13 14 14 17 19 29 34 36 41 46 48 53 52 53 57 62 65 77 89 92 93 98 99 97 93
24 32 26 20 16 14 15 17 18 21 22 31 25 20 14 13 13 12 16 16 16 18 24 26 29 36 43 49 51 53 63 64 63 62 64 70 77 77 78 84 88 92 94 92
26 32 25 22 16 14 16 14 14 16 17 18 18 18 12 11 12 13 14 18 20 25 29 34 37 41 46 49 52 59 62 62 61 59 60 66 68 68 71 72 73 78 80 79
30 38 37 38 20 19 32 20 17 15 13 15 21 16 12 12 14 15 15 20 24 29 34 36 36 38 41 44 47 52 55 56 56 58 61 64 64 68 70 68 68 66 68 72
39 39 42 43 59 59 26 17 16 18 15 14 13 12 12 14 14 15 16 21 28 31 35 37 37 40 42 44 47 48 50 53 54 57 61 63 64 64 64 63 66 71 73 72
42 47 52 59 47 28 20 19 21 20 19 14 15 13 14 14 20 25 22 24 29 32 33 35 38 40 42 43 44 46 48 50 53 55 57 59 61 62 64 66 71 72 72 72
38 51 58 52 52 54 28 18 15 15 29 14 14 15 16 19 38 21 27 29 32 34 37 40 42 43 44 45 46 48 50 53 56 59 60 61 62 64 70 80 80 86 85 90
69 70 76 63 51 34 19 15 15 36 29 15 15 16 16 19 24 26 31 36 35 36 39 42 42 43 45 48 50 51 54 56 58 60 61 67 73 79 83 85 88 88 87 87
67 65 72 58 60 65 18 21 26 22 18 20 20 17 18 20 32 35 37 37 36 37 43 43 45 47 48 49 51 53 56 61 66 69 71 74 74 70 68 59 53 47 51 55
60 55 48 38 38 29 24 22 20 16 19 22 20 17 20 35 36 38 38 37 38 40 41 44 47 50 51 52 53 54 59 60 60 56 52 49 47 46 47 48 47 43 48 52
44 32 45 41 32 26 24 22 18 19 22 20 21 19 24 36 36 37 37 38 38 38 41 45 51 52 54 53 53 56 55 54 52 51 49 48 44 42 41 36 34 36 49 49
37 41 42 36 28 27 28 26 23 22 24 23 22 22 26 33 36 36 38 38 36 38 43 48 48 50 52 52 52 51 50 47 47 47 46 46 43 36 34 40 44 47 70 59
32 36 51 49 29 35 28 23 22 25 26 28 25 27 30 31 34 35 37 38 38 41 46 46 51 52 53 53 50 48 47 46 44 44 46 50 46 39 33 34 61 54 51 49

GFSCGP_925_rhum_036.txt.gz
RH
17 21 22 17 15 13 12 17 21 17 18 19 22 55 73 70 30 31 29 30 30 33 47 52 55 67 68 64 62 60 60 63 62 64 66 68 51 53 54 55 66 70 67 69
20 25 18 15 14 13 12 14 16 15 17 16 13 34 61 70 35 27 29 35 30 30 41 47 52 56 69 68 68 74 75 70 66 72 75 65 53 49 52 59 68 66 78 66
24 20 16 16 15 14 13 15 14 16 19 15 14 14 42 39 26 27 26 32 30 28 39 44 48 52 56 66 66 65 69 73 72 73 62 62 47 46 48 62 60 66 72 67
19 16 16 16 16 13 16 11 15 19 18 19 17 27 22 23 23 27 26 28 29 29 28 38 43 48 52 56 59 56 54 56 58 57 54 51 45 44 48 65 70 66 68 74
22 19 18 19 14 12 15 15 17 17 17 20 20 23 15 16 18 23 27 27 26 26 28 31 37 42 47 50 55 54 51 53 54 56 56 50 44 42 43 51 60 68 76 78
17 13 14 16 13 12 12 17 19 19 19 32 26 20 18 17 16 17 20 25 25 25 26 27 30 34 41 46 50 53 50 50 49 51 51 52 49 46 50 53 58 68 68 71
18 16 14 13 15 13 14 19 30 32 32 40 22 21 20 18 22 28 24 27 43 25 26 27 28 31 34 40 47 51 53 51 49 49 53 52 53 50 52 53 60 74 78 77
25 27 17 13 15 16 18 19 34 45 55 43 46 32 16 15 15 12 12 27 30 25 26 26 24 29 32 36 43 47 49 50 47 48 51 57 54 56 62 58 60 68 76 74
26 23 14 14 13 15 19 24 17 26 41 62 75 32 13 13 13 10 10 12 14 14 24 24 23 22 29 35 40 46 46 47 46 46 49 51 60 62 64 62 68 77 77 73
20 26 16 14 13 15 17 14 33 28 44 55 32 27 21 20 13 11 11 13 14 16 16 20 23 23 24 28 38 45 47 45 46 46 50 55 59 63 64 68 73 88 86 78
18 24 23 18 18 18 18 22 26 30 28 53 47 32 22 23 13 13 13 13 13 16 22 22 22 20 21 24 27 42 47 46 45 46 50 58 60 63 65 80 86 94 91 89
18 24 33 23 15 14 16 20 21 37 36 36 56 35 17 21 16 15 13 12 14 15 19 23 26 24 24 24 26 39 44 45 46 47 59 60 62 72 77 84 88 89 93 92
20 25 39 30 22 18 20 17 21 26 31 42 67 40 18 15 14 13 14 14 15 17 16 24 29 31 29 29 30 32 39 44 47 48 56 58 72 84 90 94 96 96 96 95
34 25 29 42 28 24 25 19 17 28 45 44 45 33 29 21 22 17 15 15 14 17 16 19 29 34 34 36 38 40 45 47 49 50 62 82 95 95 90 94 99 99 100 99
33 34 28 24 19 19 19 19 18 20 36 42 39 36 26 20 22 23 18 18 14 15 17 20 30 36 39 44 46 50 54 59 61 63 72 83 83 84 89 94 94 90 91 93
30 36 33 37 24 19 22 18 16 17 17 17 19 20 15 15 19 24 24 16 18 18 20 23 26 38 43 48 52 61 64 63 63 63 70 72 73 74 81 90 95 93 91 91
37 40 40 46 30 27 35 24 17 16 15 17 23 19 14 14 13 13 17 15 17 22 27 32 38 45 48 53 59 61 61 59 59 62 66 66 66 71 73 73 74 75 77 77
55 41 40 55 61 56 25 16 14 16 15 15 14 13 12 12 12 14 15 18 22 28 33 38 40 42 46 49 51 54 54 57 58 59 62 64 67 66 64 64 68 72 73 74
49 56 58 62 54 33 21 20 21 23 22 16 17 14 12 11 12 22 18 17 28 33 37 38 40 42 44 47 47 48 49 52 55 57 59 61 63 64 66 69 70 72 73 72
55 59 70 63 61 62 36 24 17 16 33 17 15 17 16 16 40 26 25 29 32 34 34 36 39 41 42 43 44 46 48 50 53 56 59 60 62 66 73 78 78 74 74 76
76 83 80 72 65 47 27 20 17 37 36 20 20 19 20 25 26 25 29 33 31 32 35 38 39 41 43 44 46 49 52 55 57 58 59 63 74 82 80 81 83 84 86 85
80 98 82 76 70 68 26 22 30 29 29 23 23 22 20 20 34 33 33 34 34 35 37 39 41 43 45 47 49 52 54 56 61 69 72 76 77 77 80 79 74 67 62 64
70 72 82 73 59 39 31 30 27 26 27 26 24 23 21 35 35 35 37 37 35 35 38 39 44 46 47 48 50 53 59 64 66 69 68 63 55 50 48 48 45 47 57 55
49 41 60 60 48 51 36 32 24 21 26 21 20 23 22 36 36 38 38 36 37 36 38 41 46 48 49 49 51 57 59 60 56 51 49 47 44 41 39 36 37 51 54 50
38 64 50 51 44 46 32 30 31 28 27 24 23 23 24 34 36 37 38 38 37 37 39 43 48 50 51 51 55 54 53 51 51 49 46 46 39 35 39 43 50 58 42 47
29 31 48 54 37 47 41 32 38 37 34 27 28 28 26 33 36 36 38 38 37 38 42 47 50 51 51 52 50 49 47 48 46 47 51 46 37 33 37 50 48 48 49 49

GFSCGP_925_rhum_039.txt.gz
RH
25 32 36 29 25 22 20 20 21 23 23 33 49 64 46 41 66 58 51 53 64 59 75 76 83 84 82 86 90 89 89 82 80 70 70 68 71 64 51 52 58 60 62 61
29 34 26 21 20 21 21 22 19 17 21 24 49 58 47 52 60 47 43 50 58 57 64 70 74 78 75 70 71 78 74 70 73 64 59 57 54 57 48 48 50 58 64 63
32 28 21 22 23 23 21 21 18 20 21 19 24 71 70 57 53 47 38 36 48 60 65 64 73 75 69 65 60 58 60 65 60 59 53 50 62 67 51 52 50 58 66 68
30 23 23 23 25 20 23 15 17 19 23 34 20 39 70 58 49 47 39 39 44 60 57 58 67 74 69 68 66 65 65 74 68 61 69 75 77 66 54 52 53 61 63 60
31 27 27 26 22 18 21 19 21 22 29 26 26 34 30 46 51 43 43 41 43 48 56 54 58 68 71 67 70 74 73 72 68 68 72 76 70 64 55 49 49 56 61 64
26 20 20 21 19 18 16 21 21 24 30 48 31 33 40 47 42 37 39 39 39 39 45 51 51 56 65 70 68 70 71 73 68 69 70 72 66 60 48 45 62 60 62 69
27 24 19 17 23 19 20 24 42 45 52 56 42 42 38 26 27 24 33 33 36 35 37 46 48 50 55 61 67 66 64 62 64 65 67 68 61 58 46 42 46 64 70 67
37 39 22 18 21 24 23 26 55 48 68 52 46 45 36 28 30 22 27 28 30 36 33 36 43 46 49 54 58 62 62 59 58 60 62 60 62 58 50 47 52 58 60 72
37 32 18 16 16 17 22 30 24 38 55 64 67 46 36 26 24 24 24 31 34 36 38 33 35 39 42 48 52 57 59 58 55 58 58 61 58 58 58 51 55 53 60 66
28 37 23 19 16 18 20 20 34 44 68 68 60 56 44 28 23 18 18 28 30 32 34 33 33 34 36 40 46 52 53 56 55 54 54 56 58 57 55 62 58 56 60 72
23 30 33 24 23 22 25 26 30 38 53 65 63 50 34 33 25 19 15 19 22 26 31 34 41 31 33 34 39 47 52 55 58 56 55 56 57 58 59 62 71 74 81 92
23 33 38 30 24 18 21 24 28 65 53 54 68 47 26 25 26 18 17 17 22 29 30 29 32 29 30 33 37 42 53 67 44 40 62 56 75 86 94 91 86 87 97 94
26 31 40 35 24 22 23 23 24 31 50 53 66 56 31 26 26 17 16 16 21 23 30 36 35 34 33 34 39 44 59 66 64 65 63 74 80 68 82 88 89 100 94 92
55 28 33 41 32 30 32 30 25 28 59 53 62 44 34 31 27 24 24 23 23 21 26 39 42 41 37 39 47 56 59 68 74 73 82 94 85 91 100 100 99 99 98 96
62 47 29 24 26 27 28 29 30 28 32 44 46 44 36 32 25 22 27 20 20 22 21 37 46 49 52 54 59 64 62 68 75 78 85 95 96 96 99 100 100 100 100 100
64 60 42 42 25 25 29 30 29 25 26 33 33 35 28 24 25 42 26 26 23 22 25 27 47 54 58 60 67 67 65 74 76 87 88 85 85 91 95 94 93 88 87 89
88 78 50 48 37 34 48 35 27 27 24 23 41 34 23 24 26 26 26 24 24 24 30 36 53 58 62 69 68 68 66 70 74 79 82 88 90 92 94 96 92 88 86 87
92 95 75 71 60 68 35 25 25 27 23 20 18 18 20 18 19 20 20 25 27 37 44 58 65 68 69 68 65 64 62 65 68 69 72 74 75 76 77 80 83 82 81 76
81 98 97 76 58 52 45 27 27 28 27 21 20 18 18 18 15 24 26 30 41 47 56 58 56 58 60 61 59 60 62 63 66 69 70 70 68 68 68 70 71 72 70 72
88 92 100 96 69 72 47 33 22 21 40 20 23 25 25 24 36 39 32 43 51 51 48 52 51 53 54 55 56 57 60 62 66 66 66 65 65 68 69 71 71 72 75 76
98 99 98 95 95 70 37 26 22 40 43 27 24 25 26 30 40 37 48 47 47 46 48 47 49 52 50 49 51 55 57 61 61 63 65 68 71 75 77 77 77 77 75 72
88 95 98 99 92 82 54 34 35 38 32 29 27 22 27 40 42 44 44 45 45 49 49 48 51 51 47 48 50 59 61 61 63 70 74 76 76 77 77 80 78 78 76 75
91 75 90 87 89 64 47 54 58 50 44 38 24 23 32 47 44 47 46 47 47 48 48 49 52 53 50 51 54 62 70 67 72 76 78 78 78 79 74 74 80 83 79 72
51 59 73 59 52 56 48 53 52 66 56 45 30 29 43 47 49 50 49 49 48 49 50 52 55 58 58 54 58 64 67 69 72 74 72 72 67 63 52 56 57 54 54 50
65 62 66 68 53 51 45 56 64 66 59 53 46 39 35 52 48 46 49 50 48 48 51 54 57 60 61 60 63 65 67 67 59 53 47 43 41 40 45 53 54 53 56 51
49 65 79 86 58 60 48 55 57 52 71 58 50 50 40 45 50 48 52 51 49 56 56 60 61 62 63 59 58 56 55 52 50 49 43 40 40 41 44 51 49 44 38 32

GFSCGP_925_rhum_045.txt.gz
RH
29 36 42 36 32 28 28 30 33 30 24 33 46 48 52 78 85 85 89 86 93 95 93 93 84 94 100 100 100 100 100 96 95 90 77 76 77 60 57 55 58 61 63 65
34 38 33 31 31 32 33 35 36 30 25 32 40 51 53 75 81 78 74 81 75 90 98 97 97 94 100 100 98 97 98 97 88 74 71 76 68 57 50 44 36 46 49 52
44 33 30 32 34 36 36 38 35 32 26 36 46 44 59 52 66 76 73 65 65 77 95 96 95 97 99 100 99 96 94 95 89 84 84 78 75 62 49 45 44 46 43 43
40 30 30 35 33 34 40 31 30 34 30 39 34 49 34 57 62 65 66 70 66 71 82 89 94 98 100 97 95 93 91 90 88 84 80 78 71 65 60 49 42 39 41 42
48 37 36 35 32 31 36 30 34 35 34 34 32 39 32 59 62 60 59 63 62 68 74 85 87 92 94 94 93 94 92 86 79 79 79 77 73 68 58 54 52 51 45 43
38 28 30 32 28 29 27 30 30 34 41 52 35 38 42 53 46 43 46 50 55 64 71 71 76 83 90 90 91 89 92 92 86 82 77 76 74 70 68 63 61 58 49 46
36 38 32 27 32 28 31 33 49 48 57 56 36 53 46 31 39 42 43 46 51 61 69 72 75 80 84 86 85 85 86 87 84 83 80 76 71 68 65 66 64 63 57 57
40 47 35 33 35 36 37 37 58 53 67 44 49 56 40 33 29 31 39 36 47 56 64 70 71 73 77 80 77 77 76 77 77 78 77 76 75 69 66 64 70 66 60 58
48 43 26 27 27 31 37 41 33 42 61 66 54 46 35 34 31 33 37 46 50 54 63 65 66 70 73 72 71 69 67 67 68 70 73 70 70 70 68 68 70 72 65 68
36 45 33 27 25 27 28 28 38 54 54 69 56 57 45 28 25 26 33 36 46 45 55 60 62 64 71 70 66 66 62 61 60 62 64 75 75 70 67 71 77 78 76 72
33 37 37 30 34 33 32 36 36 38 57 46 48 51 48 32 32 29 29 32 45 48 48 51 58 58 64 69 67 66 65 62 62 63 67 70 73 74 76 76 77 81 81 78
63 51 54 38 26 25 27 32 37 44 48 69 68 38 29 36 36 37 35 29 27 43 44 43 46 53 57 62 68 71 69 67 67 71 73 74 74 74 76 73 80 84 83 81
54 78 79 51 35 31 34 30 30 45 54 44 59 40 32 29 32 30 28 26 22 32 38 43 47 49 52 56 60 66 73 73 71 73 77 81 82 82 79 72 90 90 92 97
72 79 85 94 90 75 66 48 31 35 55 49 46 37 33 34 35 32 28 28 24 24 37 42 41 46 44 49 54 57 64 70 73 76 78 81 84 83 82 84 93 96 98 100
70 76 91 86 63 55 58 57 48 38 34 42 38 45 34 34 34 33 33 28 27 26 32 41 48 49 51 50 50 49 51 59 68 74 79 80 83 86 89 97 90 100 100 100
77 73 86 86 54 55 58 52 50 42 34 42 36 41 34 32 33 32 34 32 28 27 27 31 44 50 56 56 56 58 53 50 57 70 79 84 90 93 94 98 100 100 100 100
88 92 91 84 75 62 56 62 48 38 30 36 42 35 28 35 37 35 31 34 31 28 28 28 42 44 52 61 57 62 63 62 64 76 84 84 82 90 99 100 100 100 100 100
96 92 97 97 81 72 33 47 35 44 33 28 30 30 31 32 30 33 32 31 33 31 30 30 28 55 56 68 74 78 86 87 88 96 100 100 100 100 100 100 100 100 100 100
78 91 94 94 95 64 43 40 46 73 72 43 31 28 25 23 24 26 29 35 32 31 29 28 28 48 76 75 83 88 98 100 100 100 100 100 100 100 100 100 100 100 100 96
82 82 86 98 94 82 26 40 45 61 80 49 59 43 31 27 37 32 25 29 36 38 38 58 70 79 86 87 85 93 98 100 100 100 100 100 100 99 100 100 97 92 88 89
99 99 93 94 94 84 59 54 60 93 79 70 67 69 58 41 27 27 28 32 41 51 71 77 82 84 84 84 85 92 94 96 96 98 99 100 100 100 98 94 91 88 86 88
90 96 96 87 99 91 52 77 76 81 68 71 67 67 72 65 54 42 41 50 65 71 81 80 85 85 83 82 83 88 90 89 89 90 91 92 94 96 93 89 86 84 89 99
85 75 88 82 79 59 67 64 64 63 71 69 72 63 69 66 51 50 57 62 67 73 79 77 80 80 78 78 79 86 92 84 83 83 84 83 81 82 81 82 89 94 98 100
65 64 75 77 52 52 49 54 58 58 69 61 59 67 68 62 58 54 62 68 73 72 74 73 75 78 80 74 76 83 86 83 83 90 94 93 90 93 91 92 94 96 100 100
59 63 66 63 57 57 49 54 56 60 60 62 61 61 64 67 61 57 63 67 69 69 69 70 76 81 88 82 86 86 85 82 90 90 92 91 91 91 92 91 92 92 97 97
92 88 94 85 85 90 68 53 58 61 53 54 65 55 55 56 59 60 74 71 71 78 75 80 84 86 88 86 88 89 86 80 83 86 86 83 79 77 75 71 71 68 78 86

GFSCGP_925_rhum_048.txt.gz
RH
40 43 44 39 34 28 29 31 33 30 26 25 30 37 30 90 99 97 94 94 96 98 91 86 85 98 100 100 100 100 100 100 93 93 93 80 77 75 54 55 68 54 51 53
38 43 36 32 33 32 31 32 36 31 27 29 34 40 48 76 90 90 89 91 89 95 98 94 83 97 100 99 100 100 99 99 100 95 95 84 78 75 65 72 78 63 65 64
43 35 32 33 37 37 38 40 37 34 34 31 43 43 49 50 73 83 82 74 78 82 98 92 87 90 99 100 100 99 98 96 98 93 93 80 71 70 65 64 59 63 62 58
46 35 36 36 36 35 43 36 34 35 37 45 36 55 36 38 56 73 73 82 74 72 85 96 88 87 93 98 97 97 98 94 87 88 83 77 74 70 66 60 53 51 51 49
50 43 42 39 37 33 36 34 37 36 43 37 37 44 36 58 45 53 60 68 74 70 75 93 96 93 96 100 100 94 96 97 93 86 79 75 74 70 63 63 52 46 44 44
39 33 35 34 32 32 30 33 37 40 48 60 44 43 42 42 40 35 42 54 60 71 72 80 87 96 100 100 100 100 96 94 93 87 78 70 74 72 70 66 59 48 43 42
37 41 33 28 34 33 32 40 53 51 64 66 41 48 38 29 33 36 32 42 53 63 70 80 91 94 99 100 99 100 99 97 93 90 86 83 81 78 75 71 67 64 54 44
45 46 42 35 37 40 42 43 62 58 69 46 51 56 42 35 30 31 35 40 44 62 65 74 82 84 91 95 95 96 98 96 93 91 87 83 82 79 74 69 69 63 61 56
47 42 27 31 34 34 42 46 35 46 57 69 53 44 35 32 35 35 34 34 47 60 70 71 74 79 84 88 89 89 90 91 89 88 88 86 83 80 78 75 71 67 67 68
38 43 33 27 29 29 32 33 47 58 54 64 56 56 44 31 33 30 29 32 44 56 65 70 72 73 78 81 80 82 79 77 81 82 81 82 82 81 79 76 72 68 64 64
34 42 41 30 34 35 36 40 38 45 60 58 58 51 47 32 30 28 29 30 36 55 57 65 69 68 71 74 77 78 77 76 75 77 78 78 80 77 75 73 70 65 57 52
60 55 57 41 31 28 29 32 42 59 50 72 72 45 27 39 34 39 37 34 33 45 52 56 63 65 69 73 74 75 76 71 69 69 72 74 72 79 80 78 67 46 72 82
60 76 84 52 37 60 59 44 52 47 54 56 70 51 30 35 35 32 33 30 30 28 42 56 62 67 67 70 73 72 71 71 68 68 70 73 74 76 80 81 67 72 71 68
64 79 70 90 81 77 79 63 55 61 65 54 48 42 33 31 36 31 32 33 29 27 30 48 58 58 60 63 68 72 73 71 70 70 73 75 78 78 76 75 72 70 78 81
64 70 82 77 73 68 60 56 54 55 63 64 52 44 36 34 31 31 31 32 29 27 27 40 48 53 54 59 63 66 69 75 76 75 75 77 80 83 80 77 79 86 92 93
73 71 86 89 72 67 62 55 52 52 54 57 50 45 34 31 33 36 35 35 34 30 28 29 42 50 54 53 58 62 64 68 76 80 80 79 82 86 89 89 90 94 99 99
83 86 88 77 72 64 73 58 50 48 41 48 58 50 34 32 34 37 34 36 36 34 30 29 34 42 50 53 51 56 58 61 68 77 81 82 85 89 92 95 97 99 100 100
84 86 96 96 81 82 42 47 44 47 49 54 52 46 45 38 27 30 35 34 36 35 33 32 31 38 38 41 50 53 60 60 62 74 82 85 89 97 99 99 100 100 100 100
80 93 97 97 96 69 47 39 39 55 30 46 40 52 66 52 35 29 30 33 35 35 38 34 28 26 30 44 54 66 82 82 81 88 93 95 100 100 100 100 100 100 100 100
87 78 85 93 97 86 41 48 58 56 60 67 74 77 74 72 69 35 26 27 31 35 39 41 36 38 46 59 66 84 100 99 100 99 100 100 100 99 100 100 100 100 100 100
98 99 95 81 95 79 62 54 59 67 57 67 62 70 75 81 65 52 52 49 31 31 33 51 68 73 70 78 84 96 100 99 100 100 100 100 100 100 100 100 100 100 100 100
89 96 91 85 97 87 53 70 64 58 64 62 61 69 74 71 69 66 61 56 52 58 69 79 85 92 94 93 93 99 100 100 100 100 100 100 100 100 100 100 100 100 100 100
87 78 88 82 76 59 64 69 65 64 68 64 68 62 58 66 69 66 64 71 78 83 90 89 93 95 93 94 94 98 100 99 100 100 100 100 100 100 100 98 100 100 99 100
74 65 81 76 57 59 54 54 52 61 67 63 57 54 57 67 70 72 70 74 78 80 86 84 85 89 93 90 91 97 95 94 96 100 99 98 97 99 98 98 100 100 100 100
66 69 72 66 54 69 51 63 79 70 64 62 61 55 61 63 66 76 75 76 78 82 82 83 89 94 99 100 100 98 94 89 93 93 93 93 92 92 95 98 100 100 100 99
88 90 88 82 97 94 91 81 77 78 83 78 67 65 71 73 71 70 86 87 83 86 87 88 88 89 90 93 96 95 91 86 89 93 93 93 92 91 93 96 100 100 100 100

GFSCGP_925_rhum_054.txt.gz
RH
30 30 27 17 17 16 15 17 15 11 13 17 17 16 14 16 25 33 34 38 42 41 43 52 64 79 84 91 100 100 100 99 98 100 100 100 100 85 70 65 84 87 65 66
37 37 21 19 18 18 17 18 16 13 16 17 13 15 13 16 22 27 31 35 39 40 45 50 62 70 87 82 96 100 100 99 99 100 100 100 100 90 84 77 85 85 76 66
31 22 22 25 24 24 20 20 19 18 18 17 18 18 15 14 22 27 30 30 33 39 43 49 56 63 74 77 89 100 100 100 100 99 100 100 100 97 90 81 78 80 80 64
25 17 27 28 25 21 24 18 20 20 22 17 17 23 14 15 14 20 23 34 34 36 39 42 51 59 63 67 78 94 100 100 100 100 100 100 97 96 90 81 72 69 77 73
31 26 25 27 24 18 22 18 23 21 23 20 19 23 15 13 17 13 12 19 30 33 38 42 47 52 59 63 73 80 97 100 100 100 100 96 93 89 86 81 79 78 78 73
24 22 22 21 20 20 19 23 24 25 23 33 20 20 16 13 16 13 11 13 20 30 35 39 45 50 55 60 67 77 86 95 100 100 99 93 89 79 77 84 82 87 78 80
29 26 28 26 21 23 22 26 32 34 34 33 19 24 19 16 14 13 13 11 20 26 34 39 43 48 52 59 66 71 80 87 98 100 98 93 88 80 73 74 70 70 77 73
26 36 30 28 26 28 28 25 28 35 36 26 28 32 21 15 15 15 12 14 17 26 34 35 39 45 50 58 64 72 71 71 83 96 96 85 82 79 73 67 64 59 58 60
26 25 24 27 27 23 28 35 23 28 37 37 27 24 19 15 15 15 15 15 15 19 28 32 34 43 49 56 64 74 68 64 67 80 87 87 80 77 71 63 62 59 53 53
28 33 25 27 26 26 28 22 38 34 41 41 26 27 24 19 16 14 13 15 13 13 18 24 32 39 48 53 60 76 72 61 61 67 72 75 78 78 74 70 68 64 63 63
27 34 36 29 33 31 33 33 29 26 29 36 34 27 19 20 23 25 18 14 15 17 18 25 31 37 45 50 56 68 71 62 59 64 68 71 74 74 76 75 73 71 68 68
28 36 39 29 28 24 24 27 28 35 37 35 42 29 19 23 21 20 20 18 17 17 18 20 31 37 43 48 53 57 64 61 60 60 67 72 73 73 74 75 74 75 74 72
49 36 35 32 30 30 34 35 33 36 38 39 51 33 19 19 20 19 19 18 17 16 16 18 26 35 40 45 49 51 59 60 58 61 64 71 76 76 77 78 77 75 75 74
53 45 39 30 30 33 50 42 37 39 47 38 36 31 27 23 21 19 19 19 17 17 17 16 18 28 35 40 46 49 53 58 58 60 63 66 71 75 77 76 75 75 73 73
50 60 42 38 37 35 37 38 35 38 38 44 33 31 25 21 18 20 22 22 20 18 18 18 18 18 24 35 43 47 49 54 59 58 60 62 68 69 69 70 71 72 74 73
46 42 42 40 32 41 44 34 31 30 29 30 29 30 20 17 16 18 18 20 22 21 19 18 17 18 20 27 37 42 47 51 57 59 58 58 63 67 68 67 67 70 72 72
50 57 47 38 46 39 39 36 31 28 24 23 25 19 16 19 21 23 22 26 32 30 26 22 21 20 22 25 37 40 43 48 55 58 57 56 59 63 65 67 67 67 69 71
51 65 64 50 66 55 22 29 29 30 24 20 20 20 27 30 33 34 33 34 40 42 43 39 32 27 21 21 25 30 33 43 51 56 55 56 58 60 61 64 66 66 68 71
47 56 69 67 53 34 31 21 23 27 19 26 29 29 28 30 33 29 34 35 41 45 44 40 37 34 31 25 23 32 31 35 44 51 53 53 56 60 62 65 68 72 76 86
50 51 61 70 56 56 30 36 35 33 33 32 34 36 36 36 43 34 35 38 43 41 43 43 46 44 35 26 25 28 35 36 38 45 48 53 59 61 63 69 80 100 100 99
76 69 74 63 72 47 31 26 33 54 52 39 36 35 36 44 42 41 42 41 41 45 47 51 56 55 45 38 38 35 36 38 41 46 56 59 63 70 90 100 100 100 100 100
69 68 70 57 72 77 32 37 45 58 44 41 38 38 42 43 44 45 48 48 48 49 50 55 62 65 66 70 62 49 47 82 92 96 99 99 100 100 100 99 100 100 100 100
66 44 48 44 46 40 40 46 43 51 55 54 57 52 50 47 48 55 57 57 54 51 56 66 76 82 92 89 78 72 96 100 100 100 100 100 100 100 100 100 100 100 100 100
39 37 52 48 37 36 32 40 56 56 59 55 52 55 58 62 56 55 56 64 63 66 62 75 86 92 95 97 98 100 100 100 100 100 100 100 100 100 100 100 100 100 100 100
35 38 47 42 34 31 34 55 62 61 58 57 53 53 60 60 57 62 62 69 72 87 86 80 84 87 93 99 100 100 100 100 100 100 100 100 100 100 100 100 100 100 100 99
34 39 50 47 58 63 57 54 64 64 65 60 60 58 56 59 60 62 68 74 86 93 98 93 93 95 94 96 99 100 100 99 99 98 99 100 100 100 100 100 100 100 99 99

GFSCGP_925_rhum_057.txt.gz
RH
16 22 24 23 20 17 16 16 15 13 10 12 13 12 12 11 11 14 21 21 25 28 28 34 47 50 60 74 97 99 98 99 99 100 100 100 100 100 89 80 71 67 62 60
24 25 16 14 15 15 16 17 17 13 11 14 12 10 10 10 11 12 17 20 23 27 29 34 46 54 60 70 91 100 99 98 99 99 97 97 98 100 92 85 81 64 65 64
28 18 19 18 18 17 18 19 18 17 12 14 13 12 11 10 10 11 14 15 17 24 28 35 42 53 61 67 83 100 100 99 98 98 98 97 96 97 97 88 81 80 82 66
40 16 21 22 21 20 24 16 16 16 17 21 12 18 12 11 11 13 14 14 16 20 25 30 38 47 58 61 72 94 99 99 98 98 99 99 97 94 88 85 75 61 78 77
33 23 20 24 21 19 22 16 16 18 20 20 18 18 15 11 12 11 11 12 15 18 23 28 34 41 50 54 71 79 100 100 99 99 99 100 91 86 81 82 74 69 72 70
25 20 23 27 19 16 15 18 18 20 21 31 22 18 16 13 11 12 10 9 11 18 21 25 30 38 44 50 60 80 92 100 100 98 98 97 96 92 87 85 88 73 73 77
20 27 21 21 24 17 18 22 31 33 34 35 19 20 17 12 12 12 11 10 11 14 18 25 30 34 40 48 54 69 78 90 100 100 100 96 89 94 87 84 82 78 81 81
27 38 24 22 24 22 21 23 30 39 40 28 18 24 16 12 12 12 11 10 11 15 19 24 28 33 37 46 52 57 67 71 93 99 99 93 87 89 80 81 77 76 78 80
25 18 15 20 21 22 24 28 18 27 29 36 21 20 15 14 13 12 11 11 12 14 19 22 24 30 36 42 50 54 54 60 71 96 98 96 92 85 78 73 72 71 71 68
23 27 14 18 22 22 23 18 27 28 44 46 27 27 27 16 15 14 13 12 12 11 14 18 22 26 34 39 45 54 51 51 57 69 87 93 91 84 78 71 67 68 65 62
22 30 26 23 29 28 27 30 29 24 28 38 40 27 16 21 22 21 18 14 16 16 16 16 18 21 29 36 41 52 55 47 47 57 69 80 84 84 82 78 72 69 67 65
31 34 35 39 21 21 22 27 32 36 43 30 38 33 19 20 19 19 17 16 15 14 14 15 18 23 27 34 39 46 55 52 47 47 58 67 73 77 77 77 75 72 67 64
51 37 42 36 30 26 27 25 25 28 30 50 55 36 17 17 18 17 18 16 15 15 14 13 16 24 28 32 36 42 51 54 50 48 52 62 66 67 71 75 74 74 72 70
54 51 34 36 33 23 32 30 28 30 42 39 40 32 22 21 20 17 16 17 18 17 15 14 14 15 23 30 34 38 42 50 51 50 51 56 64 67 68 70 72 74 73 73
64 65 51 28 32 30 28 32 32 33 31 37 31 30 21 19 18 15 14 15 15 16 20 20 19 16 15 20 30 34 38 42 50 49 49 52 60 65 67 68 70 71 71 70
55 74 56 56 32 32 36 31 28 26 24 26 24 24 17 16 16 16 16 15 17 20 26 29 29 25 21 19 18 28 34 38 44 50 50 50 55 62 65 66 68 70 71 72
44 50 73 72 40 36 41 34 30 29 25 26 30 21 15 16 16 18 20 23 24 28 33 36 36 34 31 27 23 22 27 36 40 45 50 50 52 57 61 65 65 67 69 69
48 45 46 64 52 82 28 21 20 24 21 18 17 16 18 21 21 21 20 29 34 35 38 37 36 36 36 34 30 27 21 27 34 40 45 48 50 53 56 60 62 63 64 66
40 47 56 54 49 32 22 20 21 22 18 16 17 23 24 24 25 23 28 31 34 35 36 37 39 43 44 44 39 32 24 23 24 34 40 46 48 50 52 55 60 63 64 65
39 44 58 56 56 49 26 21 25 21 25 24 28 31 30 29 39 28 31 32 34 31 36 38 44 47 50 54 52 45 29 22 25 25 35 42 44 47 50 53 58 63 66 69
58 56 63 56 53 35 20 23 22 43 44 35 32 32 34 36 32 32 32 36 35 36 38 43 50 58 68 76 75 65 52 40 28 27 29 40 44 46 50 54 59 88 100 100
53 64 64 56 63 58 24 26 37 54 40 39 39 41 47 41 34 31 39 40 41 40 41 45 54 67 82 89 89 84 70 68 75 68 59 80 84 85 92 98 100 100 100 100
58 43 47 40 42 34 28 43 46 44 45 45 46 43 44 42 39 40 42 41 46 46 51 55 60 73 84 89 95 96 97 99 99 96 99 100 100 100 100 100 100 100 99 100
39 52 46 60 32 42 30 40 44 44 47 44 42 43 43 50 48 46 47 48 51 55 61 68 69 74 86 92 94 99 100 100 100 100 100 100 100 100 100 100 100 100 100 100
33 36 36 40 34 30 27 45 52 48 45 46 44 46 48 50 49 49 50 57 62 71 78 80 86 80 91 96 99 100 100 100 100 100 100 100 100 100 100 100 100 100 100 99
31 34 46 46 53 51 43 45 50 51 51 50 53 52 50 51 53 54 62 69 75 81 89 88 92 92 97 99 100 100 98 100 100 99 99 99 100 99 99 98 100 100 99 97

GFSCGP_925_rhum_060.txt.gz
RH
31 22 23 30 26 25 21 19 18 15 12 12 14 13 10 9 11 15 17 18 19 27 27 32 37 41 79 89 88 94 95 97 99 100 100 100 100 100 100 90 81 81 69 61
54 30 14 16 21 23 23 23 21 16 12 12 12 13 10 9 10 11 12 18 20 22 27 34 43 44 56 90 88 93 96 96 99 99 99 100 100 100 98 94 81 70 67 60
67 31 18 17 16 21 22 23 21 19 15 12 14 17 14 9 8 9 11 12 17 20 28 35 45 49 54 73 91 98 98 96 99 99 96 100 99 98 95 91 78 68 63 63
74 52 34 38 23 20 25 16 16 17 19 23 14 24 14 11 10 10 11 14 15 16 25 33 41 51 54 64 90 96 99 99 99 98 99 99 97 96 83 89 78 71 66 60
80 50 53 38 30 22 25 19 20 19 21 23 20 22 16 11 12 11 12 14 15 16 22 31 39 45 54 58 78 92 98 100 98 97 96 95 95 89 77 91 92 78 67 71
46 35 43 29 18 20 19 20 22 22 24 36 24 23 21 15 12 10 10 11 14 16 19 26 35 41 50 56 76 90 99 96 98 96 96 93 89 87 75 84 80 78 75 76
35 35 24 27 32 23 24 27 36 42 42 44 23 24 23 15 11 11 11 10 11 18 21 25 34 39 44 53 67 77 96 97 96 98 96 95 91 88 81 78 77 70 71 70
55 60 29 24 29 29 29 30 37 56 56 36 21 26 20 13 10 11 11 11 13 17 22 23 29 37 41 50 67 73 82 89 95 94 98 97 91 89 85 81 75 73 67 67
49 40 22 25 27 24 34 47 23 34 34 47 38 20 14 12 13 11 11 11 12 15 19 22 26 35 38 47 54 67 70 79 92 92 96 94 93 91 89 86 79 76 73 72
28 46 25 19 22 24 31 27 42 34 53 62 36 26 23 19 16 13 13 14 14 15 18 22 24 34 36 43 50 58 62 65 83 96 98 96 95 92 91 87 86 79 75 74
26 34 35 25 24 30 31 35 40 40 32 52 54 45 32 27 24 22 20 19 20 19 17 17 21 25 34 38 45 55 56 56 60 90 94 92 90 86 89 85 83 84 79 76
49 34 42 43 28 21 24 29 32 54 58 39 50 41 26 27 22 23 22 18 18 17 17 18 18 23 25 36 41 52 55 52 52 65 88 92 92 90 89 87 81 78 78 74
48 45 53 40 36 33 32 31 28 34 52 92 73 56 24 19 20 20 21 22 20 20 18 17 18 24 27 30 36 41 52 54 51 51 66 84 89 91 90 88 82 79 74 74
41 66 58 50 56 66 65 33 39 40 82 81 81 51 44 36 26 19 20 20 17 17 21 25 28 29 29 28 32 36 44 53 54 50 51 66 79 83 84 86 86 81 79 75
61 93 61 48 44 40 40 45 35 43 62 74 48 41 44 44 41 19 16 16 17 18 25 31 34 35 33 32 31 31 37 46 54 54 50 50 62 72 76 79 80 80 78 78
63 82 75 65 46 34 34 38 63 59 28 29 40 56 32 27 16 18 19 18 22 26 34 35 35 35 37 37 36 36 33 37 46 54 53 51 52 59 66 69 72 75 77 77
56 70 90 74 51 42 47 34 42 46 24 23 30 24 24 18 17 18 23 24 34 35 38 39 39 40 41 42 43 42 40 35 33 45 51 52 51 53 59 66 69 70 72 75
48 49 74 83 85 78 32 20 21 27 24 23 23 22 19 20 20 20 30 35 36 34 38 39 40 42 45 49 56 58 53 47 34 30 41 48 52 52 53 61 66 68 70 73
40 47 75 95 74 65 44 24 22 24 26 18 17 17 20 23 26 33 31 33 35 36 36 38 42 47 54 64 70 72 67 59 54 48 27 37 45 51 53 56 61 66 69 71
39 47 63 66 74 83 33 25 21 19 31 22 26 30 30 29 49 52 34 33 35 37 38 42 46 51 63 74 81 80 76 72 75 82 73 65 31 45 50 53 57 62 67 69
58 63 71 70 69 45 21 19 21 39 59 40 36 40 41 44 39 34 33 36 34 40 44 50 51 58 69 78 82 84 86 84 90 95 90 85 75 53 47 50 54 59 67 80
57 70 73 62 63 62 20 24 33 62 57 51 48 44 50 42 38 37 42 43 44 44 48 56 58 62 71 78 81 83 87 98 98 99 96 96 94 96 81 74 76 89 98 100
93 45 52 43 45 34 30 50 46 45 54 53 46 41 42 43 43 41 45 48 49 53 59 66 70 70 76 81 84 89 96 100 100 99 100 100 100 99 100 100 100 100 100 100
82 57 44 54 40 27 52 48 43 43 46 43 43 44 45 49 47 48 49 57 59 67 73 75 77 78 81 85 89 96 99 100 100 100 100 100 100 100 100 100 100 100 100 100
74 88 55 53 57 73 78 66 48 45 46 48 46 49 52 52 52 56 63 65 69 76 81 81 84 84 89 90 94 98 100 100 99 99 100 100 100 100 100 100 100 100 100 100
46 83 76 79 71 83 84 54 48 52 53 53 52 54 52 53 58 62 69 72 77 82 88 87 90 91 94 95 99 100 100 100 100 97 97 99 99 99 98 97 98 100 100 99

GFSCGP_925_rhum_063.txt.gz
RH
39 39 40 24 30 30 31 31 33 27 19 20 19 16 15 16 17 26 26 24 37 41 39 42 59 80 83 82 91 88 94 97 96 100 100 100 100 100 100 94 85 78 67 80
65 55 37 24 20 32 31 32 34 26 20 21 20 18 16 14 15 19 24 26 26 38 41 44 75 82 87 84 91 92 93 96 98 97 99 99 98 100 99 100 88 94 80 66
83 58 38 38 27 20 30 35 34 30 22 18 18 21 18 15 14 13 17 20 23 38 44 49 63 90 94 90 90 92 91 93 95 100 99 100 100 100 100 100 96 81 72 62
78 62 53 49 56 29 23 19 22 22 24 30 20 36 23 18 16 14 14 22 24 38 42 49 53 74 96 90 86 90 86 90 95 97 100 99 98 97 97 95 87 77 70 61
66 71 66 59 42 34 42 25 27 28 30 30 28 35 27 21 20 14 15 20 22 35 44 52 56 57 82 89 86 78 88 92 96 93 96 97 94 89 91 89 79 72 69 64
50 49 67 66 50 46 37 46 36 34 33 48 35 33 34 25 19 16 14 18 21 30 42 48 55 57 73 91 88 86 96 100 100 99 93 95 93 88 87 90 86 81 68 61
38 47 41 54 66 47 40 60 63 58 58 60 31 34 29 24 18 17 16 18 21 28 41 48 58 63 63 92 96 93 95 100 100 100 98 89 92 89 81 87 86 84 81 79
40 66 38 33 35 56 43 48 72 64 67 48 30 39 30 20 16 16 14 19 24 31 41 47 52 59 62 82 95 92 94 93 99 100 100 96 94 92 84 80 85 82 79 75
49 48 31 28 32 35 51 52 34 56 65 67 54 39 20 19 17 15 13 21 28 31 39 45 48 52 60 70 90 91 93 87 93 99 99 99 92 90 87 78 76 79 73 74
37 49 32 32 30 36 41 32 63 85 91 95 49 50 51 34 20 22 19 24 24 26 29 43 45 49 56 66 78 88 87 86 85 95 97 97 96 92 90 86 79 73 71 67
48 49 41 31 34 42 42 54 84 77 64 71 69 59 43 35 33 30 28 27 26 24 28 30 42 45 51 60 78 78 84 86 88 88 92 96 96 92 89 91 86 82 76 71
54 72 57 37 25 26 35 42 72 100 83 70 63 71 42 33 25 27 27 23 25 29 33 36 37 39 47 55 65 74 74 78 88 87 91 92 94 93 94 93 91 88 85 80
45 70 74 56 38 34 45 34 50 54 59 97 98 66 52 49 45 25 22 21 27 35 38 39 39 40 44 52 59 65 68 69 70 92 94 97 95 87 91 92 91 82 87 88
43 65 80 85 70 77 80 59 36 48 84 79 88 73 71 61 59 44 23 22 33 40 40 40 43 44 45 47 47 55 61 65 62 79 92 95 96 90 89 88 85 89 87 91
71 85 76 73 60 61 74 69 50 58 58 90 74 79 62 78 68 42 24 31 40 42 42 43 47 47 46 48 50 50 49 48 68 64 74 88 91 91 91 90 88 90 90 88
65 83 81 76 55 53 58 58 45 65 65 59 69 84 74 73 72 57 31 41 45 47 45 45 45 48 54 63 69 70 68 65 58 62 66 63 81 92 92 92 92 92 92 90
82 86 88 89 64 74 69 45 66 73 72 64 92 57 66 70 54 41 45 42 44 46 48 49 51 57 65 72 73 75 75 73 68 63 61 66 61 72 83 87 90 90 90 91
65 66 84 97 69 95 56 47 45 54 62 49 30 38 27 37 43 43 44 45 47 49 51 53 57 67 74 77 79 82 81 80 77 85 83 86 88 73 63 73 79 83 86 87
53 65 87 96 88 68 53 45 29 39 39 31 28 28 31 43 43 46 41 46 51 54 54 54 62 73 78 77 79 82 82 84 85 88 90 90 91 92 85 72 70 72 75 78
50 62 80 94 87 90 63 41 29 26 67 50 48 48 48 48 65 57 49 51 53 56 58 60 63 73 77 78 79 80 81 83 88 92 94 97 95 98 99 98 88 69 72 75
68 72 79 81 88 79 45 34 27 50 83 60 56 57 55 59 61 55 53 56 57 63 68 71 71 74 80 81 82 83 84 89 94 95 97 98 99 100 100 100 98 80 74 77
84 78 89 86 86 81 33 51 53 78 67 60 56 58 61 56 54 59 59 64 67 70 72 74 76 77 81 84 86 88 92 96 98 97 97 99 100 100 99 100 100 100 100 99
97 84 78 68 68 59 64 67 69 64 63 60 59 56 55 57 61 64 67 69 71 75 76 77 76 78 86 89 93 94 98 100 98 98 99 100 100 100 100 99 100 100 99 100
82 80 89 69 79 78 90 72 54 53 58 58 56 56 57 63 65 68 69 73 74 76 77 80 81 84 89 93 97 98 100 100 98 98 99 99 99 99 100 100 100 100 100 100
88 93 93 78 89 92 88 84 73 62 55 56 55 58 60 65 70 72 74 75 77 80 81 84 86 88 93 97 100 100 100 98 98 98 98 98 98 97 96 100 100 100 100 100
88 100 100 100 96 94 96 81 74 71 59 60 61 65 63 66 71 72 77 79 83 90 90 89 95 94 99 100 100 100 100 99 94 96 98 100 99 98 96 92 97 99 99 100

GFSCGP_925_rhum_066.txt.gz
RH
43 49 54 32 31 36 35 37 41 33 28 29 28 26 26 20 17 21 28 35 44 47 44 62 90 94 93 95 92 87 93 100 100 100 100 100 100 100 100 100 97 88 84 81
69 68 45 32 26 27 35 39 43 33 25 27 27 29 20 18 17 19 26 32 43 50 51 75 94 100 100 100 92 90 94 97 100 100 100 100 100 100 99 99 95 86 80 75
77 62 48 41 40 35 30 31 39 38 29 24 30 30 22 18 16 17 23 25 34 47 50 73 92 97 100 100 97 92 90 99 97 95 100 99 99 100 100 100 100 95 88 78
83 64 66 64 55 43 59 23 22 27 31 52 29 50 27 22 21 18 18 26 33 45 44 64 85 96 98 100 96 91 88 90 94 89 94 96 98 98 99 100 99 96 91 80
66 71 76 74 58 43 46 44 49 46 49 46 36 42 28 24 24 21 20 20 28 42 45 59 82 90 95 98 100 94 91 88 94 100 94 96 100 100 99 100 100 100 93 83
56 61 62 60 51 48 53 52 50 42 47 67 43 42 43 31 22 19 18 17 27 41 44 49 68 88 96 100 100 98 94 92 89 98 100 96 99 96 99 100 100 98 92 74
37 54 58 58 68 54 57 70 69 68 69 73 39 43 38 28 24 22 22 20 24 41 48 55 68 91 98 99 100 100 96 100 90 99 99 98 95 92 94 97 93 92 86 80
46 58 43 57 64 67 61 76 84 91 92 66 34 45 35 23 19 19 19 20 29 43 51 60 63 76 94 98 100 100 100 100 98 100 96 96 93 91 91 90 87 83 79 74
49 52 36 45 43 52 76 94 63 85 66 91 60 43 31 31 23 19 19 29 39 48 53 61 62 64 90 97 99 97 100 100 100 100 99 91 94 92 88 85 85 81 80 80
40 57 36 36 36 40 50 61 98 98 97 94 57 48 52 40 38 29 32 35 42 47 52 56 62 66 73 90 94 95 94 96 98 97 100 99 94 92 86 80 80 82 78 81
60 53 48 40 44 59 60 96 92 82 82 96 77 72 64 51 37 38 43 45 47 48 50 56 58 61 64 84 94 96 94 90 95 98 99 97 97 96 93 90 83 79 81 78
52 71 87 53 32 30 53 74 75 99 86 81 86 95 74 55 42 32 42 46 48 46 48 50 61 65 65 77 86 95 94 91 90 94 97 96 96 96 97 95 92 84 80 77
42 68 88 60 43 35 50 50 63 75 89 98 98 84 77 60 63 58 40 46 47 50 51 50 52 54 58 69 81 80 84 88 90 92 94 97 97 97 95 95 93 89 87 83
47 68 80 89 89 80 84 67 63 86 100 88 90 72 82 85 81 57 48 48 49 52 52 54 60 65 67 70 72 71 74 73 79 87 91 95 96 96 94 91 91 91 91 91
65 70 82 76 69 59 58 85 79 74 80 85 69 68 70 89 80 70 58 50 50 51 53 58 65 68 68 69 71 74 77 77 72 82 95 96 95 96 96 94 93 91 94 89
78 78 84 85 59 50 61 72 75 94 87 61 62 69 70 90 87 69 58 50 56 58 58 62 63 66 67 73 79 82 82 82 83 83 84 88 97 97 97 95 94 93 91 91
76 82 87 86 67 62 79 59 58 61 75 80 94 67 79 84 86 70 52 56 60 60 63 67 70 68 68 73 77 82 82 84 82 85 87 90 86 92 95 99 98 97 95 91
72 69 85 96 76 80 55 39 41 67 70 69 73 79 78 70 77 74 52 59 63 63 68 70 70 71 75 76 78 79 81 82 85 88 89 92 94 93 97 91 90 97 98 96
68 72 85 90 90 61 41 48 52 64 78 65 74 75 73 55 63 68 60 61 64 66 66 73 74 77 80 81 82 81 83 85 87 90 90 90 94 96 98 98 100 97 91 96
62 67 79 96 88 87 58 44 41 39 98 62 53 68 56 56 92 82 65 66 69 69 71 73 78 80 82 83 84 84 86 89 92 90 90 90 92 95 98 100 100 100 100 100
83 87 83 87 93 77 51 42 43 65 96 65 60 66 67 78 73 69 66 68 68 71 74 76 78 83 86 88 88 87 90 93 92 90 92 93 95 96 98 100 100 100 100 100
80 87 93 87 92 80 56 53 62 72 70 67 63 66 75 70 68 69 69 72 71 72 75 76 79 84 90 94 92 92 95 97 92 92 94 95 96 100 100 100 100 100 100 100
99 87 93 75 73 87 71 72 67 66 77 73 71 64 66 68 70 70 75 75 74 75 78 79 82 87 94 93 96 97 99 97 96 97 98 98 96 99 100 100 100 100 100 100
91 84 99 88 88 90 88 75 60 60 67 64 64 66 66 73 70 75 75 76 76 79 83 85 86 91 95 98 100 100 100 96 97 97 98 97 97 94 98 98 99 100 100 99
94 87 98 99 91 90 90 90 83 63 64 64 64 68 69 73 77 78 80 81 83 86 90 94 94 95 97 99 100 100 100 97 97 98 98 98 98 97 94 98 99 98 100 100
95 100 99 100 97 98 98 85 78 82 75 65 67 72 72 74 78 78 81 83 90 94 96 96 97 97 100 100 100 100 100 96 100 98 99 99 98 96 96 95 91 100 99 98

GFSCGP_925_rhum_069.txt.gz
RH
51 56 62 42 37 37 43 44 46 39 30 32 35 33 28 24 27 22 20 26 47 47 43 73 92 95 91 87 84 87 99 97 93 100 100 100 100 100 100 100 100 100 98 100
70 73 52 44 38 32 34 39 45 37 29 31 36 35 27 24 23 21 19 26 31 45 62 92 98 99 100 100 91 93 100 99 98 100 100 99 99 99 98 100 99 97 97 100
76 62 55 53 48 47 43 37 42 44 34 34 36 36 34 26 20 19 19 23 35 51 58 93 93 96 99 99 100 91 96 100 100 100 100 100 100 100 100 100 100 100 99 100
83 68 70 74 70 54 58 34 38 29 33 55 34 62 40 32 26 22 20 29 38 52 50 79 95 91 96 98 98 90 99 100 100 100 100 99 98 99 99 100 99 100 100 95
70 77 88 80 70 54 54 56 57 53 56 51 46 55 44 27 30 26 22 22 30 44 49 72 92 92 95 97 100 97 100 100 96 100 98 99 99 99 99 100 100 99 100 94
64 60 62 67 57 50 50 62 57 57 58 74 48 50 51 38 30 24 20 20 25 41 47 57 80 93 96 99 100 100 100 99 92 91 92 90 98 97 100 100 100 100 100 98
39 49 63 61 70 58 64 87 86 79 79 69 46 51 40 33 29 27 26 22 25 39 48 68 94 95 96 99 100 99 100 100 92 86 86 95 95 97 96 99 100 100 100 100
49 45 61 64 60 65 62 90 96 89 88 76 50 57 37 35 31 30 23 21 20 32 47 67 86 92 94 94 99 97 98 98 100 94 91 92 89 96 94 100 100 100 100 98
50 53 39 61 56 66 87 92 85 93 88 90 70 47 34 41 42 45 31 23 28 45 48 63 83 88 94 93 96 97 98 96 99 99 91 98 95 93 91 93 95 95 96 90
40 56 39 43 55 66 86 77 100 100 98 95 66 67 85 62 53 55 62 62 53 58 62 66 77 86 92 95 97 99 99 98 98 100 96 96 93 92 90 91 94 93 90 87
53 49 49 42 61 73 92 97 97 92 90 93 87 93 71 75 69 61 62 63 65 68 73 77 77 83 95 97 97 99 100 99 98 98 98 98 98 90 92 90 88 89 87 85
52 74 92 71 43 51 63 78 94 99 98 93 100 93 74 74 63 58 60 61 63 70 74 78 80 84 96 98 98 96 97 97 98 98 99 100 98 95 93 94 88 82 81 76
45 69 90 64 54 57 72 79 83 86 93 89 97 83 77 70 69 59 61 61 63 70 76 76 76 77 84 93 98 100 96 92 92 97 100 100 100 99 98 94 88 86 78 77
49 70 78 88 89 82 96 81 75 89 100 94 93 86 88 79 81 70 72 57 65 74 75 76 77 77 80 82 84 84 83 82 85 90 94 100 100 98 97 97 94 88 82 80
59 64 81 78 74 69 71 77 79 96 94 99 69 68 67 85 88 89 70 57 62 67 68 68 72 75 74 78 82 83 88 85 85 93 95 96 100 99 99 100 98 98 98 93
77 78 84 81 69 60 56 52 64 78 86 93 81 69 70 84 86 88 86 69 68 71 70 65 61 64 70 74 79 82 82 84 83 84 89 92 93 97 100 100 100 99 97 98
75 83 87 80 72 72 74 66 55 70 78 75 98 72 86 90 78 84 89 80 77 70 70 67 68 70 73 77 79 82 83 86 88 88 88 91 93 92 93 92 92 100 100 99
76 75 88 94 79 76 44 32 51 62 68 74 78 79 79 75 85 84 84 88 84 79 72 71 74 74 77 81 82 82 86 89 87 87 86 88 90 90 93 95 97 96 97 97
69 77 85 85 90 62 49 54 56 65 69 66 71 71 70 85 78 87 74 76 82 81 73 75 76 77 79 84 83 86 89 90 86 88 87 88 90 90 91 95 99 98 100 100
79 71 77 96 85 83 50 50 43 55 85 74 66 80 89 71 93 100 83 81 78 75 74 76 79 82 87 89 87 89 90 87 88 92 92 93 95 96 96 99 100 100 100 100
88 92 93 87 90 78 54 74 54 85 94 77 69 82 85 77 78 74 74 78 76 72 74 77 81 87 91 90 88 89 89 87 92 93 94 94 99 97 99 100 100 99 100 100
79 90 96 89 85 86 76 75 64 84 81 76 75 76 81 76 72 72 71 72 72 73 75 79 85 90 91 94 90 92 91 93 94 95 96 96 98 99 100 100 100 100 100 100
91 96 91 78 79 86 76 80 79 80 88 88 90 83 79 82 90 83 85 75 75 79 81 86 90 91 96 99 96 95 93 98 95 95 98 95 98 98 97 97 98 99 98 98
90 95 100 99 94 91 82 72 70 67 74 70 79 90 85 92 90 87 77 78 80 86 88 89 89 93 98 100 99 100 99 97 96 96 99 98 94 96 99 97 97 98 97 94
100 85 94 99 97 94 93 85 90 93 84 83 70 70 72 75 79 79 81 83 86 88 90 91 92 94 100 100 100 99 95 95 94 97 97 96 98 99 97 100 100 100 100 100
98 100 97 100 100 99 100 98 85 90 93 78 74 77 74 75 80 78 84 87 89 93 96 95 98 97 100 100 100 100 100 100 97 98 100 100 99 97 98 98 100 100 100 100

GFSCGP_925_rhum_072.txt.gz
RH
48 55 55 44 39 34 42 50 54 44 35 38 40 39 33 29 29 30 30 27 26 41 43 68 87 81 83 89 92 99 100 95 82 99 100 100 100 100 100 100 99 100 100 100
68 71 53 48 44 40 40 41 41 38 36 38 42 41 35 30 29 27 26 26 26 28 65 94 97 97 93 98 92 99 98 90 88 87 99 98 100 100 97 100 100 100 98 98
71 54 58 58 61 59 54 54 50 41 36 35 39 39 34 27 30 24 23 22 23 31 61 95 97 97 98 99 100 100 98 96 91 89 98 95 96 100 100 100 100 100 99 99
79 65 67 74 82 66 72 47 44 40 45 54 36 58 40 36 33 29 26 25 31 32 52 89 93 93 91 97 100 100 98 98 98 95 100 94 99 97 98 98 100 100 100 99
66 76 81 88 74 62 69 53 64 58 66 58 53 57 42 38 37 32 28 25 24 49 62 91 91 87 88 94 99 99 99 99 92 98 100 99 100 91 93 98 99 100 100 100
69 57 72 72 60 60 54 68 61 61 70 88 58 56 51 44 36 30 23 23 22 27 62 80 88 89 89 92 99 100 98 98 99 97 100 99 98 99 99 100 100 100 100 100
40 44 62 60 68 61 66 79 91 89 88 86 50 58 43 30 29 37 42 35 25 22 58 83 97 89 85 91 98 98 99 99 100 100 100 94 94 93 93 93 95 100 100 100
45 43 61 67 60 70 82 70 92 89 88 78 56 64 47 43 43 52 56 57 32 27 53 75 92 91 85 91 94 99 99 98 100 100 100 82 87 95 93 86 97 100 99 98
48 53 42 64 58 55 75 96 82 100 100 98 69 54 50 64 65 59 65 67 70 35 46 65 90 91 86 90 93 96 97 95 98 99 94 94 98 99 94 87 93 99 99 99
40 58 40 59 64 74 75 83 99 100 98 89 69 76 95 88 77 69 75 78 79 69 70 84 94 89 88 88 90 93 97 95 93 98 92 88 93 99 98 95 91 89 98 100
44 54 50 65 66 84 83 88 98 96 86 98 94 95 78 81 72 76 77 84 89 82 82 91 94 84 88 87 95 98 96 93 92 94 98 96 95 96 96 96 95 93 86 90
65 87 95 74 49 57 77 92 89 100 99 97 100 97 76 68 65 67 76 78 82 82 86 90 92 93 94 95 99 97 94 94 95 94 94 96 96 97 95 92 92 92 93 91
63 94 88 56 61 67 81 79 82 94 99 100 97 88 76 70 71 74 70 75 72 74 78 81 84 88 91 96 96 96 97 98 97 96 96 95 94 98 94 88 87 89 89 88
50 73 66 63 68 78 83 66 67 98 100 97 94 85 86 84 85 80 66 70 68 68 71 76 81 84 87 89 92 92 92 92 92 99 99 99 98 99 98 93 90 88 86 85
54 64 78 72 71 70 72 72 66 77 91 100 88 88 73 84 84 88 65 66 64 63 62 69 76 80 81 82 83 85 86 89 91 95 96 98 100 100 100 100 96 94 93 88
81 91 80 71 69 63 57 43 54 57 74 81 85 84 62 87 85 90 80 68 70 67 66 68 67 69 72 77 79 84 89 88 87 90 91 92 95 97 99 99 100 100 100 98
75 85 81 71 70 68 52 58 48 58 74 82 89 68 86 92 86 89 89 78 78 72 72 74 72 74 78 79 82 85 89 87 86 85 85 84 86 89 90 93 94 97 99 99
84 77 83 89 68 74 38 36 51 71 69 71 70 76 88 89 85 83 79 84 87 86 82 79 75 77 80 82 84 87 87 86 87 87 88 88 88 88 91 92 94 95 98 99
72 79 87 82 87 60 49 57 68 67 63 63 73 72 89 87 82 95 86 83 86 85 84 81 81 83 85 85 87 87 86 88 89 90 91 93 95 94 95 97 99 99 99 99
81 72 77 95 88 83 50 60 66 62 81 83 76 76 90 75 95 99 90 87 86 85 83 83 85 85 87 88 87 86 90 92 93 94 95 99 97 96 98 100 100 100 99 100
95 95 94 91 92 75 59 79 72 81 80 85 82 81 86 93 91 96 95 98 93 76 77 81 84 91 95 89 88 88 92 93 95 93 96 100 98 99 100 100 100 100 100 99
80 93 98 87 92 88 84 77 69 91 87 83 81 83 91 90 86 88 87 90 87 78 81 86 88 95 98 94 87 92 97 94 95 97 97 98 99 96 98 98 99 98 99 97
84 80 87 79 78 86 80 84 77 84 92 90 95 95 84 88 94 96 95 94 92 84 86 88 89 94 97 98 98 96 100 96 95 98 96 95 99 98 99 99 100 97 98 97
86 90 100 100 91 87 82 80 82 76 77 89 93 96 100 98 97 97 96 92 83 87 87 87 89 92 98 99 100 100 98 92 90 95 99 98 97 98 97 98 98 99 98 98
99 100 96 98 98 97 98 99 99 90 90 92 90 89 94 92 93 85 84 84 86 89 91 90 91 92 97 100 100 100 94 92 94 97 97 98 98 98 98 100 100 99 99 100
100 100 97 100 100 100 100 100 97 94 95 86 82 82 78 83 89 90 90 87 88 91 94 94 96 96 100 100 100 100 100 97 95 99 99 99 99 100 100 97 99 100 100 100

GFSCGP_925_rhum_075.txt.gz
RH
44 43 45 41 41 36 32 36 36 31 29 31 31 34 31 28 26 25 23 22 21 22 22 31 65 76 78 90 98 100 99 98 99 99 99 100 99 100 100 100 99 93 98 100
63 59 45 40 39 38 39 42 42 36 29 28 28 30 30 28 26 25 23 22 21 22 20 41 74 78 80 91 98 100 100 99 98 96 98 98 97 99 99 96 99 97 100 100
53 48 53 51 56 60 57 60 57 55 43 36 35 34 28 23 25 24 23 21 20 21 21 37 73 77 79 91 100 99 99 99 90 83 99 99 98 100 100 100 100 100 100 100
67 55 58 63 65 65 70 52 52 53 53 55 33 46 33 28 26 25 22 23 24 22 23 27 64 75 79 84 96 98 96 98 86 83 91 98 98 99 99 99 100 100 100 100
51 72 80 71 54 59 59 54 57 57 60 59 53 55 38 32 32 26 24 25 24 24 26 40 64 67 77 88 95 99 97 98 95 86 90 94 95 90 93 99 99 100 100 100
61 55 63 59 56 56 52 60 58 55 60 77 53 52 45 34 28 29 30 33 33 27 30 42 63 72 77 88 95 99 98 99 95 86 96 99 99 95 97 96 100 100 99 100
39 42 53 56 58 56 53 62 73 76 81 63 42 55 45 34 33 51 53 50 48 42 37 57 70 72 77 84 96 99 97 98 96 95 99 100 100 94 92 97 100 100 100 100
40 44 47 59 48 52 66 60 74 78 74 66 51 55 44 61 55 56 58 60 58 54 32 57 67 72 77 82 94 95 97 97 98 94 95 96 96 97 96 94 94 98 99 99
43 43 39 59 55 44 72 79 63 100 75 91 52 45 61 57 61 63 69 73 75 66 52 44 69 73 77 81 92 91 95 98 100 98 99 89 88 90 92 89 89 98 97 99
38 48 40 69 59 67 65 73 100 98 86 78 53 57 78 76 74 70 79 86 87 75 70 66 75 78 77 85 92 95 93 91 97 100 100 99 96 89 88 86 86 93 99 100
40 54 52 65 66 68 77 76 97 98 80 78 85 92 77 82 76 83 86 85 88 88 87 80 76 81 84 91 95 96 92 88 89 95 100 100 100 99 98 94 90 91 90 96
74 80 68 53 46 51 58 66 86 95 89 93 90 78 86 78 71 78 84 81 84 86 91 90 87 90 94 96 97 95 94 90 91 94 96 96 99 100 100 100 100 97 91 92
70 98 94 75 67 64 71 75 96 96 98 95 92 84 83 82 68 71 78 79 80 85 85 87 87 91 94 97 98 100 100 99 98 95 93 94 94 94 100 100 100 99 97 96
70 65 93 71 57 61 72 56 57 92 96 95 97 86 82 85 87 69 67 72 74 78 84 84 85 86 89 91 92 94 98 98 100 100 100 100 99 94 96 100 100 100 99 97
89 76 82 63 61 65 57 54 45 50 70 89 63 71 71 75 82 91 67 60 71 72 75 79 82 82 84 86 89 91 90 93 93 94 96 100 100 100 100 100 100 100 98 97
97 80 79 62 66 54 50 38 43 52 49 56 67 72 55 57 77 86 79 66 67 71 72 72 73 73 75 80 82 82 86 90 85 85 87 90 91 95 99 100 100 100 100 100
91 90 69 58 61 50 40 44 38 48 53 60 73 61 68 85 84 83 80 71 72 74 73 72 73 74 76 80 82 79 80 79 83 86 81 84 85 88 92 93 95 98 100 100
97 66 72 67 60 51 30 34 42 62 60 54 55 71 89 92 96 86 76 83 88 86 80 80 76 76 78 82 81 81 80 78 79 78 82 86 87 87 89 92 95 100 100 100
85 72 71 69 62 47 37 57 63 74 60 78 76 75 89 88 84 96 90 87 91 91 90 89 88 88 86 83 79 81 81 79 80 83 87 88 90 91 94 97 99 100 100 100
75 68 65 88 75 64 40 63 56 66 50 79 79 75 84 83 98 99 96 97 95 85 82 84 88 92 86 83 83 81 81 81 84 88 92 91 92 96 98 99 100 100 100 100
88 87 80 76 75 60 71 72 70 44 60 83 84 86 78 89 96 100 99 97 97 94 82 85 88 89 91 85 85 83 83 87 87 89 93 94 92 98 97 97 98 96 97 98
67 84 89 74 78 77 80 73 72 91 86 84 85 91 95 93 91 96 95 96 95 94 82 83 86 89 90 89 86 87 88 90 89 89 91 93 97 99 99 96 98 97 95 94
73 78 79 68 68 84 80 89 84 86 91 92 92 90 94 93 96 96 96 96 96 92 80 82 85 88 92 93 90 87 93 92 91 90 90 91 92 93 95 96 95 96 94 89
74 94 100 100 97 95 93 86 88 91 96 96 91 89 92 96 96 96 96 96 94 90 82 82 83 86 92 95 95 91 90 88 87 88 92 91 94 93 92 94 96 96 93 91
99 99 95 100 100 100 100 100 98 95 94 94 96 94 92 92 94 89 86 88 89 89 86 85 85 89 94 96 99 100 91 88 88 91 92 93 94 94 98 100 98 98 99 99
100 100 98 99 100 95 95 95 94 92 93 94 86 86 89 90 91 91 90 90 88 88 88 90 93 94 99 99 100 100 100 93 88 89 93 98 95 94 92 90 99 100 100 100

GFSCGP_925_rhum_078.txt.gz
RH
24 27 29 24 26 22 25 31 30 22 19 24 24 22 18 16 19 20 19 17 15 14 11 12 18 37 48 54 64 75 96 98 99 100 100 99 98 98 99 99 99 99 100 100
41 38 21 21 25 30 29 29 31 29 27 29 27 25 19 17 16 16 18 18 16 14 12 12 20 40 50 56 63 73 88 95 97 94 97 99 99 98 99 98 97 98 99 96
35 24 38 34 35 37 35 40 38 41 36 33 33 28 21 19 19 17 17 17 16 15 13 12 21 40 49 55 66 70 79 84 89 85 89 94 99 100 100 99 98 88 100 95
35 29 37 41 39 41 42 37 41 42 43 33 28 32 22 21 20 17 16 18 16 15 13 13 15 34 45 53 65 68 74 80 81 77 84 86 91 98 95 97 98 99 98 100
32 42 54 45 38 39 38 41 41 42 47 45 38 42 25 23 25 21 18 17 16 15 13 14 16 24 41 51 66 70 74 84 76 76 77 78 93 91 89 99 99 99 100 100
36 31 44 41 43 37 36 41 33 35 45 57 36 38 27 24 27 23 23 20 22 21 21 18 18 31 41 54 67 72 77 83 77 77 83 87 89 89 86 99 100 100 100 100
31 33 36 41 45 40 42 38 33 45 61 46 32 38 31 25 37 37 36 35 33 33 30 22 30 38 45 59 80 83 77 84 83 77 77 82 78 89 87 87 94 99 100 100
31 36 31 38 40 32 40 38 42 50 42 34 33 42 31 42 40 40 40 44 42 39 35 24 34 40 47 60 87 87 79 85 88 79 72 89 88 97 94 92 88 96 100 99
34 34 30 40 38 34 53 59 41 60 53 63 35 28 38 37 41 43 49 53 59 56 48 32 37 44 50 61 88 91 84 86 88 86 77 88 91 93 95 99 99 99 98 99
31 39 30 44 44 44 51 47 78 72 76 55 31 35 44 59 58 54 61 67 74 74 64 44 47 53 55 70 86 90 83 86 89 88 89 79 84 90 94 98 93 83 93 99
31 37 42 52 52 42 59 61 69 94 70 59 51 86 88 82 75 78 72 77 86 87 91 63 59 59 68 79 90 92 82 85 93 94 93 80 76 85 93 91 92 94 99 99
41 52 50 37 29 34 35 44 55 67 71 87 95 66 78 71 72 75 75 78 83 85 88 92 83 80 84 88 93 93 77 77 81 94 90 87 86 83 86 88 95 98 98 99
94 73 61 47 52 45 49 51 88 88 100 82 89 81 82 81 72 70 75 77 80 86 85 86 88 91 94 97 97 97 89 86 93 88 91 93 95 98 92 87 85 90 93 98
97 72 57 41 82 50 59 49 49 59 77 58 53 62 69 79 82 83 67 80 80 82 85 84 86 88 92 95 97 99 100 100 100 97 100 100 98 98 98 96 92 87 86 89
96 94 57 59 68 61 39 36 35 46 47 56 32 32 32 43 56 74 58 75 80 83 82 83 84 85 85 87 92 95 92 94 96 95 96 100 100 100 100 100 96 100 97 89
98 92 58 64 62 47 44 34 26 31 38 37 38 42 36 49 63 70 66 81 84 83 82 82 79 79 82 82 83 84 89 87 82 85 87 89 93 97 99 99 100 100 100 100
99 100 67 62 47 40 39 29 31 32 30 45 55 46 46 56 76 72 76 70 84 86 79 77 79 80 80 79 78 72 74 74 77 81 82 81 83 85 89 95 99 99 100 100
97 96 68 50 41 43 36 27 32 39 38 48 45 64 71 81 92 92 80 86 84 85 94 82 76 74 72 74 73 69 67 68 71 71 74 81 82 80 82 87 95 100 100 99
84 100 78 50 43 30 24 45 45 49 45 58 62 59 84 88 83 97 94 89 95 93 90 90 79 86 76 71 70 70 69 68 72 76 78 79 80 84 86 91 95 95 93 96
70 64 90 56 49 46 50 46 42 40 45 61 66 73 77 84 99 98 96 92 96 96 97 89 78 75 78 84 72 69 71 75 79 80 77 81 86 84 90 90 91 90 89 90
71 66 70 54 49 40 52 51 48 46 74 71 74 85 85 90 96 96 96 96 99 96 95 95 85 78 72 74 75 77 74 72 81 82 85 88 86 89 92 89 88 88 89 89
51 60 66 55 60 58 63 57 61 87 84 79 81 86 92 92 91 94 96 97 97 97 86 72 71 74 73 70 70 70 81 87 81 79 81 85 87 82 87 89 88 86 85 85
69 78 72 56 74 73 75 80 87 84 92 92 86 82 81 87 95 95 95 95 96 96 67 66 70 75 76 71 68 71 78 78 77 79 79 80 83 84 81 79 78 78 79 79
67 73 82 91 97 98 94 82 88 91 93 86 88 85 93 92 93 94 94 94 94 95 70 66 68 72 78 80 76 75 74 73 74 76 79 82 82 81 82 84 86 87 84 84
88 74 87 100 100 98 94 93 81 88 88 91 96 94 93 93 94 89 89 91 93 94 89 75 72 75 78 80 82 78 74 73 75 77 79 81 83 87 96 98 96 98 99 98
88 100 96 92 97 95 94 91 84 86 90 95 86 87 88 90 90 91 90 86 88 88 83 83 85 86 87 87 91 90 84 77 76 79 82 84 81 79 79 86 97 100 100 100

GFSCGP_925_rhum_081.txt.gz
RH
20 24 24 22 21 22 19 19 19 16 14 16 18 17 15 12 12 14 16 16 14 13 10 9 10 14 23 30 44 57 69 73 75 78 86 86 91 92 100 99 99 99 96 99
22 27 18 15 16 19 22 24 25 18 16 23 24 22 17 15 13 12 12 14 15 14 12 10 10 15 29 35 45 56 69 74 75 71 75 78 87 86 90 99 99 97 95 99
29 22 25 24 23 24 23 25 24 25 22 21 22 23 19 15 17 15 13 11 12 14 13 11 10 16 32 36 47 55 66 72 74 67 75 82 87 89 93 96 99 98 97 98
24 20 22 21 28 24 29 21 26 32 31 28 18 30 19 14 14 14 14 14 13 14 13 11 10 15 30 35 45 52 62 68 72 71 76 84 85 82 79 82 90 93 96 97
25 24 31 32 27 24 30 26 35 33 32 28 24 26 19 15 18 16 15 14 14 14 14 12 11 10 25 35 46 53 58 63 66 68 63 67 63 70 75 77 93 99 99 95
26 19 24 28 26 31 24 34 35 29 28 39 28 24 19 17 23 22 19 18 15 14 13 12 10 9 20 33 46 56 58 60 62 64 62 63 62 69 74 82 94 98 98 99
27 26 24 32 32 29 34 39 36 26 39 42 22 28 21 18 28 29 30 27 28 26 24 18 14 13 18 33 49 56 57 62 61 63 65 64 65 77 83 80 91 99 100 100
23 25 22 24 34 31 30 35 36 44 38 45 36 33 34 30 28 30 30 35 37 41 40 27 18 18 25 35 51 56 56 65 62 64 65 64 64 69 71 76 79 94 99 99
24 21 21 26 28 28 35 41 27 40 36 40 28 20 26 35 35 34 40 43 50 53 54 42 22 28 31 43 69 66 56 76 68 63 62 62 65 71 75 81 87 88 93 99
24 29 23 28 29 30 33 36 65 51 62 49 28 27 75 60 53 55 59 61 65 69 73 67 31 34 38 61 80 82 70 81 73 65 61 72 73 75 81 85 86 86 89 91
39 29 24 22 34 31 40 47 48 57 58 60 55 77 71 70 68 69 62 64 76 82 84 80 75 47 58 76 84 89 81 82 81 80 70 75 77 74 82 84 84 82 85 92
60 73 38 24 20 20 24 36 43 68 49 52 60 66 68 65 67 68 63 69 76 80 84 85 90 89 79 85 89 88 82 82 85 80 80 77 75 79 81 82 79 82 86 94
85 67 56 38 29 24 29 28 33 55 68 65 72 76 74 62 59 64 65 69 77 81 82 84 87 90 94 97 98 100 86 83 90 90 89 84 81 82 82 84 87 90 91 94
65 67 69 51 49 60 67 32 39 53 70 56 54 37 67 54 60 64 64 69 80 82 84 84 86 88 90 96 97 99 100 99 95 94 95 95 91 85 82 82 84 89 91 92
65 71 52 48 33 41 62 82 41 50 46 47 33 26 24 34 50 63 62 72 81 84 84 86 87 87 86 90 95 97 98 98 99 98 99 100 100 100 100 99 96 97 96 100
75 72 57 70 54 45 54 56 30 26 23 25 26 28 35 52 55 58 67 73 82 86 86 86 84 84 85 84 89 92 96 92 92 92 93 97 98 100 100 100 100 100 100 100
77 78 76 69 58 51 66 44 31 22 24 26 43 46 50 68 66 67 75 77 82 88 85 87 89 86 88 85 83 92 93 90 90 90 86 88 91 94 98 100 99 99 100 100
88 79 86 88 55 70 34 22 20 24 26 35 39 57 66 88 94 94 90 92 95 96 99 88 89 82 82 84 85 83 89 91 84 80 84 84 84 87 96 99 96 98 98 99
41 87 90 95 44 36 24 34 33 39 68 49 50 46 74 79 78 98 100 99 100 100 100 100 98 88 82 73 72 78 79 81 79 85 80 77 83 85 86 88 91 91 92 94
45 75 92 82 60 52 53 36 34 30 56 58 55 59 62 77 98 97 95 93 97 99 99 99 99 99 100 97 73 73 77 77 80 82 82 84 87 84 88 88 88 85 85 85
69 74 82 88 47 44 49 37 33 44 89 64 66 73 80 93 97 96 96 97 99 98 99 98 99 99 98 98 98 97 86 80 83 84 82 82 87 90 90 87 86 84 84 84
48 49 55 51 54 61 61 46 65 89 75 72 72 76 85 86 90 96 96 97 99 99 99 99 99 83 67 62 68 72 84 98 98 90 86 88 91 86 83 85 89 88 80 80
73 87 95 89 98 83 72 79 83 78 86 84 80 77 80 87 91 95 95 96 98 98 82 64 63 63 62 59 61 64 68 68 71 76 83 91 92 94 95 94 94 89 86 88
61 50 78 83 96 94 87 77 80 80 84 78 74 78 84 92 94 94 94 94 94 96 73 59 61 65 68 66 64 64 63 65 68 71 74 77 77 78 79 85 94 99 92 89
69 59 71 97 86 79 80 94 93 85 83 86 87 86 88 93 94 88 90 92 94 96 97 69 66 70 72 73 71 67 67 68 71 73 75 78 83 86 96 100 97 98 100 100
72 96 90 95 85 90 95 95 95 93 86 93 81 80 83 86 90 91 91 93 92 93 96 92 85 84 86 88 91 94 86 74 74 77 79 79 76 76 78 84 96 100 100 100

GFSCGP_925_rhum_084.txt.gz
RH
21 25 25 21 18 18 20 23 23 18 13 15 16 15 14 12 11 12 12 13 16 16 14 11 10 9 10 16 41 66 74 79 79 93 90 95 95 92 89 84 85 93 94 95
22 27 20 16 16 17 19 20 21 17 15 18 17 16 16 17 17 14 12 12 14 17 16 15 13 11 17 29 42 65 73 77 77 84 86 80 85 92 84 85 92 98 97 98
25 20 17 23 22 23 21 22 22 21 17 18 24 23 18 15 14 15 14 14 12 14 17 16 15 16 24 31 46 59 69 73 74 72 74 75 77 78 78 87 97 95 94 94
21 17 19 21 23 22 29 18 19 25 26 39 22 38 21 14 14 15 17 17 17 14 12 15 15 15 32 33 46 54 64 68 72 68 72 79 85 84 80 88 88 93 94 95
25 20 22 26 25 18 21 19 24 27 36 38 34 30 20 14 15 14 15 17 18 16 15 16 16 15 32 34 47 52 64 67 70 69 72 77 82 75 77 80 83 89 91 98
19 15 17 18 20 21 23 28 26 31 36 52 37 25 24 21 30 30 24 24 29 20 16 15 16 13 25 35 48 53 64 66 68 70 76 77 72 67 72 77 85 92 97 94
22 23 19 19 28 24 30 37 42 40 36 46 48 59 28 37 36 29 29 38 41 45 51 50 34 14 16 38 50 56 61 63 66 69 68 68 62 64 69 80 91 93 99 100
22 24 16 21 30 30 29 36 48 46 51 42 35 84 47 34 41 50 49 50 50 54 61 61 59 71 24 42 53 57 58 58 64 68 64 65 68 67 73 80 89 98 100 99
31 24 21 20 21 24 29 34 26 43 38 46 34 43 65 65 49 50 54 55 60 64 67 68 69 74 26 42 56 58 56 58 61 65 65 65 66 68 78 81 85 91 96 100
36 50 20 22 24 24 27 26 59 80 70 52 29 38 86 83 73 59 58 62 67 70 73 76 80 84 59 54 68 62 60 61 63 65 65 64 68 65 74 79 87 92 94 97
37 51 54 34 48 38 31 40 38 49 54 69 84 95 92 80 71 64 59 62 73 78 81 80 84 86 92 79 85 81 78 74 66 70 66 68 67 71 79 84 84 84 90 95
37 87 75 42 23 24 25 27 38 68 55 54 59 66 71 57 56 57 61 64 73 77 80 81 82 86 93 98 95 90 86 86 79 76 76 72 72 81 84 84 83 85 90 94
40 58 65 43 29 22 34 31 48 58 65 71 86 67 66 60 52 60 60 67 73 78 80 82 83 86 90 95 98 100 99 91 84 82 79 76 74 76 81 82 83 85 88 87
51 47 61 72 57 59 72 69 52 43 77 60 56 57 45 61 54 57 66 72 77 80 83 84 87 87 88 93 97 100 100 100 97 97 94 95 94 94 94 87 88 89 91 87
41 55 45 51 41 38 54 84 60 61 74 60 44 34 57 62 63 64 65 69 77 82 85 87 89 89 89 91 95 99 100 100 100 100 100 100 100 100 100 100 100 100 100 100
67 65 46 48 39 38 52 44 57 67 86 73 62 36 71 77 59 66 70 72 80 85 86 86 86 85 90 94 96 98 99 100 98 99 100 100 100 100 100 100 100 100 100 100
57 88 74 61 37 44 68 39 35 39 53 37 49 70 60 83 90 87 80 81 88 94 94 97 95 91 93 98 99 100 100 95 98 98 99 100 100 100 100 100 100 100 100 100
59 64 70 76 59 76 38 23 24 28 52 67 49 60 72 91 95 95 91 91 94 95 98 99 100 98 97 99 98 100 100 100 98 96 96 98 100 100 100 100 99 100 100 100
40 56 82 84 74 71 33 27 29 34 93 59 55 53 70 80 80 96 95 98 98 100 100 100 99 99 100 97 96 98 99 100 100 100 100 96 96 97 99 99 100 100 100 96
31 43 82 72 94 95 99 54 30 29 97 69 58 68 71 72 95 98 94 96 98 99 99 99 100 99 98 100 98 99 98 99 100 99 100 99 99 94 93 92 92 92 92 96
50 69 80 86 94 98 82 59 33 47 97 72 67 75 86 94 96 96 97 98 99 98 99 99 99 100 100 99 97 100 99 99 99 98 98 99 100 100 94 91 89 89 92 93
54 68 72 74 94 94 73 61 80 95 82 72 72 77 86 87 90 94 97 98 100 99 98 99 99 99 100 100 98 98 99 98 97 99 98 98 99 100 100 97 97 93 93 95
92 84 97 93 99 93 77 88 82 77 86 82 78 76 77 85 91 91 94 96 97 100 95 99 98 86 68 77 85 84 97 99 99 98 97 97 99 99 98 100 100 100 99 95
74 57 93 98 91 85 85 78 80 81 82 76 77 82 91 92 93 95 94 96 96 98 97 89 75 67 67 65 64 64 66 70 74 82 85 91 98 99 97 96 97 99 100 99
78 65 84 96 95 86 78 97 81 86 82 91 90 87 89 88 93 92 94 94 96 97 98 98 95 92 90 90 96 88 71 73 76 80 83 87 91 94 99 100 99 100 100 99
82 96 91 95 95 93 97 94 81 90 98 99 82 87 86 84 90 93 94 95 95 97 97 97 97 97 95 96 98 98 98 84 81 84 90 85 81 84 90 97 100 100 100 100

GFSCGP_925_rhum_087.txt.gz
RH
28 35 39 31 29 27 27 26 28 25 21 20 20 20 18 14 14 13 14 13 12 12 14 15 14 12 11 11 51 77 83 86 77 92 94 92 88 91 100 86 80 77 80 88
32 39 28 24 23 25 26 28 28 23 19 20 21 22 21 20 19 17 16 15 14 12 12 17 16 15 14 17 58 81 84 85 86 92 91 93 88 90 91 91 81 77 86 89
39 30 23 24 25 27 29 31 29 26 23 21 24 26 28 22 20 16 13 14 16 13 15 13 18 19 18 39 70 85 87 84 86 88 85 85 85 89 92 91 80 79 82 92
31 24 24 24 29 27 34 26 26 24 30 48 33 57 35 27 22 16 28 20 15 14 12 17 18 20 43 66 77 83 84 81 83 82 79 88 95 97 94 84 82 86 92 96
34 28 27 28 27 24 30 25 28 31 37 45 40 50 38 29 25 18 62 50 26 21 24 21 19 18 38 61 76 80 82 81 80 77 75 80 84 85 82 80 84 93 98 96
26 20 21 24 20 22 25 34 39 40 42 57 42 55 55 41 32 50 67 64 64 63 67 65 63 67 51 58 71 77 81 80 76 74 76 80 81 83 80 85 93 94 90 96
32 27 22 18 26 25 30 43 72 61 62 60 38 49 61 79 73 65 67 67 71 70 70 72 78 81 80 76 67 77 78 79 77 72 76 79 77 79 78 87 93 95 95 96
23 30 20 22 26 36 40 46 73 73 70 59 37 52 69 87 67 57 62 63 72 75 76 78 81 84 87 79 68 73 78 78 77 75 75 73 75 75 75 80 85 86 82 98
59 44 32 24 26 31 40 46 38 54 51 62 43 33 67 70 74 72 60 64 74 77 80 81 80 82 92 72 67 76 76 76 79 74 77 79 73 71 75 74 80 82 88 99
43 68 40 33 31 30 33 34 69 85 91 81 46 76 98 84 69 72 72 72 78 79 80 79 82 86 94 99 94 88 74 77 78 74 72 71 66 65 75 81 86 87 93 98
30 65 63 45 44 45 42 46 47 59 74 87 86 87 88 86 76 76 74 74 82 81 83 82 83 87 93 98 100 100 90 83 77 72 69 72 68 65 76 80 86 90 91 98
49 69 67 52 37 32 43 50 55 70 68 73 77 90 77 76 75 64 72 73 78 79 81 81 82 84 90 95 98 100 100 93 80 78 75 72 66 65 75 81 88 86 88 93
55 69 86 48 38 50 69 73 79 89 82 96 90 80 78 75 67 68 79 81 81 83 82 83 83 86 89 94 97 99 100 100 94 84 80 79 77 79 84 86 86 86 90 89
46 63 72 81 64 51 88 72 57 86 99 97 90 65 61 66 82 80 80 80 81 84 84 84 87 87 90 94 96 99 100 100 100 98 95 95 98 95 91 91 94 95 95 100
58 75 61 53 44 42 44 70 52 72 86 98 86 77 89 83 83 83 72 75 82 86 86 86 88 88 90 94 97 99 100 100 100 100 100 100 100 100 98 98 99 100 100 100
72 83 80 69 56 54 44 38 39 49 72 79 84 97 84 82 76 76 76 80 90 92 92 89 86 87 91 95 97 99 100 100 100 100 100 100 99 100 100 100 100 100 100 100
63 89 85 68 56 61 68 52 46 54 62 69 88 95 80 93 94 93 90 89 94 95 94 95 96 95 97 100 100 100 100 100 100 100 100 100 100 100 100 100 100 100 100 100
63 74 84 89 73 93 42 42 48 80 89 86 86 89 92 95 96 95 95 95 95 95 97 97 99 98 99 99 100 98 100 100 100 100 100 100 100 100 100 99 100 100 100 100
47 70 89 89 96 71 52 93 96 78 99 69 73 72 88 90 89 96 92 93 98 100 100 99 99 99 99 99 99 100 99 100 100 100 100 100 100 100 100 100 100 100 100 100
69 73 82 89 95 94 98 94 78 87 99 76 74 81 88 82 82 98 92 94 96 99 100 100 99 99 100 99 98 100 100 100 100 100 100 100 100 100 100 100 100 100 97 99
78 80 81 87 92 89 99 87 67 86 98 77 76 82 88 96 94 96 97 99 99 99 100 100 99 100 99 99 98 99 99 100 99 99 99 100 100 100 98 100 98 96 97 99
71 80 87 82 94 95 84 76 87 99 82 76 78 82 87 90 93 96 96 97 99 99 98 99 100 99 99 99 99 100 99 99 99 98 98 98 98 99 100 98 99 99 99 98
98 100 98 96 98 100 91 95 97 85 90 84 81 79 82 91 96 96 97 97 98 99 99 99 98 96 97 100 97 98 100 97 97 96 97 97 97 98 97 98 98 99 97 99
81 68 99 97 95 93 96 96 95 97 93 85 82 86 90 96 96 97 96 96 96 98 98 99 95 91 98 98 100 93 89 94 98 99 96 96 96 96 96 97 97 96 97 97
86 77 95 99 99 92 92 99 100 98 92 94 90 85 90 92 97 93 95 95 97 98 98 98 98 97 98 98 100 100 88 87 86 87 90 94 97 99 100 99 98 100 98 95
90 97 92 97 96 94 100 100 98 94 98 93 85 90 91 90 94 94 95 96 96 97 97 97 98 97 97 98 99 99 96 92 96 100 94 88 88 92 96 98 99 100 100 100

GFSCGP_925_rhum_090.txt.gz
RH
29 36 42 34 34 31 33 36 37 29 23 25 24 24 20 18 20 20 20 18 16 14 13 12 12 11 14 14 17 56 83 94 97 97 96 93 94 94 94 89 90 88 86 89
37 43 32 28 28 31 32 36 35 28 24 23 23 23 20 20 20 19 19 21 18 16 14 13 12 13 16 17 27 75 82 88 92 87 91 87 90 85 80 94 92 90 89 80
45 36 28 30 31 34 34 36 36 34 29 26 28 31 29 26 27 24 22 28 57 57 25 15 13 16 15 22 64 82 87 86 93 92 96 90 90 88 88 94 95 93 89 91
37 28 31 33 34 29 36 30 31 34 36 42 35 55 34 32 28 25 25 71 69 69 70 38 45 50 49 29 50 80 87 92 95 92 93 87 90 94 94 98 97 92 94 94
37 29 29 30 30 26 31 29 33 34 43 48 39 54 34 44 83 80 72 72 74 72 70 76 80 80 79 60 70 81 92 97 99 92 87 91 93 89 93 94 93 84 80 89
30 23 24 27 23 24 25 32 41 42 51 64 42 50 57 87 89 72 73 74 78 77 75 75 79 82 84 80 84 87 92 98 98 93 91 88 93 92 94 93 89 86 90 95
34 32 26 24 28 24 28 48 70 75 69 72 38 51 53 81 74 70 72 83 82 81 79 80 79 84 88 96 88 89 92 94 94 91 90 88 82 86 84 88 89 100 100 100
36 40 26 34 31 32 41 47 73 82 70 47 41 60 76 74 67 64 79 78 81 85 79 80 80 83 89 96 81 91 91 92 93 90 92 84 79 83 82 81 86 99 97 84
57 60 36 38 38 31 42 55 40 61 54 73 56 72 72 65 66 74 85 81 81 79 80 79 81 84 91 97 100 93 90 90 93 92 86 79 77 77 80 80 84 88 85 84
39 50 51 42 36 36 40 43 56 82 81 84 59 53 78 75 72 68 81 87 82 79 79 78 81 86 93 98 100 100 95 90 93 92 85 82 80 74 74 77 87 88 83 89
44 60 52 36 47 49 48 58 71 67 79 83 87 80 83 80 76 78 77 82 86 84 82 81 82 86 93 97 99 100 100 99 97 94 87 82 84 82 74 79 83 79 84 98
56 65 78 48 37 34 37 67 88 99 90 81 80 68 71 75 71 76 82 79 82 84 82 81 81 84 90 94 97 100 100 100 98 97 88 80 75 77 82 83 78 81 90 97
45 64 77 38 38 55 63 53 59 81 95 98 95 78 70 77 78 77 81 85 83 83 83 82 82 85 88 93 97 99 100 100 100 98 91 82 82 82 79 75 80 90 92 99
50 64 62 73 60 58 62 46 42 68 97 94 84 92 77 86 91 86 83 86 84 84 86 84 86 87 89 92 96 98 100 100 100 100 100 94 90 92 94 93 95 100 100 100
59 73 65 66 61 57 59 58 47 48 59 94 83 93 95 90 88 84 77 78 84 88 91 94 90 90 91 94 95 99 100 100 100 100 100 100 100 97 98 99 100 100 100 100
69 76 65 52 51 53 60 60 51 44 41 49 61 84 94 96 81 84 84 85 90 91 94 94 95 95 95 97 98 99 100 100 100 100 100 100 100 100 100 100 100 100 100 100
67 79 89 65 58 64 70 68 53 41 53 72 84 94 95 98 95 96 93 89 92 94 95 95 95 95 98 99 100 100 100 100 100 100 100 100 100 100 100 100 100 100 100 100
78 79 85 87 74 98 60 80 67 91 98 98 98 96 94 95 94 91 90 95 96 96 98 98 97 98 100 100 100 100 100 100 100 100 100 100 100 100 100 100 100 100 100 99
54 67 95 97 89 61 52 95 97 95 99 97 98 87 94 88 83 95 89 91 98 100 100 99 100 100 100 100 99 100 100 100 100 100 100 100 98 99 100 100 100 100 100 100
68 63 92 93 95 97 96 84 86 100 97 100 88 85 86 90 98 95 93 94 99 99 100 99 100 100 100 100 98 99 99 99 100 100 100 100 100 99 96 99 100 100 99 100
90 95 91 92 93 86 96 96 98 96 98 85 81 83 84 92 92 96 98 99 99 99 99 100 99 100 100 99 97 99 99 99 99 98 100 100 100 100 99 98 100 98 100 96
91 94 93 92 96 95 87 79 94 100 98 80 81 82 84 92 94 97 97 98 98 98 97 98 99 100 100 98 98 99 98 98 98 97 97 98 99 98 99 98 97 98 97 98
96 98 98 96 97 100 99 100 100 100 95 93 88 89 86 90 96 97 97 97 98 98 96 99 95 95 100 100 98 99 98 97 97 96 97 97 97 98 98 97 97 98 96 96
76 94 98 96 96 94 99 100 97 96 91 87 85 90 90 96 96 97 96 96 96 99 98 96 92 95 98 99 99 92 93 97 96 96 96 97 96 96 97 96 96 96 96 97
85 82 94 96 96 94 93 97 97 91 91 90 90 87 93 93 97 94 95 96 98 98 99 99 99 99 100 98 98 98 98 95 95 96 96 96 98 98 98 97 97 98 96 95
89 95 97 100 89 94 99 95 93 96 92 86 80 88 90 92 96 95 97 97 97 98 98 98 99 98 100 98 97 97 98 97 97 93 89 90 93 95 96 97 100 100 99 99

GFSCGP_925_rhum_093.txt.gz
RH
27 33 39 31 33 31 34 39 42 35 29 29 30 28 24 21 22 23 20 20 20 23 34 40 22 13 13 13 15 18 73 86 100 100 100 100 98 94 88 95 92 89 91 94
40 43 31 32 31 33 35 39 39 33 28 31 32 30 25 23 24 23 24 38 73 69 66 65 67 45 16 15 15 23 66 79 94 100 100 95 96 98 90 93 92 88 92 94
48 38 33 34 36 38 38 40 38 39 32 31 31 33 28 25 32 64 71 72 72 75 73 71 71 79 83 66 24 35 63 79 88 100 99 92 100 100 99 96 87 82 94 93
44 32 35 39 39 37 46 33 34 38 39 47 32 52 33 30 77 71 70 75 78 77 74 72 77 79 84 86 80 46 65 81 95 100 98 93 92 92 93 100 88 87 97 98
36 31 38 40 38 34 39 34 34 35 42 52 46 56 37 61 76 75 64 66 79 78 76 78 73 73 83 91 98 69 77 91 98 100 95 93 88 87 83 98 99 99 100 99
33 24 25 28 25 27 25 33 40 47 54 67 40 53 56 90 87 76 64 74 81 80 78 74 72 77 82 90 97 88 86 96 99 100 97 90 87 92 93 99 100 100 100 100
35 33 27 25 30 28 29 40 59 61 71 70 44 54 53 85 74 72 71 85 81 83 81 75 76 80 84 88 96 98 96 96 100 99 100 90 89 86 86 99 100 100 100 100
45 42 38 39 40 41 39 43 62 68 77 50 40 63 54 74 70 70 81 81 78 81 80 77 78 82 87 91 97 100 97 97 98 100 98 96 90 92 84 88 95 95 98 100
48 56 32 40 30 39 40 50 38 50 53 69 57 56 74 73 64 71 82 83 86 83 82 78 78 83 90 94 98 100 100 100 100 99 100 100 97 87 88 87 82 91 99 98
38 40 45 31 36 40 38 47 71 90 92 86 64 59 69 69 68 71 89 90 87 81 78 76 78 84 90 95 99 100 100 96 100 100 98 100 95 88 81 82 88 84 83 89
49 50 47 26 46 46 43 48 71 81 83 91 86 79 74 69 75 86 85 88 90 84 81 78 79 83 90 95 98 99 100 99 100 99 100 98 94 90 84 83 83 85 87 89
48 65 76 43 38 38 42 78 82 97 93 86 95 85 82 86 80 79 83 82 83 82 82 80 79 82 89 93 97 98 100 100 100 94 99 99 92 86 85 82 85 87 89 91
41 61 65 32 42 47 54 47 47 60 84 92 94 78 69 78 80 82 88 87 84 85 86 84 84 86 90 93 96 98 100 100 100 100 96 100 99 95 88 87 88 93 95 98
50 61 56 67 50 59 68 59 55 62 95 90 84 74 70 81 93 91 84 82 84 87 87 89 89 90 93 96 97 98 100 100 100 100 100 100 100 98 95 99 100 100 98 99
60 68 67 65 65 55 56 57 54 62 58 73 58 67 57 97 96 100 79 78 82 87 88 91 89 92 96 97 98 98 99 100 100 100 100 98 100 100 100 100 100 100 100 100
71 75 63 61 45 44 58 57 55 56 54 52 45 48 95 96 95 100 90 83 88 92 95 95 91 94 96 97 98 99 100 100 100 100 100 100 99 100 100 100 100 100 100 100
67 80 81 64 56 66 67 67 89 56 46 56 62 64 97 99 94 95 92 93 94 95 96 96 96 96 97 99 100 99 100 100 100 100 100 100 98 100 100 100 100 100 100 100
79 77 83 89 67 96 58 87 98 89 91 94 94 97 95 92 94 91 90 92 96 98 97 96 97 98 99 100 100 100 100 100 100 100 100 99 98 98 99 99 100 100 100 100
58 73 95 94 96 66 59 94 98 98 99 100 100 97 92 94 79 91 89 92 98 100 99 99 99 100 100 100 100 99 99 98 99 100 100 100 99 98 97 99 100 99 99 100
70 62 78 95 99 96 90 84 79 100 96 96 95 93 93 88 97 94 93 97 98 99 99 99 100 100 100 100 99 100 99 98 100 100 100 100 100 98 100 99 98 98 98 100
91 94 89 92 96 86 95 94 98 97 98 94 87 88 86 89 95 97 98 98 98 98 97 97 99 100 100 100 96 100 100 100 100 98 98 98 97 98 99 100 100 100 100 96
95 94 92 87 96 95 90 86 94 99 97 94 86 92 91 92 94 96 96 97 97 98 97 97 98 99 100 96 97 100 100 100 99 97 96 98 99 98 97 97 97 97 97 97
97 98 97 96 96 99 98 98 98 99 96 92 89 91 85 91 97 97 97 97 98 99 99 95 96 97 100 100 93 99 100 97 95 94 96 96 97 97 97 96 96 97 97 97
81 91 97 97 96 96 98 96 96 93 93 93 92 88 88 96 96 97 96 96 96 98 98 98 95 96 98 99 100 100 100 94 91 95 97 96 96 96 96 96 96 96 96 97
82 83 94 97 96 94 95 97 94 94 93 94 93 93 94 93 97 93 94 95 97 99 97 97 99 100 100 100 99 99 98 94 96 97 96 95 96 96 99 97 96 96 97 96
87 96 96 96 92 92 96 94 96 90 93 94 87 88 92 90 95 94 96 97 97 98 98 98 98 99 100 100 99 99 100 98 91 86 91 94 97 98 97 98 99 96 97 96

GFSCGP_925_rhum_096.txt.gz
RH
33 39 41 31 34 33 35 39 44 38 32 31 34 32 30 26 25 27 30 52 81 77 67 63 65 71 77 66 57 20 17 45 93 97 100 100 99 100 100 95 81 82 97 86
40 46 32 30 30 32 34 38 41 35 31 34 36 34 30 29 26 50 76 78 80 79 70 65 67 74 80 84 79 68 26 35 84 93 98 99 100 100 100 100 100 82 91 87
49 37 34 35 38 40 41 42 41 40 34 33 36 42 29 25 56 68 68 70 73 80 78 74 71 74 75 82 89 88 76 57 71 93 100 99 100 99 99 100 99 99 97 88
47 38 38 42 43 42 49 39 38 41 44 52 32 54 28 48 59 71 66 67 84 82 78 75 75 73 74 80 89 92 95 82 89 99 96 97 91 90 96 100 96 92 92 97
46 36 45 45 41 38 45 38 42 42 47 54 46 53 48 65 68 69 67 75 89 84 84 80 72 72 76 82 89 94 97 94 91 100 98 99 94 90 99 88 32 42 99 86
36 26 29 34 31 35 28 34 41 52 56 61 47 51 52 51 73 73 68 79 75 78 74 73 70 74 79 85 92 95 99 100 96 96 99 100 93 95 100 100 96 100 100 83
36 33 27 28 30 30 32 39 53 55 68 61 48 56 50 52 69 74 79 84 84 80 78 76 74 76 81 86 93 97 99 99 99 92 97 100 94 94 95 100 100 99 100 99
46 42 41 40 41 43 43 42 58 64 71 60 41 60 51 63 66 74 85 84 82 83 77 77 80 79 83 88 94 98 100 100 97 93 96 99 97 94 89 96 99 100 100 100
58 56 38 32 30 41 45 51 46 54 58 65 55 50 48 73 75 90 87 84 86 84 81 78 80 84 85 91 96 99 100 100 100 99 98 100 93 92 93 97 99 100 100 99
39 32 47 32 35 34 36 44 75 86 86 75 63 59 66 73 79 90 89 91 88 82 80 79 77 82 87 93 96 99 100 100 100 100 100 100 100 95 93 91 100 100 100 100
46 40 41 29 41 39 37 53 77 81 88 97 93 82 91 96 95 93 86 86 87 86 84 81 82 83 88 93 96 98 100 100 100 100 99 99 100 99 98 95 100 95 88 97
48 64 61 42 42 46 44 82 75 93 92 88 94 85 86 88 89 86 88 84 82 83 82 80 80 82 90 93 96 97 99 100 100 100 100 100 100 91 75 100 95 90 81 90
40 61 49 34 40 38 57 52 60 68 83 92 96 72 76 86 92 92 94 93 86 81 83 82 81 84 90 95 97 97 98 100 100 100 100 100 96 99 99 97 91 91 96 100
50 60 44 39 38 64 66 62 59 73 98 80 58 55 46 71 92 93 95 96 92 83 86 86 87 88 91 95 98 98 98 100 100 100 100 100 100 100 100 100 100 100 100 100
59 63 66 62 64 58 60 50 45 61 59 83 39 48 44 68 87 96 96 94 91 89 93 92 91 91 95 96 98 98 99 100 100 100 100 100 100 100 100 100 100 100 100 100
69 78 63 67 58 54 51 52 57 59 59 61 57 58 55 91 90 91 93 91 92 92 94 93 88 91 96 97 98 98 99 100 100 100 100 100 99 97 99 99 100 100 100 100
63 82 78 66 58 52 44 54 86 87 78 85 74 56 82 93 88 92 91 94 96 92 95 95 96 96 97 99 100 99 100 99 100 100 100 100 99 100 94 97 100 100 100 100
80 73 80 82 63 64 67 84 86 92 90 92 92 84 85 87 93 95 96 94 96 92 95 96 96 96 99 100 100 100 100 100 100 100 100 100 100 100 96 96 99 100 100 100
63 80 93 88 96 63 68 88 97 98 87 97 97 96 96 95 90 95 91 90 96 99 97 98 100 99 100 100 100 99 99 99 98 100 100 100 99 100 98 99 98 99 100 100
71 66 85 91 97 99 93 81 76 94 96 95 96 96 96 96 97 95 93 92 96 98 100 99 100 99 100 100 100 99 98 98 98 99 100 99 100 100 96 98 100 99 100 99
88 93 91 92 96 90 91 85 89 98 97 95 96 96 99 94 96 98 94 96 98 98 99 97 99 99 99 100 100 100 100 100 100 97 97 99 100 100 98 98 96 100 99 99
96 95 94 86 97 95 89 75 89 98 97 96 96 95 93 94 94 96 96 96 96 96 97 97 98 98 99 99 99 99 100 100 97 96 97 100 100 98 99 99 99 98 97 98
96 98 97 95 98 96 96 97 98 97 96 96 94 92 87 91 95 96 96 96 96 97 98 99 98 98 98 99 100 98 100 96 94 94 100 98 95 96 95 93 96 99 96 98
88 94 97 97 97 96 97 95 95 95 95 95 92 90 89 95 96 96 97 96 96 98 98 97 96 96 98 98 98 99 99 96 95 97 100 100 100 98 96 98 97 96 97 98
81 86 94 97 96 94 95 96 96 96 94 90 91 89 92 91 96 94 96 97 98 99 99 99 99 99 100 100 100 100 99 83 90 94 95 97 100 100 100 100 100 100 99 96
83 97 99 97 94 91 97 97 96 93 92 89 84 88 92 90 95 93 95 97 98 99 98 97 98 97 98 99 100 98 98 97 93 86 86 92 93 96 100 100 100 100 99 99

GFSCGP_925_rhum_099.txt.gz
RH
32 36 39 30 29 28 34 36 35 31 26 26 27 27 25 23 24 23 27 59 58 57 56 56 58 61 68 72 74 78 79 66 42 84 93 92 98 99 100 94 96 100 96 100
34 40 31 28 29 29 30 33 30 28 27 30 29 30 26 24 24 27 56 56 60 63 57 54 58 63 69 71 75 79 83 81 72 64 82 83 88 98 99 100 100 99 92 100
35 33 30 30 30 32 33 33 38 35 32 30 33 30 27 24 49 64 59 57 66 66 62 60 61 66 68 71 76 79 86 87 86 82 79 86 88 97 100 100 100 100 96 100
42 32 34 33 35 33 40 34 34 36 39 38 31 35 29 32 40 58 55 65 65 61 60 59 63 65 68 72 78 83 88 92 89 91 82 82 83 84 94 97 100 100 100 99
49 41 42 44 37 36 38 35 37 38 42 43 39 38 34 41 50 49 59 66 66 64 62 63 63 66 70 76 81 88 91 92 95 99 85 85 85 84 84 94 100 100 100 97
36 29 35 36 34 34 31 37 41 46 47 50 36 34 31 30 44 52 60 72 69 67 64 62 64 71 76 79 85 91 95 96 96 100 88 88 85 85 93 94 100 100 98 72
35 32 27 28 30 33 32 36 39 46 55 41 39 43 28 30 52 61 75 72 71 69 68 66 66 72 82 81 88 95 97 98 97 100 86 92 86 87 93 92 94 91 88 86
40 46 40 31 37 36 37 34 35 46 49 43 44 46 36 51 70 76 72 72 72 70 68 67 69 74 84 86 91 97 98 98 99 99 95 92 96 95 96 94 81 84 86 90
50 54 42 31 30 38 44 43 45 47 52 48 36 38 46 64 86 76 76 75 78 73 72 71 69 75 85 91 94 98 98 98 100 100 97 92 99 99 99 100 99 90 97 98
38 41 44 32 34 24 41 45 67 69 55 45 44 48 50 83 90 78 78 81 77 71 70 68 68 76 84 94 96 98 99 99 100 100 99 100 99 97 99 100 99 99 100 98
46 36 38 32 36 34 23 36 72 66 73 69 56 57 77 81 82 80 80 77 76 73 71 70 71 77 85 90 96 96 98 99 100 100 100 100 100 100 100 99 96 96 97 65
51 48 37 43 43 40 50 70 68 54 67 80 83 67 72 80 78 76 78 75 74 72 72 71 73 79 87 91 95 96 98 99 100 100 100 100 100 100 100 99 100 99 66 84
42 43 32 40 46 40 48 49 49 52 64 65 73 56 77 81 77 81 88 84 77 76 77 73 74 80 88 93 96 97 98 99 100 100 100 100 100 100 100 100 100 100 99 92
47 50 33 28 47 51 52 54 51 58 78 59 50 35 26 28 49 70 82 82 78 77 81 77 78 83 89 92 95 97 97 100 100 100 100 100 100 100 100 100 100 100 95 98
54 54 54 48 58 56 54 48 44 44 40 51 22 32 32 31 42 83 81 76 75 78 81 82 84 85 88 90 94 97 98 100 100 100 100 100 100 100 100 100 99 100 100 100
60 74 60 60 52 53 52 43 40 38 42 49 54 63 47 47 80 88 88 88 89 82 84 84 81 81 90 93 95 98 99 98 99 100 100 100 99 100 98 100 95 98 100 100
56 67 58 46 51 44 42 45 42 59 65 70 84 66 59 90 87 87 88 88 90 88 85 86 86 87 93 98 99 98 99 100 97 100 100 100 100 100 100 96 100 97 99 100
66 62 63 53 58 45 78 74 78 83 75 85 82 87 74 78 90 89 93 94 94 90 89 87 89 91 96 98 99 96 98 99 99 98 100 100 100 100 100 96 96 95 96 100
55 61 72 69 69 50 81 86 91 91 84 92 91 94 94 92 87 93 95 95 94 93 89 95 96 97 99 100 100 97 95 96 97 98 100 100 100 100 100 100 99 97 96 100
61 58 67 82 86 77 88 72 68 88 90 86 88 90 89 94 92 91 93 93 92 94 96 94 98 98 97 100 100 97 97 97 99 100 99 99 100 100 100 100 99 98 97 99
80 80 82 82 84 79 89 82 77 92 91 88 92 94 98 92 94 95 94 92 94 94 94 96 94 96 99 98 99 99 97 98 100 100 100 100 100 98 98 98 98 97 98 98
85 82 80 75 87 90 81 68 81 93 95 94 94 94 94 92 93 93 93 93 93 92 90 91 92 94 96 97 92 96 98 100 100 100 100 100 100 100 100 97 98 97 97 98
90 92 90 91 90 92 90 90 94 95 93 95 93 94 92 92 93 92 93 92 93 94 90 90 87 85 94 98 98 93 99 100 100 100 100 100 100 100 100 100 100 98 99 98
82 87 91 93 92 92 94 94 92 93 92 93 91 91 92 92 92 92 91 92 92 95 94 89 84 84 93 98 100 100 93 85 90 91 94 100 100 100 100 100 100 100 97 96
74 77 88 92 93 93 94 94 92 94 92 92 93 91 89 86 91 84 86 89 92 95 98 94 92 92 98 96 98 100 100 92 75 82 90 92 94 95 96 100 100 100 100 100
70 87 87 86 86 84 94 95 94 93 94 93 85 84 82 82 87 87 88 91 92 94 97 97 98 99 100 99 100 95 99 93 90 83 77 92 92 92 91 89 96 99 99 100

GFSCGP_925_rhum_105.txt.gz
RH
28 37 41 34 32 29 30 31 32 19 14 17 18 16 13 12 11 10 12 13 13 17 23 26 33 36 40 41 44 48 51 53 52 51 49 43 36 40 50 56 57 63 74 87
34 52 33 29 29 34 35 32 33 27 20 17 18 16 12 11 10 12 12 13 17 24 24 28 32 36 42 46 51 54 55 57 58 56 54 54 50 41 42 48 58 63 72 85
32 35 33 36 44 65 58 47 33 42 35 19 18 17 15 13 12 12 12 15 24 27 30 30 32 36 42 45 54 58 61 65 66 66 65 61 58 56 54 56 56 61 70 83
34 28 36 44 54 57 76 43 32 38 32 30 17 29 17 14 15 15 20 27 28 32 32 32 34 37 41 44 54 61 66 70 68 70 73 74 68 53 36 42 50 63 67 79
48 43 44 45 49 39 63 40 45 41 30 26 25 27 19 14 17 21 25 28 34 36 36 36 36 39 40 46 54 62 69 71 73 78 83 86 85 72 58 48 45 55 71 80
70 63 54 39 35 47 59 63 42 37 32 46 42 30 22 19 15 20 27 34 40 39 37 36 37 40 42 49 58 66 71 74 79 87 91 92 93 90 76 52 50 53 75 88
68 63 63 47 61 51 65 87 81 77 70 61 25 28 29 19 14 21 36 39 42 40 39 38 38 40 46 53 61 71 77 80 83 92 97 98 99 98 92 74 59 54 83 98
87 84 60 50 54 64 59 70 64 75 66 50 30 39 51 36 37 42 42 43 42 40 39 39 40 45 50 56 65 77 81 82 86 95 99 100 100 100 97 83 65 63 76 93
53 44 26 27 28 31 63 57 36 46 42 44 52 49 56 50 51 45 45 42 42 39 40 42 42 48 53 60 67 80 82 84 90 98 100 100 100 100 97 84 65 72 81 88
49 59 28 25 23 25 33 36 47 51 68 46 34 40 50 65 51 42 40 41 38 37 40 43 43 48 54 61 66 78 81 88 95 98 100 100 100 100 95 72 68 73 79 87
38 40 44 29 30 36 30 62 53 59 53 54 48 60 63 59 44 42 40 39 38 40 43 43 44 49 54 61 66 73 84 90 96 99 100 100 100 100 100 88 78 74 75 78
38 44 50 33 31 26 26 27 41 75 53 65 44 54 51 43 42 34 34 36 37 42 44 45 45 49 55 62 67 71 85 91 96 100 100 100 100 100 100 100 99 84 85 80
35 46 43 37 32 26 26 24 28 32 37 36 45 48 44 42 33 23 18 36 38 44 47 48 47 50 56 63 68 72 85 96 98 99 100 100 100 100 100 100 100 100 92 98
40 34 36 42 37 29 36 28 26 32 51 32 26 18 38 18 19 28 39 43 42 50 55 54 53 53 59 64 69 73 84 97 100 99 100 100 100 100 100 100 99 100 100 100
36 43 30 24 25 24 28 28 27 27 26 30 19 16 14 34 40 51 47 49 52 59 59 59 59 60 64 69 73 76 84 92 100 99 100 100 99 100 100 100 100 98 100 100
34 36 35 31 25 24 24 19 18 19 18 19 17 17 42 41 44 65 64 62 63 66 65 64 62 66 71 76 78 79 83 91 99 100 100 100 100 100 100 100 100 96 100 99
38 46 36 24 26 23 22 24 20 18 14 22 32 46 45 62 82 86 79 70 71 72 72 75 70 72 80 84 80 82 82 88 96 100 99 100 100 100 100 100 100 98 100 95
35 36 32 27 30 34 52 47 49 54 44 52 51 51 54 75 77 74 78 81 76 76 80 82 81 82 90 95 87 84 83 86 94 98 99 100 99 99 99 100 100 100 100 100
23 30 42 54 38 40 48 55 86 84 79 80 67 59 57 68 70 81 73 78 85 88 94 98 92 94 97 99 92 87 88 88 93 99 99 99 99 100 100 100 100 100 98 100
34 37 50 47 56 51 86 52 44 67 75 65 72 71 64 69 87 89 81 87 95 97 97 94 98 98 99 98 96 92 92 94 98 100 99 99 100 100 100 100 100 100 99 98
56 56 57 50 51 85 71 50 55 92 92 74 77 81 80 93 86 93 92 94 97 96 96 99 94 98 98 96 91 91 93 97 99 99 100 100 100 100 100 100 100 99 99 98
56 54 55 43 62 83 58 56 80 89 78 74 82 88 92 87 84 90 91 93 94 95 94 94 95 91 79 75 76 77 85 88 90 93 96 98 100 100 100 100 100 99 99 99
81 93 88 83 90 80 69 82 78 72 75 88 84 88 84 85 89 92 92 92 94 95 88 73 68 68 69 72 72 72 71 65 75 81 88 91 94 96 99 97 99 99 95 96
62 59 79 79 82 76 78 69 74 71 79 77 77 86 86 91 92 93 92 92 91 92 75 67 64 64 64 64 65 62 62 56 57 67 72 75 80 88 92 95 95 97 99 95
52 57 69 88 78 71 71 72 72 78 80 87 81 75 79 84 85 76 82 87 88 85 79 73 69 65 62 62 67 64 61 58 53 55 61 64 73 77 89 96 95 96 100 100
48 92 74 85 65 75 81 75 71 78 81 76 67 69 68 70 76 75 77 75 78 84 83 81 81 80 76 72 76 75 71 66 63 59 58 66 63 63 64 72 95 97 80 88

GFSCGP_925_rhum_108.txt.gz
RH
29 38 43 30 26 29 30 32 35 28 23 28 30 29 17 14 14 14 14 12 12 13 24 27 32 37 40 44 49 53 54 57 61 59 57 54 52 50 42 43 57 61 65 78
31 32 24 22 25 30 34 42 45 40 30 29 35 45 43 15 14 13 12 12 13 15 24 29 32 36 41 45 52 54 57 61 65 65 68 68 67 66 63 60 53 58 57 67
36 28 21 24 33 36 34 38 46 48 38 34 39 55 44 23 14 11 11 11 13 24 29 30 31 37 40 45 51 56 60 64 67 67 70 70 69 67 62 56 46 48 60 58
35 26 27 26 33 33 45 35 40 47 56 81 44 83 47 25 19 13 12 15 26 30 30 31 34 37 39 47 52 58 63 66 66 72 78 82 82 79 77 74 67 50 58 61
42 34 38 38 32 27 43 56 62 73 77 66 61 65 44 24 28 22 22 28 35 36 35 35 36 38 41 48 56 63 69 70 74 78 83 88 90 88 85 82 77 70 60 63
48 51 56 50 41 37 57 72 67 70 72 94 58 53 61 42 26 18 26 40 39 37 38 34 36 40 45 51 59 68 74 77 77 80 86 92 95 95 94 92 88 81 71 59
50 56 47 46 51 38 55 91 92 92 92 68 36 53 60 37 47 24 55 46 40 40 40 38 40 44 49 54 61 69 76 78 79 83 90 95 98 99 99 98 96 91 84 75
56 61 46 46 49 50 53 78 74 90 85 57 41 90 73 70 55 61 67 56 40 41 41 41 42 47 50 56 63 72 77 80 82 88 93 98 100 100 100 100 99 98 89 80
50 49 36 40 41 42 75 91 57 67 71 94 74 56 56 70 61 65 71 57 40 39 40 43 41 47 52 58 63 72 81 84 86 90 96 99 100 100 100 100 100 100 95 85
60 57 45 39 35 35 50 46 97 94 88 87 46 56 84 68 64 52 54 44 38 36 38 40 42 48 54 60 64 70 80 86 91 93 96 98 100 100 100 100 100 100 92 84
59 43 53 43 39 31 36 41 80 97 55 78 60 96 95 92 82 56 42 38 40 40 42 43 45 49 56 60 66 72 80 90 96 97 95 99 100 100 100 100 100 99 99 75
44 43 55 44 25 24 28 35 70 98 94 90 82 77 84 88 63 36 32 35 38 41 44 45 47 51 57 62 66 73 82 88 96 98 97 98 100 100 100 100 100 100 100 98
40 52 54 63 42 27 31 33 30 40 41 45 52 50 82 54 32 35 40 39 44 47 48 50 51 55 60 65 70 75 84 90 95 98 98 98 100 100 100 100 100 100 99 98
40 40 46 63 60 34 36 27 24 30 60 44 36 45 56 36 34 47 46 45 50 52 54 56 58 59 64 69 73 76 82 89 95 98 99 99 100 100 100 100 100 100 100 98
39 51 37 33 24 23 28 24 22 25 25 42 29 20 46 52 58 56 51 51 54 58 58 62 64 64 70 75 78 78 84 90 94 97 99 100 100 100 100 100 100 100 100 100
44 60 46 42 26 23 24 17 18 20 20 18 16 21 54 61 63 68 64 63 64 63 65 66 67 70 78 82 82 84 88 94 97 99 99 100 100 100 100 100 100 100 100 98
45 52 42 40 28 23 26 26 18 20 17 25 29 54 48 72 79 81 75 70 72 72 71 72 75 79 85 97 96 93 92 96 99 100 99 100 100 100 100 100 100 100 100 100
42 40 36 33 31 34 49 44 42 49 63 56 52 52 63 74 76 77 73 74 75 74 79 79 86 90 96 98 99 97 91 95 98 98 99 100 100 100 100 99 99 98 99 100
26 34 38 43 37 47 45 53 81 77 87 70 64 57 68 72 73 87 72 75 87 90 94 98 99 99 98 98 96 98 94 95 95 99 100 100 100 100 100 99 99 99 98 99
24 27 52 50 54 49 78 46 43 62 82 66 70 72 65 76 90 93 87 85 91 95 98 98 98 98 98 99 97 97 93 94 98 100 100 99 99 100 100 100 100 100 100 100
49 51 56 52 47 87 68 46 49 85 89 79 74 82 83 88 91 91 78 88 95 94 98 98 98 99 99 98 98 98 90 96 94 95 97 99 100 100 100 100 100 99 99 99
49 52 54 48 53 73 60 54 76 87 74 79 76 84 90 90 84 82 86 92 93 97 98 98 98 97 86 70 66 69 78 74 80 85 93 95 91 98 98 99 99 100 98 97
84 92 87 89 91 76 71 83 77 77 78 81 77 77 76 82 82 86 92 93 97 98 99 90 64 60 60 62 61 60 57 56 62 73 80 86 93 88 89 92 94 96 96 97
57 57 80 79 76 75 73 70 66 70 73 72 74 76 79 91 91 94 95 96 96 91 70 62 58 59 62 65 66 65 60 55 56 63 66 68 74 96 88 88 90 92 97 96
46 49 69 88 80 76 68 70 73 74 71 72 70 73 79 83 93 85 84 86 88 87 78 73 72 70 69 70 76 72 71 66 62 63 68 70 69 69 86 96 94 92 90 92
51 88 70 84 67 77 81 70 70 75 77 72 66 70 70 72 78 77 83 80 81 84 83 84 84 85 84 83 88 96 83 81 76 74 72 75 77 77 76 76 92 100 96 85

GFSCGP_925_rhum_111.txt.gz
RH
44 57 63 53 48 43 41 41 39 33 32 39 43 42 45 37 36 34 20 16 16 33 41 45 45 44 48 50 52 56 60 64 66 68 69 68 69 64 56 53 55 52 66 70
51 57 42 37 37 36 34 38 44 38 32 38 43 50 40 35 37 35 30 17 18 39 42 46 48 46 51 54 57 60 65 67 68 75 75 78 79 75 71 65 54 52 51 52
52 41 32 32 33 32 32 42 43 42 36 41 48 52 45 34 31 31 26 15 17 39 42 46 47 56 55 58 62 66 68 70 74 75 79 81 81 81 84 80 70 63 69 68
45 34 38 38 38 34 44 36 58 65 74 86 64 85 52 42 38 33 34 23 41 46 43 44 48 56 61 63 64 67 72 75 77 78 82 87 91 92 91 92 89 84 69 74
49 42 43 59 48 48 56 63 69 72 79 76 68 86 55 40 39 34 42 39 47 46 44 48 51 55 60 62 67 70 76 79 80 82 86 90 92 94 94 94 95 94 91 83
46 53 58 60 49 46 59 70 65 70 82 95 61 66 59 47 46 58 54 47 46 45 46 48 50 55 59 64 69 74 80 81 82 86 89 94 94 95 96 97 97 97 98 97
56 58 54 52 64 51 76 79 94 93 97 86 38 64 64 47 53 63 68 72 50 47 51 53 54 57 63 68 73 76 82 84 86 89 91 96 99 99 100 99 98 98 98 99
70 72 48 52 60 60 74 75 87 94 92 87 64 92 74 77 88 86 80 76 61 50 48 54 56 62 64 70 76 79 82 87 90 94 96 97 99 100 100 100 100 100 100 100
68 55 42 41 45 53 73 91 57 86 74 90 73 65 68 83 92 90 77 69 58 48 50 53 58 62 66 70 76 81 83 92 94 97 98 98 98 100 100 100 100 100 100 100
58 78 44 44 48 49 61 57 95 96 93 89 59 74 97 98 100 95 81 56 55 59 52 54 58 63 67 69 73 82 85 89 94 97 98 99 100 100 100 100 100 100 100 100
61 64 53 47 62 61 59 68 78 88 97 96 85 99 100 100 99 95 82 59 53 53 56 57 60 64 69 72 74 82 86 91 95 97 99 100 100 100 100 100 100 100 100 100
62 66 69 55 44 42 39 53 61 97 92 98 98 99 92 84 88 79 52 54 55 56 58 59 62 66 70 75 77 80 86 92 96 97 99 100 100 100 100 100 100 100 100 100
78 99 83 56 58 51 47 39 62 66 83 79 78 92 77 83 60 51 58 57 56 58 62 64 66 70 74 77 78 82 88 94 96 97 99 100 100 100 100 100 100 100 100 100
49 56 57 67 73 64 48 37 38 54 80 64 52 82 83 60 63 61 62 60 60 63 65 67 69 72 78 79 83 85 90 94 98 98 100 100 100 100 100 100 100 100 100 100
55 67 48 42 50 34 30 30 30 37 40 57 42 74 83 78 77 70 64 62 64 68 68 68 69 74 80 82 90 89 93 96 98 99 100 100 100 100 100 100 100 100 100 100
52 82 52 59 39 28 30 24 21 22 23 23 55 90 73 73 71 77 71 71 74 72 72 71 72 77 84 89 96 98 99 99 99 100 100 100 100 100 100 99 100 100 100 100
59 69 64 81 45 37 36 46 40 48 62 56 75 79 72 79 83 89 82 80 83 80 76 79 85 90 94 100 100 100 98 98 99 100 99 99 100 100 100 100 99 100 99 100
59 59 66 65 40 55 62 49 54 75 76 66 63 72 76 87 87 86 83 85 86 83 87 88 96 99 100 98 99 97 96 98 99 99 100 99 100 100 100 100 100 100 99 99
40 57 62 72 68 61 56 64 80 81 90 78 79 81 85 84 84 94 84 83 93 98 96 100 100 99 98 99 98 98 98 98 96 98 100 100 99 100 100 100 100 99 99 99
32 43 75 72 80 80 85 58 59 68 96 79 82 81 90 85 94 97 89 87 97 99 98 100 98 98 98 98 99 98 99 98 98 98 91 97 98 98 100 100 98 98 99 98
58 67 71 79 84 90 72 54 55 88 88 80 80 93 89 95 98 97 93 98 100 99 99 97 97 98 98 97 95 96 90 89 86 96 89 80 88 88 83 91 97 100 95 97
67 76 82 75 84 97 75 69 81 92 86 84 90 91 95 94 95 95 97 98 98 98 98 98 98 98 91 78 70 68 72 60 72 78 88 85 80 88 86 80 80 93 98 93
83 87 96 95 99 84 75 89 85 80 90 86 90 90 88 93 95 95 97 97 98 98 98 92 75 68 73 75 76 76 69 65 66 72 77 86 86 84 90 91 91 81 86 95
75 73 93 92 83 81 80 75 79 80 83 80 78 82 84 94 96 97 96 96 96 93 79 72 72 74 79 86 96 89 85 75 75 77 82 82 85 90 91 95 96 96 90 91
70 70 85 96 85 79 80 78 79 79 76 81 84 85 91 91 94 91 94 95 94 90 89 89 90 90 92 92 95 98 92 84 84 87 83 84 85 85 90 98 99 98 96 91
75 83 91 93 82 82 91 82 73 80 77 80 82 88 86 88 92 90 93 89 90 92 89 93 95 96 88 92 92 96 94 91 82 94 90 82 85 84 85 82 89 100 96 85

GFSCGP_925_rhum_114.txt.gz
RH
48 60 67 55 58 52 51 54 55 46 34 39 39 39 39 35 36 34 32 32 31 52 54 59 62 63 65 64 62 63 60 65 62 67 67 66 72 65 60 58 59 57 57 58
59 70 53 47 50 54 56 59 54 37 33 37 42 47 40 36 34 31 32 31 49 53 54 60 67 71 74 71 68 67 67 68 70 74 78 81 77 72 72 70 64 63 64 62
65 51 42 46 49 51 49 50 44 43 54 45 51 60 43 33 36 32 30 30 43 57 58 62 68 76 76 76 72 70 71 74 77 78 80 82 80 82 80 75 73 68 71 72
56 43 45 45 46 44 54 55 59 64 70 74 63 80 46 38 38 36 34 55 64 64 58 62 68 76 78 78 73 76 77 80 82 79 84 91 96 96 92 95 95 90 84 78
58 45 50 51 46 49 60 61 66 70 80 89 68 93 46 37 42 39 61 77 80 76 72 64 68 74 76 76 78 78 78 76 82 88 89 93 99 99 97 96 98 98 98 97
52 50 49 50 50 49 65 65 64 75 87 99 58 72 70 54 58 63 73 76 76 70 63 62 66 72 77 79 79 84 85 81 87 92 93 95 96 98 98 97 98 99 99 98
58 61 59 56 67 58 68 72 89 88 86 87 56 67 63 93 94 80 83 86 80 68 70 66 68 72 76 82 81 81 89 90 90 94 97 97 96 99 100 99 99 99 100 100
78 73 67 58 60 68 77 72 89 90 93 89 58 88 99 95 94 93 84 84 86 77 71 67 68 71 74 82 83 85 87 92 92 95 97 99 99 100 100 100 100 100 100 100
72 66 43 56 54 53 77 86 59 86 87 96 71 74 76 96 100 99 100 96 96 89 75 75 74 74 74 80 86 86 90 93 96 96 100 100 100 100 100 100 100 100 100 100
59 66 51 47 50 53 63 64 93 96 96 96 70 92 94 100 100 100 100 100 100 93 84 77 74 74 76 80 83 87 91 95 98 99 100 99 100 100 100 100 100 100 100 100
63 66 66 56 63 70 73 72 81 81 94 97 95 96 98 100 94 97 99 96 80 68 67 69 74 78 80 79 82 87 92 96 98 98 98 98 98 99 100 100 100 100 100 100
81 78 92 60 53 50 52 61 74 94 88 97 94 97 95 86 83 74 74 75 73 73 70 69 73 76 79 81 84 88 95 98 99 99 98 98 98 98 99 100 100 100 100 100
87 100 97 90 64 53 60 51 55 66 91 93 90 89 91 86 72 59 66 65 65 67 71 73 71 77 78 84 86 91 97 99 100 99 98 99 99 99 99 100 100 100 100 100
84 100 99 85 69 61 57 46 57 74 96 76 70 87 83 91 73 67 68 70 69 70 70 70 73 72 80 87 89 94 98 99 100 98 99 100 99 100 99 99 100 100 100 100
83 91 74 56 55 53 49 29 36 55 57 68 58 84 94 82 80 76 70 67 71 75 72 71 75 75 84 86 93 97 98 99 100 98 99 100 100 99 98 100 100 100 100 100
68 96 94 91 55 39 31 26 24 23 40 77 78 95 76 76 73 77 72 74 77 74 76 76 75 78 83 86 92 95 98 100 100 99 100 100 100 100 100 100 100 100 100 100
81 96 96 94 75 69 64 38 52 65 66 67 82 76 78 85 83 81 84 80 80 82 81 85 86 90 95 99 99 99 98 100 100 100 100 100 100 100 100 100 100 99 98 99
74 86 86 87 78 95 66 63 60 76 80 73 82 80 77 85 86 88 84 84 86 83 88 88 95 98 98 98 98 100 100 100 94 96 99 100 99 100 98 98 99 96 98 98
57 85 96 83 72 71 62 66 80 77 92 81 84 88 91 91 82 95 83 86 95 95 98 98 98 98 99 99 100 100 100 99 96 93 92 93 90 90 97 100 100 100 98 99
58 56 77 82 70 88 81 64 62 61 89 83 84 85 91 86 95 95 92 91 97 100 98 98 99 98 99 100 96 99 99 95 98 96 92 86 94 88 86 84 98 94 89 91
56 70 62 75 83 89 73 62 60 71 80 86 91 95 92 95 96 96 96 98 99 98 98 98 99 100 100 96 93 83 79 82 82 97 89 84 87 92 91 87 80 86 90 91
62 69 80 78 92 92 77 69 77 89 90 94 95 94 97 96 96 97 97 97 98 99 98 96 98 96 90 87 85 86 83 74 77 81 92 89 86 93 91 94 91 91 93 90
77 78 90 93 91 91 86 93 90 84 91 91 93 93 91 94 95 96 97 98 100 100 96 74 76 82 90 92 96 97 89 83 77 81 87 90 89 90 93 97 97 91 92 95
83 75 96 90 91 89 91 86 81 81 90 87 85 85 86 95 97 97 98 98 98 88 83 80 80 87 95 95 89 92 90 88 84 82 84 86 89 91 94 96 98 86 84 94
78 74 91 96 92 85 88 84 84 84 83 86 84 84 90 92 95 93 96 97 97 95 92 88 90 96 97 94 93 81 82 88 91 90 85 87 90 90 92 99 99 89 80 94
80 89 91 91 81 82 91 86 79 87 87 89 90 91 86 87 93 93 96 95 94 95 85 80 77 84 91 90 91 89 72 75 82 87 93 84 83 81 84 85 88 95 77 76

GFSCGP_925_rhum_117.txt.gz
RH
49 59 68 56 61 54 54 59 64 53 44 47 45 41 36 33 39 38 34 33 40 74 69 71 74 76 76 76 73 71 63 62 50 43 49 57 64 58 55 60 66 66 65 61
62 76 54 50 53 59 61 67 67 54 45 44 48 47 40 37 39 36 35 38 66 70 72 73 78 79 80 82 83 83 83 80 78 74 73 68 70 73 69 66 65 72 74 74
75 59 52 55 59 62 62 67 64 60 55 52 56 60 41 33 33 32 34 35 58 70 75 76 74 80 83 85 85 83 85 82 83 79 73 68 63 64 71 71 72 78 83 88
62 49 50 53 58 58 71 49 55 63 66 80 58 77 43 42 53 62 75 83 77 74 72 73 77 82 84 84 82 79 83 85 83 81 85 93 98 99 99 95 92 89 93 94
62 49 60 61 52 47 56 60 58 66 77 84 82 85 72 66 81 91 86 84 89 86 82 79 81 80 81 85 88 85 82 82 85 89 92 95 96 97 98 98 99 98 98 93
55 48 48 52 49 51 64 62 66 83 86 98 65 68 77 94 97 89 83 79 79 81 77 75 82 87 88 82 84 87 88 89 88 89 94 97 96 98 99 99 100 99 100 99
60 62 56 54 64 68 64 68 96 93 96 90 59 75 95 95 95 95 96 96 96 93 94 90 76 78 84 87 88 86 93 96 97 96 98 97 98 99 100 100 100 100 100 100
78 69 74 63 58 75 78 74 87 91 91 86 68 80 97 96 90 90 94 96 97 100 98 97 96 82 79 83 88 91 93 96 100 100 99 99 100 100 100 100 100 100 100 100
77 71 51 61 57 58 76 85 61 86 89 97 76 96 98 96 95 93 96 95 98 98 100 100 100 98 86 85 88 91 95 97 99 100 100 100 99 99 100 100 100 100 100 100
58 68 52 54 54 56 63 63 87 93 91 92 76 86 95 99 100 100 100 100 100 97 98 95 99 99 98 93 92 91 97 100 99 99 99 99 100 100 100 100 100 100 100 100
58 65 62 62 68 77 74 81 78 81 90 92 95 88 88 98 96 98 99 98 97 96 93 90 92 92 90 94 96 97 99 99 98 100 99 100 100 100 99 100 100 100 100 100
72 82 86 68 53 55 59 65 84 92 94 90 95 90 75 89 86 86 80 85 88 88 90 89 90 86 83 87 91 98 100 98 98 98 99 100 98 100 100 99 100 100 100 100
85 92 99 90 83 75 92 64 64 76 82 94 95 82 86 80 84 72 72 71 71 69 71 71 72 76 83 87 94 97 97 98 100 95 99 100 98 98 99 98 100 100 100 100
78 92 84 75 76 74 94 74 62 73 98 87 86 86 93 93 74 74 76 75 76 74 71 71 74 77 81 86 91 95 97 98 99 100 100 100 100 100 100 100 100 100 100 100
83 94 96 90 84 91 94 82 73 68 71 80 64 88 84 86 76 76 74 73 73 73 73 75 77 82 86 89 92 94 98 100 100 100 100 100 100 100 100 100 100 100 100 100
81 90 90 89 73 62 75 47 28 48 56 64 72 91 76 74 75 85 81 77 75 75 76 77 76 85 90 94 99 99 99 98 99 100 100 100 100 100 100 100 100 100 100 100
88 96 97 88 87 96 97 63 35 67 68 76 87 78 81 88 87 88 86 77 87 77 79 76 81 89 95 100 99 99 98 93 89 92 92 86 87 91 94 98 99 100 100 100
92 95 98 95 95 95 75 68 64 74 80 82 86 86 80 88 90 92 87 88 89 90 85 78 89 86 97 99 99 97 97 96 92 93 97 92 84 82 78 81 91 92 95 100
74 89 96 95 92 78 71 74 80 72 86 82 89 89 89 90 88 94 83 89 95 96 100 100 98 99 100 100 100 97 98 97 93 96 97 99 88 88 81 81 91 94 95 99
73 75 88 94 94 94 75 65 62 57 74 83 90 91 91 87 97 96 90 95 99 100 98 100 98 95 94 97 94 96 96 98 100 94 91 93 96 90 89 91 92 91 92 96
95 96 91 84 84 84 74 64 59 66 69 86 88 90 91 96 95 95 96 99 95 98 99 97 95 98 98 96 89 90 87 95 94 96 88 81 86 92 90 92 92 94 97 96
74 88 90 73 87 83 74 66 74 86 96 92 95 95 93 96 96 96 96 97 98 98 98 96 95 96 95 91 91 95 92 82 81 85 90 91 83 93 92 84 85 96 97 95
77 78 81 80 83 92 91 95 92 84 93 96 97 94 88 92 94 94 96 97 98 97 88 83 86 92 94 94 94 99 95 80 80 82 87 90 92 90 97 91 87 97 95 95
84 74 93 88 94 96 98 90 86 86 92 93 91 90 86 94 93 96 96 96 95 85 82 81 88 94 96 90 90 94 86 86 85 85 86 88 94 94 100 93 84 92 96 94
78 74 90 96 94 91 90 92 90 93 87 87 86 84 89 91 95 92 95 98 98 94 87 88 93 95 97 92 83 79 82 83 86 86 81 84 84 88 93 95 86 82 82 83
79 91 91 88 81 82 89 92 86 91 90 87 89 90 86 87 94 93 98 98 96 89 79 86 92 94 93 93 82 76 73 78 82 85 80 86 90 87 90 90 78 84 82 82

GFSCGP_925_rhum_120.txt.gz
RH
53 70 78 66 61 54 56 55 60 57 48 56 56 48 42 38 40 43 40 41 52 86 80 82 84 84 82 80 80 80 72 71 69 64 59 54 56 59 60 60 63 65 67 68
68 81 62 53 59 60 63 69 73 62 51 48 52 54 46 44 44 65 83 72 83 85 79 76 81 83 83 84 81 83 88 85 80 82 83 79 74 70 70 68 70 71 76 81
80 56 56 58 61 65 68 71 70 70 56 55 64 61 50 51 73 79 86 82 81 84 82 76 77 86 89 89 89 85 86 90 91 89 81 69 74 77 78 74 73 78 83 89
68 57 55 65 66 66 80 60 62 62 68 79 57 84 71 74 81 77 89 86 87 84 77 76 81 83 86 89 92 92 95 80 94 96 98 95 97 95 96 98 95 87 87 89
58 55 58 65 56 56 66 52 59 66 76 82 77 85 71 83 86 85 91 91 94 95 92 95 96 89 89 93 94 92 92 93 92 95 100 99 99 98 98 98 100 99 97 99
57 49 52 55 53 52 61 64 65 84 85 94 74 75 76 92 95 95 95 95 96 96 95 94 94 97 97 94 97 97 95 95 93 98 99 100 100 98 98 99 99 100 100 100
58 60 54 51 61 67 62 69 95 95 95 90 63 77 84 94 95 94 95 97 97 96 96 96 94 93 94 93 94 98 98 98 100 99 98 98 100 100 100 100 100 99 100 100
81 63 70 63 57 73 78 71 81 94 92 78 69 89 82 85 82 84 84 88 92 96 96 96 98 100 100 97 92 86 92 96 98 99 98 99 100 100 100 100 100 100 100 100
77 71 62 66 58 60 80 82 68 94 91 96 80 88 93 87 90 92 94 94 96 96 96 92 96 99 100 100 99 95 99 99 98 99 100 99 100 100 100 100 100 100 100 100
55 66 54 60 55 61 67 64 92 99 94 90 76 81 91 98 98 94 99 100 100 96 94 87 89 94 97 100 100 99 100 100 100 100 99 100 100 99 99 99 99 100 100 100
59 62 62 68 73 80 78 81 77 81 88 90 92 88 83 87 89 95 95 98 94 90 88 86 88 91 96 96 97 99 99 100 99 98 99 100 99 98 98 100 99 100 98 98
63 73 75 67 60 61 67 72 77 94 91 92 94 89 80 82 85 86 91 84 84 83 85 81 78 80 83 92 99 99 99 98 99 100 99 99 99 100 100 100 100 99 100 100
84 92 96 88 76 73 77 72 65 69 84 91 94 77 76 78 82 80 84 77 73 77 77 77 76 79 82 90 93 98 99 99 98 99 100 100 100 100 100 100 100 100 100 100
78 89 75 71 62 76 97 87 79 80 98 87 76 94 90 91 86 78 77 82 84 80 72 75 72 82 85 89 93 96 99 99 99 100 100 100 100 100 100 99 99 100 100 100
88 83 96 84 82 84 84 83 82 94 90 96 86 75 82 82 79 82 80 79 75 76 78 76 74 83 88 86 98 98 99 99 96 96 93 93 94 96 99 100 98 100 100 100
87 92 92 89 81 85 92 86 88 92 98 100 90 86 74 72 77 83 82 80 80 80 77 74 76 81 89 92 94 99 98 93 85 91 89 79 77 80 83 85 91 88 94 100
92 95 97 91 82 89 93 80 70 61 67 72 86 74 81 86 84 87 86 77 79 76 78 79 86 92 96 99 99 100 95 94 94 93 93 85 82 82 76 75 76 83 93 100
96 98 95 94 97 95 66 73 69 53 70 79 82 87 83 86 90 89 81 84 90 82 77 86 93 96 97 99 98 98 95 92 91 93 97 92 86 86 86 79 80 84 93 99
84 93 97 95 93 77 69 73 79 72 68 85 92 88 93 92 85 96 82 84 94 96 87 99 98 99 99 98 99 95 97 94 92 96 96 96 84 86 88 91 91 93 95 93
81 79 91 95 95 97 72 68 64 55 78 86 86 91 93 84 95 97 97 94 100 100 98 100 98 98 93 97 95 93 96 98 96 88 90 90 91 81 85 92 95 93 94 92
97 97 93 95 94 82 71 65 53 72 75 86 84 87 88 91 91 94 96 100 99 99 98 97 96 96 97 93 86 88 92 98 96 93 83 83 89 85 80 86 93 96 96 90
85 90 95 92 96 91 71 69 67 80 94 92 92 88 91 94 92 96 96 97 98 98 99 96 96 96 94 90 88 92 88 88 88 92 94 92 91 85 76 84 95 97 98 93
85 83 86 80 84 93 92 92 89 84 91 95 94 91 93 95 97 94 97 96 100 99 97 94 93 95 94 93 88 93 95 86 86 86 91 91 95 92 81 87 93 92 95 94
80 74 88 80 93 96 95 88 85 82 89 92 90 89 87 94 95 98 96 97 95 84 85 89 89 92 95 93 91 92 87 84 78 81 83 86 93 88 94 90 88 92 87 90
81 78 90 93 96 94 93 88 91 92 90 93 89 86 90 91 94 93 96 97 94 88 90 89 91 94 93 84 83 83 81 79 76 78 80 82 90 96 88 88 89 88 84 81
81 89 87 84 79 79 89 93 87 91 94 89 89 90 84 85 93 92 96 98 95 95 93 92 92 92 91 85 76 78 76 72 76 86 92 93 95 97 96 90 84 92 88 85

GFSCGP_925_rhum_123.txt.gz
RH
53 58 58 50 52 43 46 47 51 48 42 51 48 44 38 38 67 74 70 71 79 76 69 70 74 76 75 77 77 81 84 84 82 85 81 79 79 84 84 87 86 77 75 72
58 66 55 50 54 52 54 58 55 52 46 46 44 46 52 67 81 84 82 81 80 74 68 68 73 75 78 82 84 84 86 90 88 88 90 92 93 87 92 90 93 94 98 97
58 43 54 53 58 61 61 62 62 60 52 47 50 48 65 63 71 78 78 77 77 80 81 75 74 78 83 86 87 90 95 95 98 94 84 83 85 82 82 84 87 94 99 100
60 52 56 60 60 57 68 55 56 60 56 60 51 61 58 69 71 82 85 93 93 89 82 80 81 80 83 88 91 87 94 99 100 100 94 89 92 93 94 94 93 96 99 100
47 54 61 61 52 54 52 52 53 56 63 70 61 67 69 66 68 94 90 92 91 93 93 88 86 88 85 85 87 94 91 96 100 100 99 99 95 95 96 95 96 97 99 99
48 49 47 47 57 48 53 58 62 70 70 77 57 58 63 69 69 88 89 88 88 89 87 84 88 91 96 98 94 90 92 96 98 95 99 97 100 99 98 97 97 98 97 99
59 57 51 49 58 62 52 61 66 78 86 67 61 70 47 78 74 74 80 88 92 88 88 89 91 91 93 95 94 98 100 100 100 99 97 99 100 99 99 99 99 98 97 98
66 52 57 50 46 53 64 53 60 74 74 58 62 68 55 72 75 72 76 82 85 90 91 92 89 90 93 93 95 94 94 94 96 100 100 99 100 100 100 99 99 99 99 99
67 58 60 62 56 48 70 73 52 71 82 87 54 56 76 79 83 85 90 85 89 88 88 87 87 89 91 92 95 99 99 96 98 98 99 98 98 98 100 100 100 100 100 99
51 57 54 61 52 56 58 54 84 95 85 80 55 59 62 99 99 94 95 98 97 90 84 81 80 84 89 89 96 97 98 98 99 98 99 99 100 100 100 99 100 100 100 100
52 52 61 65 66 66 67 69 69 69 82 68 56 56 77 88 78 87 87 94 95 85 80 74 74 77 83 88 93 96 98 98 100 99 100 100 100 99 100 100 100 100 100 100
55 65 67 60 64 52 54 61 64 86 89 93 90 62 67 64 65 75 82 90 80 77 72 67 70 74 77 84 89 93 98 99 100 100 100 100 100 100 100 100 100 100 100 100
71 84 76 74 79 72 71 68 66 76 83 80 89 54 72 69 72 77 82 78 74 70 67 65 69 74 78 85 89 94 99 100 100 100 100 100 100 100 100 99 100 100 100 100
72 84 70 70 73 71 89 75 68 78 85 74 65 53 78 78 84 77 77 72 70 68 67 66 71 75 78 85 90 94 97 96 94 91 92 97 96 98 98 98 99 100 100 100
80 74 74 64 58 64 59 59 63 76 72 78 55 62 55 75 80 79 72 73 73 71 70 69 73 76 81 83 86 89 91 86 84 83 84 87 86 89 91 91 92 94 99 100
87 78 77 74 71 74 79 68 67 65 66 72 70 81 65 65 76 78 75 73 72 73 71 72 73 75 80 82 86 92 95 88 80 81 80 83 83 84 90 90 89 89 91 93
93 89 94 81 68 84 94 71 66 62 61 64 78 64 74 79 80 79 76 71 72 72 71 75 78 84 88 93 89 92 90 81 82 83 83 85 93 94 96 93 92 96 98 100
92 96 97 80 82 94 45 61 61 67 61 58 61 73 72 70 74 74 68 71 72 71 76 81 87 89 94 100 99 100 88 83 85 87 88 88 93 96 96 94 96 98 97 100
73 79 85 90 85 69 52 62 77 79 64 66 66 79 88 87 80 92 74 70 75 77 88 93 95 98 100 100 100 100 96 86 82 90 93 92 94 97 98 98 100 98 96 95
81 76 86 96 90 79 64 62 57 53 70 68 74 87 93 83 97 83 80 82 90 90 94 97 100 100 96 96 90 97 97 90 93 95 94 92 88 90 91 100 100 97 93 94
96 97 96 95 90 71 59 59 48 72 68 74 80 85 86 88 81 88 88 92 93 96 100 100 100 97 96 87 80 95 98 100 99 97 97 94 92 87 97 98 99 97 90 91
77 86 85 88 88 84 62 60 60 74 88 82 85 84 91 94 95 96 94 96 98 98 99 99 99 100 97 89 85 93 97 96 88 94 99 100 93 90 92 97 93 94 90 85
86 82 85 72 74 83 82 83 82 76 81 88 84 85 86 93 95 95 97 95 99 98 98 94 90 89 91 89 86 84 92 91 91 93 97 94 93 96 89 88 88 82 86 84
70 69 72 72 77 79 85 81 75 75 80 84 80 83 87 94 93 92 95 96 97 96 88 87 82 83 88 89 91 89 85 80 78 78 81 86 82 81 85 76 76 77 77 78
64 66 72 78 89 88 84 77 76 82 80 84 81 82 87 91 95 90 92 93 94 96 91 82 78 81 87 88 89 88 85 72 73 78 79 82 81 79 78 91 84 80 83 80
72 82 74 66 64 65 76 82 78 84 86 84 83 84 79 80 88 86 90 87 87 94 91 88 86 84 86 83 87 85 84 76 73 75 81 85 82 82 78 74 79 94 87 85